[[{"header":{"parameterUnit":"m.s-1","parameterCategory":1,"la1":30.6,"la2":29.2853,"lo1":-89.7004,"lo2":-87.6739,"dy":0.0162,"dx":0.0183,"nx":112,"ny":82,"refTime":"2026-03-26T00:00:00:Z","depth":0,"parameterNumber":2,"parameterNumberName":"U-component_of_WINDS"},"data":[0.0,0.0,0.0,0.0,0.0,0.0,0.0,0.0,0.0,0.0,0.0,0.0,0.0,0.0,0.0,0.0,0.0,0.0,0.0,0.0,0.0,0.0,0.0,0.0,0.0,0.0,0.0,0.0,0.0,0.0,0.0,0.0,0.0,0.0,0.0,0.0,0.0,0.0,0.0,0.0,0.0,0.0,0.0,0.0,0.0,0.0,0.0,0.0,0.0,0.0,0.0,0.0,0.0,0.0,0.0,0.0,0.0,0.0,0.0,0.0,0.0,0.0,0.0,0.0,0.0,0.0,0.0,0.0,0.0,0.0,0.0,0.0,0.0,0.0,0.0,0.0,0.0,0.0,0.0,0.0,0.0,0.0,0.0,0.0,0.0,0.0,0.0,0.0,0.0,0.0,-1.9039,-2.1086,-2.3044,-2.4036,-2.366,-2.2571,-2.0941,-1.862,0.0,0.0,0.0,0.0,0.0,0.0,0.0,0.0,0.0,0.0,0.0,0.0,0.0,0.0,0.0,0.0,0.0,0.0,0.0,0.0,0.0,0.0,0.0,0.0,0.0,0.0,0.0,0.0,0.0,0.0,0.0,0.0,0.0,0.0,0.0,0.0,0.0,0.0,0.0,0.0,0.0,0.0,0.0,0.0,0.0,0.0,0.0,0.0,0.0,0.0,0.0,0.0,0.0,0.0,0.0,0.0,0.0,0.0,0.0,0.0,0.0,0.0,0.0,0.0,0.0,0.0,0.0,0.0,0.0,0.0,0.0,0.0,0.0,0.0,0.0,0.0,0.0,0.0,0.0,0.0,0.0,0.0,0.0,0.0,0.0,0.0,0.0,0.0,0.0,0.0,0.0,0.0,0.0,0.0,0.0,0.0,0.0,0.0,0.0,0.0,0.0,0.0,0.0,0.0,-1.79,-2.2239,-2.3594,-2.3937,-2.3335,-2.1985,-2.0241,-1.8062,0.0,0.0,0.0,0.0,0.0,0.0,0.0,0.0,0.0,0.0,0.0,0.0,0.0,0.0,0.0,0.0,0.0,0.0,0.0,0.0,0.0,0.0,0.0,0.0,0.0,0.0,0.0,0.0,0.0,0.0,0.0,0.0,0.0,0.0,0.0,0.0,0.0,0.0,0.0,0.0,0.0,0.0,0.0,0.0,0.0,0.0,0.0,0.0,0.0,0.0,0.0,0.0,0.0,0.0,0.0,0.0,0.0,0.0,0.0,0.0,0.0,0.0,0.0,0.0,0.0,0.0,0.0,0.0,0.0,0.0,0.0,0.0,0.0,0.0,0.0,0.0,0.0,0.0,0.0,0.0,0.0,0.0,0.0,0.0,0.0,0.0,0.0,0.0,0.0,0.0,0.0,0.0,0.0,0.0,0.0,0.0,0.0,0.0,0.0,0.0,0.0,0.0,0.0,-1.8081,-1.9822,-2.329,-2.3825,-2.3724,-2.3236,-2.1672,-1.988,-1.7918,-1.5409,0.0,0.0,0.0,0.0,0.0,0.0,0.0,0.0,0.0,0.0,0.0,0.0,0.0,0.0,0.0,0.0,0.0,0.0,0.0,0.0,0.0,0.0,0.0,0.0,0.0,0.0,0.0,0.0,0.0,0.0,0.0,0.0,0.0,0.0,0.0,0.0,0.0,0.0,0.0,0.0,0.0,0.0,0.0,0.0,0.0,0.0,0.0,0.0,0.0,0.0,0.0,0.0,0.0,0.0,0.0,0.0,0.0,0.0,0.0,0.0,0.0,0.0,0.0,0.0,0.0,0.0,0.0,0.0,0.0,0.0,0.0,0.0,0.0,0.0,0.0,0.0,0.0,0.0,0.0,0.0,0.0,0.0,0.0,0.0,0.0,0.0,0.0,0.0,0.0,0.0,0.0,0.0,0.0,0.0,0.0,0.0,0.0,0.0,0.0,0.0,0.0,0.0,-2.0671,-2.1826,-2.3866,-2.3847,-2.3533,-2.3117,-2.1348,-1.9539,-1.7907,-1.4868,0.0,0.0,0.0,0.0,0.0,0.0,0.0,0.0,0.0,0.0,0.0,0.0,0.0,0.0,0.0,0.0,0.0,0.0,0.0,0.0,0.0,0.0,0.0,0.0,0.0,0.0,0.0,0.0,0.0,0.0,0.0,0.0,0.0,0.0,0.0,0.0,0.0,0.0,0.0,0.0,0.0,0.0,0.0,0.0,0.0,0.0,0.0,0.0,0.0,0.0,0.0,0.0,0.0,0.0,0.0,0.0,0.0,0.0,0.0,0.0,0.0,0.0,0.0,0.0,0.0,0.0,0.0,0.0,0.0,0.0,0.0,0.0,0.0,0.0,0.0,0.0,0.0,0.0,0.0,0.0,0.0,0.0,0.0,0.0,0.0,0.0,0.0,0.0,0.0,0.0,0.0,0.0,0.0,0.0,0.0,0.0,0.0,0.0,0.0,0.0,0.0,0.0,-2.0304,-2.2228,-2.3593,-2.3714,-2.3437,-2.2797,-2.0726,-1.9009,-1.7873,-1.4394,0.0,0.0,0.0,0.0,0.0,0.0,0.0,0.0,0.0,0.0,0.0,0.0,0.0,0.0,0.0,0.0,0.0,0.0,0.0,0.0,0.0,0.0,0.0,0.0,0.0,0.0,0.0,0.0,0.0,0.0,0.0,0.0,0.0,0.0,0.0,0.0,0.0,0.0,0.0,0.0,0.0,0.0,0.0,0.0,0.0,0.0,0.0,0.0,0.0,0.0,0.0,0.0,0.0,0.0,0.0,0.0,0.0,0.0,0.0,0.0,0.0,0.0,0.0,0.0,0.0,0.0,0.0,0.0,0.0,0.0,0.0,0.0,0.0,0.0,0.0,0.0,0.0,0.0,0.0,0.0,0.0,0.0,0.0,0.0,0.0,0.0,0.0,0.0,0.0,0.0,0.0,0.0,0.0,0.0,0.0,0.0,0.0,0.0,0.0,0.0,0.0,0.0,-1.9958,-2.1505,-2.3486,-2.3352,-2.2838,-2.2074,-2.0639,-1.8813,-1.657,0.0,0.0,0.0,0.0,0.0,0.0,0.0,0.0,0.0,0.0,0.0,0.0,0.0,0.0,0.0,0.0,0.0,0.0,0.0,0.0,0.0,0.0,0.0,0.0,0.0,0.0,0.0,0.0,0.0,0.0,0.0,0.0,0.0,0.0,0.0,0.0,0.0,0.0,0.0,0.0,0.0,0.0,0.0,0.0,0.0,0.0,0.0,0.0,0.0,0.0,0.0,0.0,0.0,0.0,0.0,0.0,0.0,0.0,0.0,0.0,0.0,0.0,0.0,0.0,0.0,0.0,0.0,0.0,0.0,0.0,0.0,0.0,0.0,0.0,0.0,0.0,0.0,0.0,0.0,0.0,0.0,0.0,0.0,0.0,0.0,0.0,0.0,0.0,0.0,0.0,0.0,0.0,0.0,0.0,0.0,0.0,0.0,0.0,0.0,0.0,0.0,0.0,-1.8705,-1.9938,-2.1221,-2.316,-2.3002,-2.241,-2.1548,-2.0351,-1.8493,-1.5764,0.0,0.0,0.0,0.0,0.0,0.0,0.0,0.0,0.0,0.0,0.0,0.0,0.0,0.0,0.0,0.0,0.0,0.0,0.0,0.0,0.0,0.0,0.0,0.0,0.0,0.0,0.0,0.0,0.0,0.0,0.0,0.0,0.0,0.0,0.0,0.0,0.0,0.0,0.0,0.0,0.0,0.0,0.0,0.0,0.0,0.0,0.0,0.0,0.0,0.0,0.0,0.0,0.0,0.0,0.0,0.0,0.0,0.0,0.0,0.0,0.0,0.0,0.0,0.0,0.0,0.0,0.0,0.0,0.0,0.0,0.0,0.0,0.0,0.0,0.0,0.0,0.0,0.0,0.0,0.0,0.0,0.0,0.0,0.0,0.0,0.0,0.0,0.0,0.0,0.0,0.0,0.0,0.0,0.0,0.0,0.0,0.0,0.0,0.0,0.0,0.0,0.0,-1.8518,-2.0289,-2.165,-2.2598,-2.2695,-2.2289,-2.1281,-1.9786,-1.7963,0.0,0.0,0.0,0.0,0.0,0.0,0.0,0.0,0.0,0.0,0.0,0.0,0.0,0.0,0.0,0.0,0.0,0.0,0.0,0.0,0.0,0.0,0.0,0.0,0.0,0.0,0.0,0.0,0.0,0.0,0.0,0.0,0.0,0.0,0.0,0.0,0.0,0.0,0.0,0.0,0.0,0.0,0.0,0.0,0.0,0.0,0.0,0.0,0.0,0.0,0.0,0.0,0.0,0.0,0.0,0.0,0.0,0.0,0.0,0.0,0.0,0.0,0.0,0.0,0.0,0.0,0.0,0.0,0.0,0.0,0.0,0.0,0.0,0.0,0.0,0.0,0.0,0.0,0.0,0.0,0.0,0.0,0.0,0.0,0.0,0.0,0.0,0.0,0.0,0.0,0.0,0.0,0.0,0.0,0.0,0.0,0.0,0.0,0.0,0.0,0.0,0.0,0.0,-1.8501,-1.9929,-2.1185,-2.2547,-2.2541,-2.1861,-2.0467,-1.9947,-1.807,-1.4285,0.0,0.0,0.0,0.0,0.0,0.0,0.0,0.0,0.0,0.0,0.0,0.0,0.0,0.0,0.0,0.0,0.0,0.0,0.0,0.0,0.0,0.0,0.0,0.0,0.0,0.0,0.0,0.0,0.0,0.0,0.0,0.0,0.0,0.0,0.0,0.0,0.0,0.0,0.0,0.0,0.0,0.0,0.0,0.0,0.0,0.0,0.0,0.0,0.0,0.0,0.0,0.0,0.0,0.0,0.0,0.0,0.0,0.0,0.0,0.0,0.0,0.0,0.0,0.0,0.0,0.0,0.0,0.0,0.0,0.0,0.0,0.0,0.0,0.0,0.0,0.0,0.0,0.0,0.0,0.0,0.0,0.0,0.0,0.0,0.0,0.0,0.0,0.0,0.0,0.0,0.0,0.0,0.0,0.0,0.0,0.0,0.0,0.0,0.0,0.0,0.0,0.0,-1.8297,-1.9706,-2.0958,-2.2396,-2.2402,-2.1806,-2.0572,-2.0183,-1.8358,-1.4522,0.0,0.0,0.0,0.0,0.0,0.0,0.0,0.0,0.0,0.0,0.0,0.0,0.0,0.0,0.0,0.0,0.0,0.0,0.0,0.0,0.0,0.0,0.0,0.0,0.0,0.0,0.0,0.0,0.0,0.0,0.0,0.0,0.0,0.0,0.0,0.0,0.0,0.0,0.0,0.0,0.0,0.0,0.0,0.0,0.0,0.0,0.0,0.0,0.0,0.0,0.0,0.0,0.0,0.0,0.0,0.0,0.0,0.0,0.0,0.0,0.0,0.0,0.0,0.0,0.0,0.0,0.0,0.0,0.0,0.0,0.0,0.0,0.0,0.0,0.0,0.0,0.0,0.0,0.0,0.0,0.0,0.0,0.0,0.0,0.0,0.0,0.0,0.0,0.0,0.0,0.0,0.0,0.0,0.0,0.0,0.0,0.0,0.0,0.0,0.0,0.0,0.0,-1.8025,-1.9605,-2.095,-2.2172,-2.2296,-2.2006,-2.1258,-2.0454,-1.878,-1.5883,0.0,0.0,0.0,0.0,0.0,0.0,0.0,0.0,0.0,0.0,0.0,0.0,0.0,0.0,0.0,0.0,0.0,0.0,0.0,0.0,0.0,0.0,0.0,0.0,0.0,0.0,0.0,0.0,0.0,0.0,0.0,0.0,0.0,0.0,0.0,0.0,0.0,0.0,0.0,0.0,0.0,0.0,0.0,0.0,0.0,0.0,0.0,0.0,0.0,0.0,0.0,0.0,0.0,0.0,0.0,0.0,0.0,0.0,0.0,0.0,-1.7562,0.0,0.0,0.0,0.0,0.0,0.0,0.0,0.0,0.0,0.0,0.0,0.0,0.0,0.0,0.0,0.0,0.0,0.0,0.0,0.0,0.0,0.0,0.0,0.0,0.0,0.0,0.0,0.0,0.0,0.0,0.0,0.0,0.0,0.0,0.0,0.0,0.0,0.0,0.0,0.0,0.0,-1.8066,-1.9946,-2.1358,-2.2209,-2.2296,-2.2006,-2.1258,-2.0454,-1.8983,-1.6621,-1.5071,0.0,0.0,0.0,0.0,0.0,0.0,0.0,0.0,0.0,0.0,0.0,0.0,0.0,0.0,0.0,0.0,0.0,0.0,0.0,0.0,0.0,0.0,0.0,0.0,0.0,0.0,0.0,0.0,0.0,0.0,0.0,0.0,0.0,0.0,0.0,0.0,0.0,0.0,0.0,0.0,0.0,0.0,0.0,0.0,0.0,0.0,0.0,0.0,0.0,0.0,0.0,0.0,0.0,0.0,0.0,0.0,0.0,0.0,0.0,0.0,-1.9149,0.0,0.0,0.0,0.0,0.0,0.0,0.0,0.0,0.0,0.0,0.0,0.0,0.0,0.0,0.0,0.0,0.0,0.0,0.0,0.0,0.0,0.0,0.0,0.0,0.0,0.0,0.0,0.0,0.0,0.0,0.0,0.0,0.0,0.0,0.0,0.0,0.0,0.0,0.0,0.0,-1.7934,-1.9993,-2.1478,-2.2212,-2.2296,-2.2127,-2.1752,-2.1025,-1.9773,-1.7873,-1.6367,0.0,0.0,0.0,0.0,0.0,0.0,0.0,0.0,0.0,0.0,0.0,0.0,0.0,0.0,0.0,0.0,0.0,0.0,0.0,0.0,0.0,0.0,0.0,0.0,0.0,0.0,0.0,0.0,0.0,0.0,0.0,0.0,0.0,0.0,0.0,0.0,0.0,0.0,0.0,0.0,0.0,0.0,0.0,0.0,0.0,0.0,0.0,0.0,0.0,0.0,0.0,0.0,0.0,-2.564,-2.613,-2.6303,-2.6303,-2.6363,-2.6333,-2.4355,-2.3,-2.2099,-2.0767,0.0,0.0,0.0,0.0,0.0,0.0,0.0,0.0,0.0,0.0,0.0,0.0,0.0,0.0,0.0,0.0,0.0,0.0,0.0,0.0,0.0,0.0,0.0,0.0,-2.0348,-2.0082,0.0,0.0,0.0,0.0,0.0,0.0,0.0,0.0,0.0,0.0,0.0,0.0,-1.8181,-2.0181,-2.163,-2.2229,-2.2296,-2.2296,-2.2296,-2.1617,-2.0649,-1.9379,-1.7788,-1.6011,0.0,0.0,0.0,0.0,0.0,0.0,0.0,0.0,0.0,0.0,0.0,0.0,0.0,0.0,0.0,0.0,0.0,0.0,0.0,0.0,0.0,0.0,0.0,0.0,0.0,0.0,0.0,0.0,0.0,0.0,0.0,0.0,-1.8253,-1.8433,0.0,0.0,0.0,0.0,0.0,0.0,0.0,0.0,0.0,0.0,0.0,0.0,0.0,-2.4569,-2.5685,-2.6623,-2.7133,-2.7165,-2.8426,-2.9045,-2.9082,-2.9082,-2.9355,-2.9804,-2.8974,0.0,-2.4111,-2.2817,0.0,0.0,0.0,0.0,0.0,0.0,0.0,0.0,0.0,0.0,0.0,0.0,0.0,0.0,0.0,0.0,0.0,0.0,0.0,0.0,0.0,0.0,-2.3881,-2.378,-2.3848,-2.3628,0.0,-1.9312,-1.6479,-1.6191,-1.5155,0.0,0.0,0.0,0.0,0.0,0.0,0.0,-1.9779,-2.1262,-2.2178,-2.2279,-2.2296,-2.2296,-2.2296,-2.1617,-2.1106,-2.0903,-1.886,-1.7236,-1.6309,-1.4208,0.0,0.0,0.0,0.0,0.0,0.0,0.0,0.0,0.0,0.0,0.0,0.0,0.0,0.0,0.0,0.0,0.0,0.0,0.0,0.0,0.0,0.0,0.0,0.0,0.0,0.0,0.0,0.0,0.0,-1.8807,-1.9821,-1.9821,-2.0168,-1.9944,0.0,0.0,0.0,0.0,0.0,0.0,0.0,0.0,0.0,-2.6106,-2.6618,-2.7435,-2.8646,-2.9417,-2.9983,-3.0357,-3.0956,-3.142,-3.1779,-3.1779,-3.1928,-3.2168,-3.1898,-3.0746,-2.8805,-2.6033,-2.4313,-2.3325,0.0,0.0,0.0,0.0,-2.2287,-2.2381,-2.3044,-2.2894,0.0,-2.1915,0.0,0.0,0.0,0.0,0.0,0.0,0.0,0.0,0.0,0.0,0.0,-2.4491,-2.4491,-2.4406,-2.4085,-2.2477,-2.0581,0.0,-1.8036,-1.7062,-1.5399,0.0,0.0,0.0,0.0,-1.8833,-1.9986,-2.1386,-2.2296,-2.2296,-2.2296,-2.2296,-2.2296,-2.2006,-2.1634,-2.1224,-1.9841,-1.8527,-1.7371,-1.5588,-1.3929,0.0,0.0,0.0,0.0,0.0,0.0,0.0,0.0,0.0,0.0,0.0,0.0,0.0,0.0,0.0,0.0,0.0,0.0,0.0,0.0,0.0,0.0,0.0,0.0,0.0,0.0,0.0,0.0,-2.0393,-2.1376,-2.1231,-2.2099,-2.1979,0.0,0.0,0.0,0.0,0.0,0.0,-2.5561,-2.6422,-2.747,-2.8813,-2.934,-3.0133,-3.1255,-3.1943,-3.2527,-3.3021,-3.32,-3.3544,-3.4008,-3.3829,-3.3844,-3.3993,-3.3649,-3.3305,-3.2736,-2.9086,-2.7111,-2.6243,-2.4881,-2.4474,-2.4661,-2.483,-2.4891,-2.4976,-2.5671,-2.5644,-2.5211,-2.426,0.0,-2.2465,-2.1267,0.0,0.0,0.0,0.0,-2.4526,-2.4526,-2.51,-2.5642,-2.5642,-2.5489,-2.5354,-2.5354,-2.5049,-2.4068,0.0,-2.0842,-1.9896,-1.7693,0.0,0.0,0.0,0.0,-1.9756,-2.0487,-2.1586,-2.2296,-2.2296,-2.2296,-2.2296,-2.2296,-2.2296,-2.2073,-2.1529,-2.0555,-1.9512,-1.8408,-1.6688,-1.5095,-1.3709,0.0,0.0,0.0,0.0,0.0,0.0,0.0,0.0,0.0,0.0,0.0,0.0,0.0,0.0,0.0,0.0,0.0,0.0,0.0,0.0,0.0,0.0,0.0,0.0,0.0,0.0,0.0,0.0,0.0,-2.2673,-2.4253,0.0,0.0,0.0,0.0,-2.441,-2.6228,-2.766,-2.8368,-2.9579,-3.0866,-3.2228,-3.2302,-3.2647,-3.3335,-3.3993,-3.4384,-3.4414,-3.504,-3.537,-3.5385,-3.4726,-3.4786,-3.5325,-3.4053,-3.3829,-3.4204,-3.1435,-2.9579,-2.8323,-2.6961,-2.6072,-2.5608,-2.6261,-2.6486,-2.6576,-2.7235,-2.7475,-2.7435,-2.736,-2.6452,-2.5462,-2.5763,-2.5431,0.0,0.0,-2.6962,-2.7587,-2.7587,-2.818,-2.8773,-2.8773,-2.8197,-2.7638,-2.7638,-2.6522,-2.5287,0.0,-2.3139,-2.2144,-2.1992,0.0,-2.0082,-2.0801,-2.1004,-2.136,-2.2076,-2.2245,-2.2296,-2.2296,-2.2296,-2.2296,-2.2296,-2.2296,-2.2279,-2.2245,-2.0842,-1.9968,-1.9883,-1.7479,-1.5624,-1.4461,-1.3108,0.0,0.0,0.0,0.0,0.0,0.0,0.0,0.0,0.0,0.0,0.0,0.0,0.0,0.0,0.0,0.0,0.0,0.0,0.0,0.0,0.0,0.0,0.0,0.0,0.0,0.0,0.0,0.0,-2.5833,-2.756,0.0,-2.6342,-2.7156,-2.7814,-2.7814,-2.925,-3.0417,-3.1076,-3.2347,-3.3484,-3.4412,-3.4846,-3.537,-3.6013,-3.6252,-3.6163,-3.5774,-3.6013,-3.5908,-3.5489,-3.525,-3.5265,-3.5474,-3.4996,-3.4921,-3.504,-3.3634,-3.2287,-3.1031,-3.0105,-2.9328,-2.8786,-2.9026,-2.8861,-2.8547,-2.8813,-2.8888,-2.8828,-2.8368,-2.7335,-2.635,-2.6889,-2.6809,-2.6704,-2.7458,-2.8098,-2.8569,-2.8569,-2.879,-2.8993,-2.8993,-2.879,-2.8433,-2.7908,-2.7401,-2.6793,-2.6048,-2.4728,-2.341,-2.2448,-2.2229,-2.1955,-2.1292,-2.16,-2.2006,-2.2262,-2.2296,-2.2296,-2.2296,-2.2296,-2.2296,-2.2296,-2.2017,-2.1771,-2.1586,-2.0138,-1.9203,-1.8976,-1.7444,-1.6047,-1.4911,-1.3822,-1.2367,0.0,0.0,0.0,0.0,0.0,0.0,0.0,0.0,0.0,0.0,0.0,0.0,0.0,0.0,0.0,0.0,0.0,0.0,0.0,0.0,0.0,0.0,0.0,0.0,0.0,-2.5967,-2.7794,-2.8229,-2.9983,-3.0492,-2.8753,-3.0011,-3.0924,-3.0924,-3.2332,-3.3395,-3.3829,-3.4876,-3.5669,-3.6133,-3.6567,-3.7,-3.7404,-3.7404,-3.7105,-3.6492,-3.6492,-3.6148,-3.5504,-3.5504,-3.5504,-3.5504,-3.5504,-3.5504,-3.5474,-3.5011,-3.4307,-3.344,-3.2512,-3.1884,-3.1509,-3.1509,-3.112,-3.0537,-3.0313,-3.0088,-2.9819,-2.9385,-2.8502,-2.7715,-2.8319,-2.8612,-2.8785,-2.9165,-2.9655,-3.0059,-2.9805,-2.9738,-2.9738,-2.9738,-2.9551,-2.9228,-2.8686,-2.8179,-2.7655,-2.7182,-2.5879,-2.456,-2.3579,-2.3461,-2.3162,-2.2093,-2.22,-2.2392,-2.2316,-2.2296,-2.2296,-2.2296,-2.2296,-2.2296,-2.2296,-2.2017,-2.1757,-2.1569,-2.0028,-1.9048,-1.8946,-1.7558,-1.6314,-1.5286,-1.4093,-1.2946,-1.1809,0.0,0.0,0.0,0.0,0.0,0.0,0.0,0.0,0.0,0.0,0.0,0.0,0.0,0.0,0.0,0.0,0.0,0.0,0.0,0.0,0.0,0.0,0.0,-2.5734,-2.8023,-2.9756,-2.9786,-3.148,-3.2153,-3.0851,-3.2482,-3.3619,-3.3619,-3.5415,-3.6507,-3.6507,-3.7105,-3.7434,-3.7434,-3.7464,-3.7464,-3.7434,-3.7434,-3.712,-3.6492,-3.6492,-3.6148,-3.5504,-3.5504,-3.5504,-3.5504,-3.5504,-3.5504,-3.5504,-3.5504,-3.5504,-3.537,-3.4068,-3.3544,-3.3529,-3.3529,-3.311,-3.2452,-3.1765,-3.1092,-3.0567,-3.0537,-3.0118,-2.9729,-3.0356,-3.0979,-3.1485,-3.1373,-3.18,-3.2141,-3.141,-3.1207,-3.119,-3.119,-3.0649,-3.0123,-3.0108,-2.8906,-2.7841,-2.7807,-2.6624,-2.5642,-2.5592,-2.458,-2.367,-2.3454,-2.2984,0.0,-2.2343,-2.2316,-2.2316,-2.2296,-2.2296,-2.2296,-2.2296,-2.2282,-2.2265,-2.2248,-2.05,-1.9601,-1.9921,-1.7925,-1.6434,-1.5657,-1.3985,-1.3294,-1.3621,0.0,0.0,0.0,0.0,0.0,0.0,0.0,0.0,0.0,0.0,0.0,0.0,0.0,0.0,0.0,0.0,0.0,0.0,0.0,0.0,0.0,-2.6752,-2.8487,-2.8487,-3.0761,-3.2781,-3.3754,-3.5175,-3.5923,-3.5549,-3.6013,-3.6327,-3.6327,-3.6851,-3.715,-3.715,-3.7764,-3.8123,-3.8123,-3.8601,-3.8631,-3.8123,-3.8123,-3.7569,-3.6492,-3.6492,-3.6148,-3.5504,-3.5504,-3.5504,-3.5504,-3.5504,-3.5504,-3.5504,-3.5504,-3.5504,-3.5474,-3.51,-3.4651,-3.4234,-3.4234,-3.3784,-3.3125,-3.2452,-3.2093,-3.1884,-3.1376,-3.0763,-3.0376,-3.0964,-3.1316,-3.1581,-3.1978,-3.22,-3.2242,-3.2056,-3.1616,-3.119,-3.119,-3.1055,-3.0751,-3.0226,-2.9347,-2.8501,-2.7908,-2.7046,-2.6234,-2.5693,-2.531,-2.4744,-2.3767,-2.3506,0.0,-2.2579,-2.2512,-2.2452,-2.2319,-2.2296,-2.2296,-2.2296,-2.1988,-2.1562,-2.1031,-1.9552,-1.8705,-1.8687,-1.7434,-1.6625,-1.6399,-1.4651,-1.3915,0.0,0.0,0.0,0.0,0.0,0.0,0.0,0.0,0.0,0.0,0.0,0.0,0.0,0.0,0.0,0.0,0.0,0.0,0.0,0.0,0.0,0.0,-2.949,-3.142,-3.1988,-3.338,-3.4816,-3.6148,-3.6956,-3.7404,-3.7404,-3.7659,-3.7823,-3.7823,-3.8093,-3.8257,-3.8257,-3.8332,-3.8392,-3.8392,-3.8512,-3.8392,-3.7973,-3.7719,-3.7225,-3.6492,-3.6207,-3.5878,-3.5504,-3.5504,-3.5504,0.0,-3.5504,-3.5504,-3.5504,-3.5504,-3.5504,0.0,0.0,0.0,0.0,0.0,-3.4264,-3.3814,-3.3155,-3.2751,-3.2452,-3.2049,-3.1466,-3.0983,-3.1344,-3.1672,-3.1969,-3.199,-3.2192,-3.2249,-3.1659,-3.1196,-3.0778,-3.0501,-3.0638,-3.0701,-3.0282,-2.9804,-2.9313,-2.8838,0.0,0.0,-2.659,-2.6101,-2.5481,-2.4613,-2.413,-2.3664,-2.3129,-2.28,-2.2566,-2.2445,-2.2172,-2.2092,-2.2282,-2.172,0.0,0.0,0.0,-1.8625,-1.8223,-1.7678,0.0,0.0,0.0,0.0,0.0,0.0,0.0,0.0,-1.4305,-1.3794,0.0,0.0,0.0,0.0,0.0,0.0,0.0,0.0,0.0,0.0,0.0,0.0,0.0,0.0,0.0,0.0,-3.2108,-3.4218,-3.5624,-3.5833,-3.6252,-3.7389,-3.7524,-3.7524,-3.7524,-3.7973,-3.8287,-3.8287,-3.8856,-3.9149,-3.9149,0.0,0.0,0.0,0.0,-3.7524,-3.7524,-3.6971,-3.6671,-3.6582,-3.5923,-3.5609,-3.5609,-3.5534,-3.5504,-3.5504,-3.5504,-3.5504,-3.5504,-3.5504,-3.5504,-3.5504,-3.5504,-3.5504,-3.5429,-3.4816,-3.4623,0.0,0.0,0.0,0.0,-3.2557,-3.2093,-3.16,-3.1525,-3.2007,-3.2462,-3.1731,-3.1997,-3.2196,-3.0975,-3.0591,-3.0375,-2.9762,-2.9978,-3.0307,-3.0288,-3.0092,-2.9919,-2.9996,-2.8832,-2.7838,-2.7789,-2.6834,-2.5958,-2.5614,-2.4812,0.0,-2.3698,-2.3095,-2.2671,-2.2655,0.0,0.0,-2.224,-2.1542,-2.1181,-2.1445,-2.0178,-1.9104,-1.8377,-1.8429,-1.8784,-1.9432,-1.8373,-1.8336,-1.941,-1.9413,-1.9098,-1.8462,-1.6183,-1.5078,0.0,0.0,0.0,0.0,0.0,0.0,0.0,0.0,0.0,0.0,0.0,0.0,0.0,0.0,0.0,-3.2317,-3.4083,-3.5744,-3.7569,-3.7838,-3.7928,-3.8167,-3.8197,-3.8197,-3.8197,-3.7838,-3.7599,-3.7599,-3.7719,-3.7793,-3.7793,-3.7674,-3.7838,-3.8377,-3.8257,-3.8197,-3.8197,-3.8078,-3.7749,-3.7225,0.0,0.0,-3.6282,-3.5744,-3.5504,-3.5504,-3.5504,-3.5504,-3.5504,-3.5504,-3.5504,-3.5504,-3.5504,-3.5504,-3.5489,-3.5355,-3.531,-3.5205,-3.4548,-3.4234,-3.3918,-3.2856,-3.2392,-3.2198,-3.166,-3.2007,0.0,-3.2416,-3.2416,-3.2435,-3.2148,-3.1653,-3.1166,-3.0977,-3.0664,-3.0367,-3.0318,-2.9445,-2.8798,-2.9266,-2.8649,-2.7985,-2.7838,-2.7096,-2.6265,-2.5419,-2.5107,-2.4602,-2.3525,-2.3245,-2.3114,-2.2939,-2.2322,-2.1955,-2.2053,-2.171,-2.1212,-2.0584,-1.9982,-1.9493,-1.9183,-1.9434,-1.9661,-1.9789,-1.9353,-1.9074,-1.894,-1.9304,-1.9388,-1.92,-1.9031,-1.8628,0.0,0.0,0.0,0.0,0.0,0.0,0.0,0.0,0.0,0.0,0.0,-2.5548,-2.8517,0.0,-3.2302,-3.4622,-3.6088,-3.7285,-3.8257,-3.8691,-3.8901,-3.8901,-3.8901,-3.8766,-3.8422,-3.8093,-3.7898,-3.7898,-3.7898,-3.8048,-3.8392,-3.8078,-3.8048,-3.8377,-3.8063,-3.7898,-3.7898,-3.7898,-3.7734,-3.7404,-3.709,-3.6791,-3.6477,-3.6148,-3.5818,-3.5504,-3.5504,-3.5504,-3.5504,-3.5504,-3.5504,-3.5504,-3.5504,-3.5504,-3.5504,-3.5504,-3.5504,-3.5459,-3.5115,-3.4788,-3.4399,-3.3709,-3.3275,-3.2886,-3.2183,-3.2265,-3.2462,-3.2127,-3.2026,-3.1928,-3.1588,-3.1232,-3.0877,-3.0519,-3.0193,-2.9943,-2.9922,-2.9352,-2.8944,-2.9248,-2.8686,-2.8184,-2.807,-2.7156,-2.6262,-2.5682,-2.5144,-2.4567,-2.394,-2.3535,-2.3254,-2.3161,-2.2559,-2.21,-2.2011,-2.1342,-2.0682,-2.0052,-2.0,-1.9863,-1.956,-2.0128,-2.0337,-2.0097,-1.9971,-1.9995,-2.0206,-1.9995,-2.0235,-2.0844,-2.0827,-2.0321,0.0,0.0,0.0,0.0,0.0,0.0,0.0,-2.2856,-2.4071,-2.5556,-2.6925,-2.8799,-3.1737,-3.3275,-3.4681,-3.6552,-3.7719,-3.8437,-3.8571,-3.9065,-3.9388,-3.9388,-3.9305,-3.899,-3.8437,-3.8167,-3.8063,-3.8197,-3.8093,-3.8317,-3.899,-3.8497,-3.8257,-3.8392,-3.7883,-3.7659,-3.7793,-3.7793,-3.7793,-3.7793,-3.7659,-3.727,-3.6656,-3.6537,-3.6133,-3.5504,-3.5504,-3.5504,-3.5504,-3.5504,-3.5504,-3.5504,-3.5504,-3.5504,-3.5504,-3.5504,-3.5504,-3.5504,-3.5504,-3.5145,-3.4651,-3.4548,-3.4113,-3.3559,-3.2901,-3.2617,-3.2378,-3.1854,-3.16,-3.1376,-3.0823,-3.0702,-3.0565,-3.0084,-2.9722,-2.9529,-2.9515,-2.9264,-2.9088,-2.9203,-2.8742,-2.8335,-2.8301,-2.7259,-2.6322,-2.5937,-2.5029,-2.4369,-2.4261,-2.3738,-2.336,-2.336,-2.2777,-2.2294,-2.2095,-2.1023,-2.0271,-2.0017,-2.0113,-2.0072,-1.9836,-2.0482,-2.0682,-2.0314,-2.0399,-2.0699,-2.1228,-2.0765,-2.1023,-2.1915,-2.1794,-2.1264,-2.1137,-2.0947,-2.1911,-2.3724,-2.3822,-2.449,0.0,-2.7684,-2.7089,-3.0037,-3.123,-3.2457,-3.4644,-3.5654,-3.6596,-3.7958,-3.8302,-3.8601,-3.9215,-3.9328,-3.9388,-3.9388,-3.8871,-3.8467,-3.8407,-3.7375,-3.6926,-3.7479,-3.7015,-3.6971,-3.7599,-3.7554,-3.7778,-3.8362,-3.8317,-3.8571,-3.9185,-3.92,-3.92,-3.9185,-3.8571,-3.7943,-3.7285,-3.6731,-3.6133,-3.5504,-3.5504,-3.5504,-3.5504,-3.5504,-3.5504,-3.5504,-3.5504,-3.5504,-3.5504,-3.5504,-3.5504,-3.5504,-3.5504,-3.5459,-3.5295,-3.4698,-3.4459,-3.4279,-3.3589,-3.2976,-3.2467,-3.2392,-3.1959,-3.1481,-3.1406,-3.1391,-3.1368,-3.1232,-3.0365,-2.9573,-2.9524,-2.8614,-2.7968,-2.8511,-2.8544,-2.8443,-2.8315,-2.7769,-2.6925,-2.5669,-2.4854,-2.4241,-2.3752,-2.3621,-2.3576,-2.3576,-2.3005,-2.2561,-2.2307,-2.1288,-2.0782,-2.1103,-2.0263,-1.9909,-2.0212,-2.0331,-2.0348,-2.0297,-2.0699,-2.0582,-1.9909,-2.0959,-2.1134,-2.055,-2.169,-2.2153,-2.2905,-2.3176,-2.4055,-2.5425,-2.6379,-2.7588,-2.9824,-3.019,-3.0629,-3.2608,-3.3955,-3.5281,-3.6907,-3.7404,-3.7898,-3.8841,-3.899,-3.9095,-3.9379,-3.9388,-3.9275,-3.8871,-3.8916,-3.8676,-3.7898,-3.7345,-3.7135,-3.7389,-3.7165,-3.7479,-3.8527,-3.8571,-3.8706,-3.8975,-3.899,-3.9125,-3.9388,-3.9388,-3.9388,-3.9388,-3.9125,-3.8631,-3.7973,-3.7704,-3.7045,-3.6058,-3.5669,-3.5504,-3.5504,-3.5504,-3.5504,-3.5504,-3.5504,-3.5504,-3.5504,-3.5504,-3.5504,-3.5504,-3.5504,-3.5504,-3.5459,-3.5175,-3.507,-3.4951,-3.4309,-3.3873,-3.3499,-3.2736,-3.2288,-3.1989,-3.16,-3.1511,-3.1478,-3.1475,-3.0762,-3.0021,-2.9652,-2.883,-2.8141,-2.801,-2.7984,-2.7951,-2.791,-2.7376,-2.6768,-2.6198,-2.5189,-2.4442,-2.4215,-2.3849,-2.3595,-2.3595,-2.3062,-2.265,-2.2531,-2.1768,-2.1188,-2.0958,-2.0535,-2.0185,-1.996,-2.0176,-2.0193,-1.9962,-2.0365,-2.0399,-2.0052,-2.0347,-2.0582,-2.0699,-2.0991,-2.1275,-2.4091,-2.4839,-2.5925,-2.7434,-2.9143,-3.0746,-3.1782,-3.2831,-3.3882,-3.4867,-3.5955,-3.6948,-3.7599,-3.784,-3.8136,-3.8639,-3.8862,-3.9068,-3.9337,-3.926,-3.8945,-3.8452,-3.8676,-3.8482,-3.7494,-3.7404,-3.7554,-3.7928,-3.7614,-3.8003,-3.9313,-3.9388,-3.9388,-3.9388,-3.9388,-3.9388,-3.9388,-3.9388,-3.9388,-3.9388,-3.9388,-3.905,-3.8377,-3.8197,-3.7524,-3.6462,-3.5983,-3.5669,-3.5504,-3.5504,-3.5504,-3.5504,-3.5504,-3.5504,-3.5504,-3.5504,-3.5504,-3.5504,-3.5504,-3.5504,-3.5504,-3.5504,-3.5504,-3.5415,-3.4906,-3.4653,-3.4309,-3.332,-3.2916,-3.2632,-3.1944,-3.178,-3.1735,-3.154,-3.0972,-3.0372,-2.9924,-2.9325,-2.8667,-2.8019,-2.7884,-2.7824,-2.763,-2.721,-2.6881,-2.6881,-2.5899,-2.5008,-2.4649,-2.4007,-2.3595,-2.3595,-2.3212,-2.2957,-2.2957,-2.2358,-2.1754,-2.1291,-2.1081,-2.0767,-2.0258,-2.0527,-2.0545,-2.0262,-2.0363,-2.0415,-2.0415,-2.0038,-2.0122,-2.0632,-2.0533,-2.06,-2.4305,-2.5486,-2.7256,-3.0606,-3.2415,-3.3887,-3.5845,-3.6357,-3.6552,-3.7176,-3.7325,-3.7099,-3.6228,-3.6505,-3.6901,-3.7069,-3.7515,-3.8234,-3.9265,-3.8841,-3.8407,-3.8392,-3.7838,-3.7449,0.0,-3.7404,-3.7958,-3.9224,-3.8138,-3.8003,-3.9313,-3.9388,-3.9388,-3.9388,-3.9388,-3.9388,-3.9388,-3.9388,-3.9388,-3.9388,-3.9388,-3.905,-3.8362,-3.7734,-3.709,-3.6492,-3.6462,-3.6088,-3.5504,-3.5504,-3.5504,-3.5504,-3.5504,-3.5504,-3.5504,-3.5504,-3.5504,-3.5504,-3.5504,-3.5504,-3.5504,-3.5504,-3.5504,-3.5504,-3.5489,-3.5011,-3.4503,-3.4459,-3.3963,-3.332,-3.2647,-3.2452,-3.2317,-3.1645,-3.0972,-3.0492,-3.0477,-2.9983,-2.9355,-2.8697,-2.8562,-2.8353,-2.7705,-2.7585,-2.757,-2.757,-2.6986,-2.6078,-2.4769,-2.4007,-2.3595,-2.3595,-2.358,-2.3565,-2.3565,-2.3017,-2.2658,-2.2643,-2.2044,-2.1665,-2.1635,-2.1655,-2.1655,-2.1635,-2.1006,-2.0677,-2.0696,-2.0408,-2.0089,-1.9747,-2.0582,-2.0732,-2.5974,-2.8101,-3.0357,-3.2295,-3.4159,-3.5759,-3.6851,-3.7105,-3.715,-3.736,-3.709,-3.6539,-3.5639,-3.5538,-3.5791,-3.6382,-3.6916,-3.7791,-3.9205,-3.923,-3.8508,-3.7007,-3.7332,0.0,0.0,0.0,0.0,-3.8048,-3.8078,-3.8257,-3.8706,-3.917,-3.9388,-3.9388,-3.9388,-3.9388,-3.9388,-3.9388,-3.9388,-3.9388,-3.9388,-3.929,-3.905,-3.8377,-3.7943,-3.7704,-3.6851,-3.6357,-3.6118,-3.5684,-3.5504,-3.5504,-3.5504,-3.5504,-3.5504,-3.5504,-3.5504,-3.5504,-3.5504,-3.5504,-3.5504,-3.5504,-3.5504,-3.5504,-3.5504,-3.534,-3.5055,-3.4638,-3.4354,-3.3993,-3.3335,-3.2841,-3.2452,-3.2213,-3.1645,-3.1032,-3.0612,-3.0342,-2.9998,-2.9397,-2.8891,-2.8532,-2.8293,-2.7899,-2.76,-2.76,-2.7031,-2.6123,-2.4769,-2.4395,-2.4081,-2.3655,-2.3595,-2.3595,-2.3595,-2.34,-2.3137,-2.2718,-2.2493,-2.2164,-2.171,-2.1695,-2.1695,-2.1695,-2.1485,-2.1365,-2.1365,-2.1265,-2.0933,-2.0363,-2.0661,-2.0475,-2.8436,-3.0247,-3.1915,-3.4076,-3.5599,-3.6709,-3.7107,-3.7491,-3.7569,-3.6866,-3.5993,-3.4971,-3.3604,-3.3237,-3.3545,-3.4832,-3.5727,-3.686,-3.8583,-3.8612,-3.7799,-3.598,-3.6207,-3.6071,-3.4827,-3.5703,0.0,-3.7131,-3.7704,-3.8138,-3.8377,-3.905,-3.9388,-3.9388,-3.9388,-3.9388,-3.9388,-3.9388,-3.9388,-3.9388,-3.9388,-3.9388,-3.9373,-3.896,-3.8616,-3.8347,-3.7524,-3.6911,-3.6447,-3.6028,-3.5714,-3.5504,-3.5504,-3.5504,-3.5504,-3.5504,-3.5504,-3.5504,-3.5504,-3.5504,-3.5504,-3.5504,-3.5504,-3.5504,-3.5504,-3.5504,-3.5415,-3.4966,-3.4846,-3.4681,-3.4023,-3.3529,-3.3095,-3.2617,-3.2168,-3.1675,-3.0987,-3.0866,-3.0687,-3.0028,-2.9564,-2.9205,-2.8981,-2.8382,-2.7884,-2.763,-2.724,-2.6557,-2.5457,-2.5098,-2.4694,-2.4044,-2.3969,-2.3864,-2.3625,-2.3595,-2.343,-2.3062,-2.3032,-2.2838,-2.2398,-2.2383,-2.2383,-2.2383,-2.2179,-2.2074,-2.2074,-2.1814,-2.1485,-2.1051,-2.0808,-2.0483,-3.155,-3.1946,-3.217,-3.5869,-3.6798,-3.6798,-3.6681,-3.7453,-3.7575,-3.563,-3.4086,-3.2439,-3.0188,-2.9725,-3.0372,-3.2465,-3.3917,-3.5483,-3.7532,-3.7207,-3.6381,-3.5355,-3.4681,-3.4533,-3.5107,-3.4689,0.0,-3.6533,0.0,-3.758,-3.8206,-3.8877,-3.9265,-3.9301,-3.9301,-3.9337,-3.9388,-3.9388,-3.9388,-3.9388,-3.9388,-3.9388,-3.9388,-3.9388,-3.9065,-3.8437,-3.8407,-3.7704,-3.6582,-3.6507,-3.6118,-3.5549,-3.5519,-3.5504,-3.5504,-3.5504,-3.5504,-3.5504,-3.5504,-3.5504,-3.5504,-3.5504,-3.5504,-3.5504,-3.5504,-3.5504,-3.5504,-3.5504,-3.5504,-3.5355,-3.4728,-3.4533,-3.4189,-3.2901,-3.2557,-3.2318,-3.169,-3.1525,-3.1316,-3.0687,-3.0522,-3.0313,-2.9711,-2.9041,-2.8382,-2.775,-2.7615,-2.736,-2.6701,-2.6048,-2.5382,-2.4724,-2.4634,-2.4335,-2.3714,-2.3625,-2.3595,-2.3595,-2.3595,-2.3595,-2.3595,-2.3595,-2.3595,-2.3595,-2.3047,-2.2748,-2.2748,-2.2119,-2.1784,-2.1739,-2.1111,-2.0778,-3.3321,-3.4636,-3.5575,-3.656,-3.6798,-3.6499,-3.5414,-3.4923,-3.4101,-3.2065,-3.0239,-2.8514,-2.688,-2.7466,-2.8991,-3.135,-3.2708,-3.4503,-3.7386,-3.6957,-3.5811,-3.4365,-3.4433,-3.419,-3.3101,-3.354,-3.4059,0.0,-3.5381,-3.5949,-3.609,-3.6682,-3.7367,-3.8182,-3.8234,-3.8583,-3.9388,-3.9388,-3.9388,-3.9388,-3.9388,-3.9388,-3.9388,-3.9388,-3.9334,-3.9125,-3.8616,-3.8212,-3.7823,-3.6881,-3.6387,-3.6193,-3.5699,-3.5504,-3.5504,-3.5504,-3.5504,-3.5504,-3.5504,-3.5504,-3.5504,-3.5504,-3.5504,-3.5504,-3.5504,-3.5504,-3.5504,-3.5504,-3.5504,-3.5459,-3.5295,-3.4861,-3.4414,-3.4053,-3.323,-3.2437,-3.2273,-3.1854,-3.1451,-3.1271,-3.0823,-3.0313,-2.9711,-2.9041,-2.8547,-2.8368,-2.7929,-2.736,-2.6701,-2.6437,-2.6093,-2.5435,-2.4903,-2.453,-2.435,-2.3894,-2.3595,-2.3595,-2.3595,-2.3595,-2.3595,-2.3595,-2.3595,-2.3595,-2.3445,-2.337,-2.337,-2.3191,-2.2877,-2.2448,-2.2283,-2.1919,-3.503,-3.582,-3.6052,-3.5607,-3.5492,-3.4948,-3.2827,-3.2368,-3.1628,-2.8902,-2.7199,-2.5814,-2.4491,-2.5322,-2.7013,-2.9446,-3.126,-3.3216,-3.5706,-3.5744,-3.5036,-3.3654,-3.3788,-3.3627,-3.2701,-3.2883,-3.3163,-3.3421,-3.4645,-3.5355,-3.5317,-3.5855,-3.6487,-3.7098,-3.7098,-3.7381,-3.7965,-3.8003,-3.8003,-3.8003,-3.8003,-3.8003,-3.8003,-3.8494,-3.8708,-3.8679,0.0,-3.824,-3.8297,-3.7118,-3.6581,-3.6447,-3.6088,-3.5759,-3.5504,-3.5504,-3.5504,-3.5504,-3.5504,-3.5504,-3.5504,-3.5504,-3.5504,-3.5504,-3.5504,-3.5504,-3.5504,-3.5504,-3.5504,-3.5504,-3.5504,-3.522,-3.4846,-3.4578,-3.3918,-3.3305,-3.3006,-3.2392,-3.1854,-3.157,-3.1197,-3.0746,-3.0103,-2.9684,-2.9235,-2.8682,-2.8263,-2.7809,-2.7136,-2.7046,-2.6767,-2.6108,-2.5704,-2.5352,-2.5053,-2.441,-2.4044,-2.4044,-2.3759,-2.3595,-2.3595,-2.3595,-2.3595,-2.3595,-2.3595,-2.3595,-2.3595,-2.3595,-2.343,-2.3092,-2.2823,-2.2508,-3.6611,-3.6236,-3.5205,-3.4259,-3.3794,-3.2803,-2.9885,-2.9801,-2.9368,-2.5855,-2.4462,-2.3534,-2.2498,-2.3248,-2.4896,-2.7485,-2.9781,-3.1834,-3.3542,-3.4133,-3.4059,-3.3185,-3.3124,-3.3124,-3.3124,-3.2616,-3.2541,-3.3043,-3.4283,-3.5012,-3.5012,-3.5502,-3.5854,-3.6013,-3.6119,-3.6198,-3.6198,-3.6198,-3.6198,-3.6198,-3.6198,-3.6198,-3.6237,-3.7175,-3.7587,-3.7587,0.0,0.0,-3.8249,-3.7076,-3.6633,-3.6596,-3.6358,-3.5974,-3.5504,-3.5504,-3.5504,-3.5504,-3.5504,-3.5504,-3.5504,-3.5504,-3.5504,-3.5504,-3.5504,-3.5504,-3.5504,-3.5504,-3.5504,-3.5504,-3.5504,-3.5504,-3.5355,-3.4788,-3.4578,-3.4354,-3.3754,-3.3036,-3.2318,-3.175,-3.157,-3.1316,-3.0746,-3.0567,-3.0133,-2.9026,-2.8712,-2.8382,-2.7809,-2.766,-2.7375,-2.6782,-2.6632,-2.6363,-2.5794,-2.5113,-2.4739,-2.4739,-2.4096,-2.3729,-2.3729,-2.3655,-2.3595,-2.3595,-2.3595,-2.3595,-2.3595,-2.3595,-2.3595,-2.3595,-2.3062,-2.2823,-3.7749,-3.7112,-3.5896,-3.5272,-3.3703,-3.1494,-2.839,-2.7,-2.5464,-2.2235,-2.0719,-1.9902,-1.9699,-2.131,-2.37,-2.6817,-2.8469,-3.0417,-3.3397,-3.3111,-3.2739,-3.3061,-3.3124,-3.3124,-3.3124,-3.3023,-3.3011,0.0,-3.3352,-3.3487,-3.3487,-3.3577,-3.4024,-3.4938,-3.5774,-3.6198,-3.6198,-3.6198,-3.6198,-3.6198,-3.6198,-3.6198,-3.6198,-3.6408,-3.6487,-3.6487,-3.6487,0.0,-3.7777,-3.6216,-3.6249,-3.7127,-3.5726,-3.5311,-3.5504,-3.5504,-3.5504,-3.5504,-3.5504,-3.5504,-3.5504,-3.5504,-3.5504,-3.5504,-3.5504,-3.5504,-3.5504,-3.5504,-3.5504,-3.5504,-3.5504,-3.5504,-3.5474,-3.5355,-3.4891,-3.4474,-3.4354,-3.3365,-3.2482,-3.2333,-3.1869,-3.1466,-3.1346,-3.0881,-3.0432,-3.0208,-2.928,-2.8562,-2.8442,-2.7944,-2.7555,-2.7435,-2.6941,-2.6542,-2.6437,-2.5809,-2.5435,-2.5435,-2.4799,-2.4425,-2.4425,-2.3894,-2.3595,-2.3595,-2.3595,-2.3595,-2.3595,-2.3595,-2.3595,-2.3595,-2.349,-2.343,-3.606,-3.6091,-3.5754,-3.382,-3.2098,-2.9997,-2.6732,-2.4848,-2.2964,-2.0028,-1.8957,-1.8505,-1.8229,-1.9974,-2.2182,-2.4288,-2.607,-2.8241,-3.1293,-3.1295,-3.1486,-3.2948,-3.2805,-3.2754,-3.3056,-3.3124,-3.3124,-3.3124,-3.3124,-3.3124,-3.3124,-3.3124,-3.3356,-3.3839,-3.4332,-3.4609,-3.4609,-3.4609,-3.4609,-3.4609,-3.4609,-3.4609,-3.4609,-3.5156,-3.544,-3.544,-3.544,0.0,-3.6877,-3.5541,-3.5491,-3.62,-3.5085,-3.4533,-3.4433,-3.4641,-3.4725,-3.4791,-3.5326,-3.5504,-3.5504,-3.5504,-3.5504,-3.5504,-3.5504,-3.5504,-3.5504,-3.5504,-3.5504,-3.5504,-3.5504,-3.5504,-3.5504,-3.5504,-3.525,-3.4906,-3.4593,-3.3978,-3.3335,-3.2647,-3.2228,-3.1914,-3.157,-3.1227,-3.0883,-3.0552,-2.9983,-2.9355,-2.8682,-2.8308,-2.8004,-2.763,-2.7315,-2.7121,-2.7121,-2.6497,-2.6123,-2.6123,-2.5495,-2.5113,-2.5113,-2.447,-2.4111,-2.4111,-2.3789,-2.3595,-2.3595,-2.3595,-2.3595,-2.3595,-2.3595,-2.3595,-3.4423,-3.4976,-3.516,-3.2415,-3.0591,-2.8586,-2.5372,-2.3251,-2.1217,-1.8568,-1.7928,-1.7752,-1.7461,-1.8919,-2.0641,-2.2071,-2.3966,-2.6276,-2.9202,-2.9716,-3.057,-3.2641,-3.2491,-3.2441,-3.3061,-3.3124,-3.3124,-3.3124,-3.3124,-3.3124,-3.3124,-3.3124,-3.3124,-3.3124,-3.3124,-3.3124,-3.3124,-3.3124,-3.3124,-3.3124,-3.3124,-3.3124,-3.3111,-3.3953,-3.4345,-3.4345,-3.4345,0.0,0.0,-3.4774,-3.4714,-3.5223,-3.4536,-3.3892,-3.3449,-3.3762,-3.3819,-3.3856,-3.4839,-3.518,-3.5213,-3.5439,-3.5504,-3.5504,-3.5504,-3.5504,-3.5504,-3.5504,-3.5504,-3.5504,-3.5504,-3.5504,-3.5504,-3.5504,-3.5504,-3.5355,-3.4816,-3.4608,-3.4204,-3.314,-3.2706,-3.2318,-3.1809,-3.16,-3.1316,-3.0806,-3.0597,-3.0148,-2.9146,-2.8891,-2.8547,-2.7899,-2.769,-2.76,-2.76,-2.7121,-2.6821,-2.6821,-2.6183,-2.5809,-2.5809,-2.5173,-2.4814,-2.4814,-2.4163,-2.3819,-2.3819,-2.367,-2.3595,-2.3595,-2.3595,-2.3595,-3.5099,-3.493,-3.4276,-3.3144,-3.0559,-2.7532,-2.4707,-2.2414,-2.0201,-1.7938,-1.7036,-1.6823,-1.7322,-1.7953,-1.9284,-2.1895,-2.3339,-2.5285,-2.8512,-2.9465,-3.0419,-3.2089,-3.224,-3.2441,-3.3061,-3.3124,-3.3124,-3.3124,-3.3124,-3.3124,-3.3124,-3.3124,-3.3124,-3.3124,-3.3124,-3.3124,-3.3124,-3.3124,-3.3124,-3.3124,-3.3124,-3.3124,-3.3124,-3.3197,-3.324,-3.324,-3.324,0.0,0.0,-3.367,-3.4047,-3.5187,-3.4166,-3.3599,-3.3418,-3.3436,-3.3149,-3.2855,-3.3808,-3.4129,-3.4279,-3.5213,-3.5504,-3.5504,-3.5504,-3.5504,-3.5504,-3.5504,-3.5504,-3.5504,-3.5504,-3.5504,-3.5504,-3.5504,-3.5504,-3.5489,-3.5429,-3.4921,-3.4474,-3.4354,-3.3335,-3.2497,-3.2437,-3.1899,-3.1481,-3.1421,-3.0883,-3.0462,-3.0342,-2.9849,-2.9235,-2.8577,-2.7974,-2.76,-2.76,-2.754,-2.751,-2.751,-2.6881,-2.6497,-2.6497,-2.5869,-2.5501,-2.5501,-2.4844,-2.4515,-2.4515,-2.3909,-2.3595,-2.3595,-2.3595,-2.3595,-3.2843,-3.3632,-3.4094,-3.2743,-2.9991,-2.6979,-2.4556,-2.1995,-1.9623,-1.7788,-1.6923,-1.6563,-1.6823,-1.7325,-1.8292,0.0,0.0,-2.2523,-2.5536,-2.6452,-2.7783,-3.0444,-3.1047,-3.1738,-3.2998,-3.3124,-3.3124,-3.3124,-3.3124,0.0,-3.3124,-3.3124,-3.3124,-3.3124,-3.3124,-3.3124,-3.3124,-3.3124,-3.3124,-3.3124,-3.3124,-3.3124,-3.3124,-3.3124,-3.3124,-3.3124,-3.3124,0.0,0.0,-3.3283,-3.3471,-3.3897,-3.3106,-3.2557,-3.2215,-3.2461,-3.2216,-3.1888,-3.282,-3.3171,-3.3206,-3.3616,-3.3754,-3.3871,-3.4442,-3.4192,-3.3871,-3.4442,-3.461,-3.4725,-3.5359,-3.5504,-3.5504,-3.5504,-3.5504,-3.5504,-3.5504,-3.5295,-3.4966,-3.4593,-3.4053,-3.344,-3.2647,-3.2273,-3.1959,-3.157,-3.1271,-3.0943,-3.0552,-3.0283,-2.9744,-2.8712,-2.8353,-2.8049,-2.763,-2.76,-2.76,-2.76,-2.7345,-2.721,-2.721,-2.6557,-2.6198,-2.6198,-2.5143,-2.4605,-2.4605,-2.3939,-2.3595,-2.3595,-2.3595,-2.3595,-3.0306,-3.1579,-3.2661,-3.1414,-2.8935,-2.6201,-2.4004,-2.1581,-1.9296,-1.7501,-1.681,-1.65,-1.65,-1.6861,-1.7539,0.0,0.0,-2.084,-2.3828,-2.4707,-2.6163,-2.9176,-3.003,-3.0947,-3.2428,-3.288,-3.3124,-3.3124,-3.3124,0.0,-3.3124,-3.3124,-3.3124,-3.3124,-3.3124,-3.3124,-3.3124,-3.3124,-3.3124,-3.3124,-3.3124,-3.3124,-3.3124,-3.3124,-3.3124,-3.3124,0.0,0.0,0.0,-3.3124,-3.3124,-3.3074,-3.2629,-3.2026,-3.1417,-3.1705,-3.1382,-3.0908,-3.1852,-3.2177,-3.2249,-3.25,-3.2429,-3.2321,-3.2961,-3.289,-3.2749,-3.338,-3.3602,-3.3739,-3.4442,-3.4624,-3.4624,-3.4624,-3.4839,-3.5067,-3.5067,-3.5279,-3.5355,-3.4876,-3.4653,-3.4159,-3.2991,-3.2647,-3.2258,-3.16,-3.1511,-3.1331,-3.0866,-3.0806,-3.0387,-2.928,-2.916,-2.8727,-2.769,-2.76,-2.76,-2.76,-2.76,-2.76,-2.76,-2.7151,-2.6911,-2.6911,-2.5779,-2.5187,-2.5187,-2.4306,-2.3909,-2.3894,-2.3684,-2.3595,-2.7944,-2.8843,-2.9459,-2.9061,-2.7268,-2.5034,-2.2836,-2.1016,-1.9183,-1.6951,-1.65,-1.65,-1.65,-1.65,-1.7052,-1.8732,0.0,0.0,-2.4311,-2.5259,-2.6427,-2.8637,-2.9453,-3.0218,-3.1298,-3.2416,-3.3124,-3.3124,-3.3124,0.0,-3.3124,-3.3124,-3.3124,-3.3124,-3.3124,-3.3124,-3.3124,-3.3124,-3.3124,-3.3124,-3.3124,-3.3124,-3.3124,-3.3124,-3.3124,0.0,0.0,0.0,0.0,-3.3124,-3.3124,-3.3124,-3.3111,-3.242,-3.1386,-3.1373,-3.0748,-2.9934,-3.0895,-3.1217,-3.1352,-3.2321,-3.196,-3.1217,-3.1217,-3.1852,-3.2593,-3.2593,-3.2593,-3.2629,-3.2629,-3.2629,-3.2629,-3.2629,-3.3345,-3.4027,-3.4027,-3.4806,-3.5504,-3.5489,-3.4936,-3.4294,-3.3604,-3.2946,-3.2258,-3.16,-3.1511,-3.1511,-3.1496,-3.1496,-3.1227,-3.0552,-3.0477,-2.9699,-2.7764,-2.76,-2.76,-2.76,-2.76,-2.76,-2.76,-2.7585,-2.7585,-2.7585,-2.6926,-2.6572,-2.6572,-2.5232,-2.459,-2.4575,-2.3924,-2.3595,-2.6107,-2.7044,-2.7729,-2.7177,-2.5473,-2.3439,-2.1606,-2.02,-1.8719,-1.6876,-1.65,-1.65,-1.65,-1.65,-1.7165,-1.9196,-1.9698,0.0,-2.3283,-2.4782,-2.6289,-2.8147,-3.0532,-3.2206,-3.2516,-3.291,-3.3124,-3.3124,-3.3124,0.0,-3.3124,-3.3124,-3.3124,-3.3124,-3.3124,-3.3124,-3.3124,-3.3124,-3.3124,-3.3124,-3.3124,-3.3124,-3.3124,-3.3124,0.0,0.0,0.0,0.0,0.0,-3.3124,-3.3124,-3.3124,-3.3124,-3.2378,-3.1386,-3.1386,-3.0708,-2.9818,-3.0139,-3.0241,-3.0279,-3.0608,-3.0495,-3.0241,-3.0241,-3.0457,-3.0809,-3.1462,-3.2105,-3.2593,-3.2593,-3.2593,-3.2593,-3.2593,-3.282,-3.3031,-3.3031,-3.3276,-3.3498,-3.3498,-3.3342,-3.322,-3.3227,-3.3063,-3.2725,-3.2244,-3.2168,-3.2019,-3.157,-3.1511,-3.1241,-3.0567,-3.0507,-2.9894,-2.8397,-2.8278,-2.8094,-2.763,-2.76,-2.76,-2.76,-2.76,-2.76,-2.76,-2.6941,-2.6587,-2.6587,-2.5719,-2.5277,-2.5277,-2.5076,-2.4971,-2.3605,-2.4596,-2.5258,-2.5058,-2.3739,-2.2133,-2.0704,-1.9497,-1.8268,-1.6801,-1.65,-1.65,-1.65,-1.65,-1.7014,-1.8631,-1.9058,-2.0049,-2.2456,-2.4079,-2.5925,-2.8448,-3.0934,-3.2516,-3.2729,-3.2531,-3.2382,-3.2382,0.0,0.0,-3.2382,-3.284,-3.3124,-3.3124,-3.3124,-3.3124,-3.3124,-3.3124,-3.3124,-3.3124,-3.3124,-3.3124,-3.3124,-3.3124,0.0,0.0,0.0,0.0,0.0,-3.3124,-3.3124,-3.3124,-3.3124,-3.2378,-3.1386,-3.1386,-3.0708,-2.9792,-2.9792,-2.9792,-2.9792,-2.9792,-2.9792,-2.9792,-2.9792,-2.9792,-2.9934,-3.052,-3.1082,-3.1549,-3.1549,-3.1549,-3.1549,-3.1549,-3.1829,-3.2069,-3.2069,-3.2357,-3.2593,-3.2593,-3.2593,-3.259,-3.252,-3.2523,-3.235,-3.185,-3.1613,-3.1322,-3.093,-3.0669,-3.0394,-2.9973,-3.0235,-2.9853,-2.8477,-2.85,-2.8412,-2.8004,-2.775,-2.76,-2.76,-2.76,-2.76,-2.76,-2.7195,-2.6986,-2.6986,-2.6303,-2.5854,-2.5615,-2.5615,-2.5615,0.0,-2.1631,-2.2196,-2.2644,-2.2008,-2.0966,-1.9874,-1.8857,0.0,-1.6726,-1.65,-1.6525,-1.66,-1.655,-1.6751,-1.7574,-1.8103,-1.9384,-2.2108,-2.3602,-2.5774,-2.9465,-3.0766,-3.1576,-3.2089,-3.1475,-3.1078,-3.1078,0.0,0.0,-3.1078,-3.2196,-3.284,-3.284,-3.284,-3.2939,-3.3124,-3.3124,-3.3124,-3.3124,-3.3124,-3.3124,-3.3124,-3.3124,0.0,0.0,0.0,0.0,0.0,-3.3124,-3.3056,-3.3061,-3.3061,-3.2328,-3.1336,-3.1336,-3.0683,-2.9792,-2.9792,-2.9792,-2.9792,-2.9792,-2.9792,-2.9792,-2.9792,-2.9792,-2.9792,-2.9792,-2.9792,-2.9792,-2.9792,-2.9792,-2.9792,-2.9792,-3.0457,-3.1106,-3.1106,-3.1792,-3.2393,-3.2393,-3.2393,-3.2214,-3.1687,-3.1556,-3.135,-3.0746,-3.0251,-2.9898,-2.9816,-2.9385,-2.9044,-2.9002,-2.9721,-2.9616,-2.8184,-2.8437,-2.8591,-2.8434,-2.7876,-2.7529,-2.7458,-2.7534,-2.7534,-2.7458,-2.7484,-2.7524,-2.7509,-2.6912,-2.6275,-2.5655,-2.5616,-2.5616,-1.8091,0.0,-1.971,-1.9409,-1.9171,-1.8794,0.0,-1.7775,-1.7375,-1.6638,-1.65,-1.6763,-1.7652,-1.7077,-1.74,-2.0087,-2.0627,-2.1543,-2.3873,-2.6653,-2.9076,-3.0809,-3.1143,-3.1308,-3.1428,-3.0471,-2.9806,0.0,0.0,-2.9806,-2.9806,-3.009,-3.0271,-3.0271,-3.0271,-3.119,-3.3068,-3.3124,-3.3124,-3.3124,-3.3124,-3.3124,-3.3124,-3.3124,0.0,0.0,0.0,0.0,-3.3124,-3.3124,-3.2817,-3.2416,-3.2416,-3.175,-3.0796,-3.0796,-3.0369,-2.9792,-2.9792,-2.9792,-2.9792,-2.9792,-2.9792,-2.9792,-2.9792,-2.9792,-2.9792,-2.9792,-2.9792,-2.9792,-2.9792,-2.9792,-2.9792,-2.9792,-2.9972,-3.0139,-3.0139,-3.0317,-3.047,-3.047,-3.047,-3.0632,-3.1216,-3.1286,-3.1303,-3.1378,-3.1261,-3.0834,-2.9926,-2.9678,-2.9449,-2.9044,-2.9192,-2.9167,-2.8809,-2.8994,-2.844,-2.6877,-2.7137,-2.6944,-2.596,-2.6993,-2.7071,-2.5946,-2.6469,-2.6747,-2.6747,-2.6602,-2.6442,-2.6271,-2.5694,-2.5761,-1.6898,-1.7802,-1.8619,-1.8569,-1.8368,-1.8129,-1.7827,-1.7134,-1.6485,-1.6156,-1.6095,-1.6352,-1.7234,-1.7331,-1.79,-1.9765,-2.0866,-2.2447,-2.5184,-2.8222,-3.047,-3.1298,-3.1296,-3.1223,0.0,-2.959,-2.8588,0.0,0.0,-2.8588,-2.8588,-2.9085,-2.9407,-2.9407,-2.9407,-3.0316,-3.2196,-3.2239,-3.2239,-3.2239,-3.2239,-3.1921,-3.1424,-3.1965,-3.2239,0.0,0.0,0.0,-3.3124,-3.3124,-3.2729,-3.2215,-3.2215,-3.1562,-3.062,-3.062,-3.0269,-2.9792,-2.9792,-2.9792,-2.9792,-2.9792,-2.9792,-2.9792,-2.9792,-2.9792,-2.9792,-2.9792,-2.9792,-2.9792,-2.9792,-2.9792,-2.9792,-2.9792,-2.9792,-2.9792,-2.9792,-2.9792,-2.9792,-2.9792,-2.9792,-2.9972,-3.0482,-3.0558,-3.0592,-3.0747,-3.053,-3.0121,-2.9465,-2.8958,-2.8543,-2.8259,-2.8343,-2.8247,-2.7887,-2.8289,-2.8118,-2.709,-2.7096,-2.6847,-2.6155,-2.6661,-2.6473,-2.5439,-2.5783,-2.6014,-2.6014,-2.6014,-2.6014,-2.5987,-2.5591,-2.5618,-1.6404,-1.7193,-1.8103,-1.852,-1.8283,-1.79,-1.7812,-1.6575,-1.5454,-1.5454,-1.5513,-1.5795,-1.6622,-1.7604,-1.8474,-1.9143,-2.0856,-2.3157,-2.6195,-2.8836,-3.0602,-3.1078,-3.1026,0.0,-3.0676,-2.8634,0.0,0.0,0.0,-2.7315,-2.7315,-2.8272,-2.8855,-2.8855,-2.8855,-2.9407,-3.0631,-3.081,-3.0944,-3.0944,-3.0944,-3.0406,-2.9453,-3.0451,-3.0944,0.0,0.0,0.0,-3.284,-3.2925,-3.2604,-3.2077,-3.2001,-3.1361,-3.0495,-3.0495,-3.0193,-2.9792,-2.9792,-2.9792,-2.9792,-2.9792,-2.9792,-2.9792,-2.9792,-2.9792,-2.9792,-2.9792,-2.9792,-2.9792,-2.9792,-2.9792,-2.9792,-2.9792,-2.9792,-2.9792,-2.9792,-2.9792,-2.9792,-2.9792,-2.9792,-2.9792,-2.9792,-2.9792,-2.9792,-2.9792,-2.9377,-2.8988,-2.89,-2.8109,-2.7469,-2.7341,-2.7507,-2.732,-2.6568,-2.7129,-2.759,-2.7741,-2.7254,-2.698,-2.7003,-2.6344,-2.5784,-2.5354,-2.534,-2.5327,-2.5231,-2.5231,-2.5231,-2.5231,-2.5119,-2.5119,-1.5888,-1.6534,-1.6998,-1.6897,-1.678,-1.657,-1.609,-1.5392,-1.4835,-1.4835,-1.5116,-1.601,-1.8108,-1.856,-1.9613,-2.2655,-2.4087,-2.5349,-2.6954,-2.8654,-2.9792,-2.9864,0.0,-2.9269,-2.8272,-2.6849,0.0,0.0,0.0,-2.5965,-2.5965,-2.6149,-2.6294,-2.6294,-2.6294,-2.6887,-2.8132,-2.9177,-2.9681,-2.9681,-2.9681,-2.959,-2.9407,-2.959,-2.9681,0.0,0.0,-3.15,-3.1553,-3.2091,-3.2014,-3.1474,-3.1035,-3.0482,-2.9917,-2.9917,-2.9867,-2.9792,-2.9792,-2.9792,-2.9792,-2.9792,-2.9792,-2.9792,-2.9792,-2.9792,-2.9792,-2.9792,-2.9792,-2.9792,-2.9792,-2.9792,-2.9792,-2.9792,-2.9792,-2.9792,-2.9792,-2.9792,-2.9792,-2.9792,-2.9792,-2.9792,-2.9792,-2.9792,-2.9792,-2.9792,-2.9716,-2.9478,-2.895,-2.875,-2.8323,-2.7381,-2.7347,-2.7129,-2.6537,-2.6624,-2.671,-2.6722,-2.6759,-2.6832,-2.6987,-2.573,-2.5053,-2.5137,-2.5137,-2.4914,-2.4452,-2.4452,-2.4452,-2.4452,-2.3767,-2.3826,-1.5187,-1.5679,-1.6133,-1.6219,-1.6783,-1.7185,-1.672,-1.6111,-1.5618,-1.5618,-1.5763,-1.6391,-1.8005,-1.9477,-2.1596,-2.5211,-2.5197,-2.5547,-2.7853,-2.8267,-2.8672,0.0,0.0,-2.7936,-2.7605,0.0,0.0,0.0,0.0,0.0,-2.5693,-2.5693,-2.5693,-2.5693,-2.5693,-2.5965,-2.6572,-2.7115,-2.7767,-2.8402,-2.8402,-2.8085,-2.7437,-2.8132,-2.8402,-2.8484,0.0,-3.0223,-3.0759,-3.0858,-3.0943,-3.0947,-3.0708,-3.0281,-2.9792,-2.9792,-2.9792,-2.9792,-2.9792,-2.9792,-2.9792,-2.9792,-2.9792,-2.9792,-2.9792,-2.9792,-2.9792,-2.9792,-2.9792,-2.9792,-2.9792,-2.9792,-2.9792,-2.9792,-2.9792,-2.9792,-2.9792,-2.9792,-2.9792,-2.9792,-2.9792,-2.9792,-2.9792,-2.9792,-2.9792,-2.9792,-2.9792,-2.9691,-2.9428,-2.9076,-2.87,-2.8235,-2.7908,-2.7507,-2.6989,-2.6939,-2.6813,-2.6512,-2.6561,-2.6491,-2.6235,-2.56,-2.5145,-2.4954,-2.4941,-2.4659,-2.4137,-2.4137,-2.397,-2.3649,-2.3275,-2.3305,-1.4681,-1.4955,-1.5281,-1.5739,-1.6645,-1.7415,-1.7405,-1.6849,-1.6355,-1.6458,-1.6623,-1.7061,-1.7989,-2.0482,-2.3315,-2.5937,-2.5301,-2.5289,-2.7603,-2.7456,-2.7469,-2.8499,-2.7534,-2.6773,-2.6858,0.0,0.0,0.0,0.0,0.0,-2.5382,-2.5382,-2.543,-2.5576,-2.5586,-2.5586,-2.5693,-2.5693,-2.6197,-2.7173,-2.7173,-2.6658,-2.5732,-2.6706,-2.7173,-2.7189,-2.7995,-2.8813,-2.9552,-2.9324,-2.9439,-2.9796,-2.9674,-2.9527,-2.9468,-2.9852,-2.998,-2.998,-2.998,-2.998,-2.9967,-2.9829,-2.9792,-2.9792,-2.9792,-2.9792,-2.9792,-2.9792,-2.9792,-2.9792,-2.9792,-2.9792,-2.9792,-2.9792,-2.9792,-2.9792,-2.9792,-2.9792,-2.9792,-2.9792,-2.9792,-2.9792,-2.9792,-2.9792,-2.9792,-2.9792,-2.9792,-2.9792,-2.9792,-2.9402,-2.9076,-2.8913,-2.8512,-2.8021,-2.7379,-2.7281,-2.7077,-2.6524,-2.6499,-2.6298,-2.5824,-2.5799,-2.5548,-2.5008,-2.5008,-2.4732,-2.4192,-2.4192,-2.3966,-2.3496,-2.3371,-2.3308,-1.456,-1.4501,-1.4412,-1.525,-1.542,-1.5685,-1.678,-1.6567,-1.6224,-1.6615,-1.7331,-1.8168,-1.9029,-2.1854,-2.3933,-2.3652,-2.4546,-2.5249,-2.5136,0.0,-2.6205,-2.577,-2.6075,-2.5885,0.0,0.0,0.0,0.0,0.0,0.0,-2.4512,-2.4512,-2.4697,-2.5145,-2.5117,-2.5312,-2.5684,-2.5693,-2.5732,-2.583,-2.583,-2.5781,-2.5693,-2.5781,-2.583,-2.5897,-2.6687,-2.707,-2.7179,-2.74,-2.7499,-2.7504,-2.6998,-2.7366,-2.8407,-2.9975,-3.0557,-3.0557,-3.0557,-3.0557,-3.047,-2.9955,-2.9792,-2.9792,-2.9792,-2.9792,-2.9792,-2.9792,-2.9792,-2.9792,-2.9792,-2.9792,-2.9792,-2.9792,-2.9792,-2.9792,-2.9792,-2.9792,-2.9792,-2.9792,-2.9792,-2.9792,-2.9792,-2.9792,-2.9792,-2.9792,-2.9792,-2.9792,-2.9792,-2.9754,-2.9528,-2.895,-2.8863,-2.8436,-2.7369,-2.7281,-2.7077,-2.6524,-2.6499,-2.6474,-2.6436,-2.6436,-2.616,-2.5548,-2.5536,-2.5285,-2.4725,-2.4725,-2.4713,-2.4662,-2.418,-2.3941,-1.3541,-1.3857,-1.425,-1.4873,-1.5395,-1.6096,-1.7346,-1.7876,-1.8306,-1.8965,-1.9375,-2.0001,-2.1287,-2.2213,-2.3313,-2.5009,-2.4794,-2.4835,-2.6054,-2.5357,-2.4923,-2.5347,-2.5006,-2.4646,0.0,0.0,0.0,0.0,0.0,0.0,-2.4414,-2.4414,-2.4492,-2.4658,-2.4668,-2.4746,-2.4865,-2.4865,-2.4865,-2.4922,-2.5185,-2.5176,-2.4884,-2.5195,-2.5176,-2.4912,-2.5229,-2.5574,-2.5983,-2.5787,-2.6154,-2.6771,-2.6592,-2.69,-2.7557,-2.8191,-2.8427,-2.8427,-2.8427,-2.8719,-2.8995,-2.88,-2.8727,-2.8897,-2.9585,-2.9314,-2.8897,-2.9585,-2.9792,-2.9792,-2.9792,-2.9792,-2.9792,-2.9792,-2.9792,-2.9792,-2.9792,-2.9792,-2.9792,-2.9792,-2.9792,-2.9792,-2.9792,-2.9792,-2.9792,-2.9792,-2.9792,-2.9792,-2.9792,-2.9792,-2.9704,-2.949,-2.9101,-2.8725,-2.8348,-2.767,-2.7228,-2.7014,-2.6688,-2.6499,-2.6499,-2.6499,-2.6386,-2.6172,-2.6172,-2.5896,-2.531,-2.531,-2.5146,-2.4788,-2.4575,-2.4506,-1.3271,-1.3603,-1.4075,-1.4805,-1.5557,-1.6545,-1.8223,-1.9062,-1.9805,-2.0947,-2.1114,-2.1382,-2.2562,-2.239,-2.284,-2.5072,-2.4645,-2.4506,-2.6051,-2.4812,-2.4093,-2.4819,-2.4142,0.0,0.0,0.0,0.0,0.0,0.0,0.0,0.0,-2.3968,-2.4072,-2.4219,-2.4219,-2.4277,-2.4414,-2.4414,-2.4346,-2.4219,-2.4521,-2.458,-2.4424,-2.4727,-2.4697,-2.4414,-2.4277,-2.4486,-2.4866,-2.4448,-2.4713,-2.5473,-2.5808,-2.6218,-2.6615,-2.7154,-2.7339,-2.7339,-2.7339,-2.7562,-2.7824,-2.7661,-2.7602,-2.7735,-2.8542,-2.8199,-2.7775,-2.8542,-2.8752,-2.8752,-2.8752,-2.9287,-2.9792,-2.9792,-2.9792,-2.9792,-2.9792,-2.9792,-2.9792,-2.9792,-2.9792,-2.9792,-2.9792,-2.9792,-2.9792,-2.9792,-2.9792,-2.9792,-2.9792,-2.9792,-2.9792,-2.9792,-2.944,-2.9126,-2.8913,-2.8235,-2.7657,-2.7306,-2.6964,-2.6675,-2.6499,-2.6499,-2.6499,-2.6499,-2.6499,-2.6298,-2.5875,-2.5875,-2.5686,-2.5335,-2.5146,-2.5059,-1.4094,-1.3802,-1.3828,-1.5098,-1.5752,-1.6789,-1.9336,-1.9922,-2.042,-2.2168,-2.2197,-2.2031,-2.2441,-2.2519,-2.2666,-2.3139,-2.3877,-2.4424,-2.4424,-2.4062,-2.3799,-2.3789,-2.3408,0.0,0.0,0.0,0.0,0.0,0.0,0.0,0.0,-2.3091,-2.3286,-2.3769,-2.3779,-2.3984,-2.4394,-2.4404,-2.4199,-2.3779,-2.3779,-2.4004,-2.4404,-2.4414,-2.4414,-2.4385,-2.3965,-2.3789,-2.375,-2.3276,-2.3091,-2.3222,-2.4329,-2.5038,-2.5597,-2.726,-2.7873,-2.7873,-2.7873,-2.7603,-2.7206,-2.6681,-2.6472,-2.6483,-2.6524,-2.6472,-2.6483,-2.6524,-2.6524,-2.6524,-2.6524,-2.8131,-2.9753,-2.9753,-2.9753,-2.9753,-2.9753,-2.9753,-2.9753,-2.9792,-2.9792,-2.9792,-2.9792,-2.9792,-2.9792,-2.9792,-2.9792,-2.9792,-2.9792,-2.9792,-2.9792,-2.9792,-2.9792,-2.9566,-2.895,-2.8888,-2.8424,-2.7369,-2.7293,-2.7042,-2.6512,-2.6499,-2.6499,-2.6499,-2.6499,-2.6499,-2.6499,-2.6499,-2.6499,-2.6474,-2.5908,-2.5598,-1.333,-1.3818,-1.457,-1.5244,-1.665,-1.8311,-1.999,-2.0615,-2.1288,-2.3057,-2.331,-2.3174,-2.2945,-2.3203,-2.3457,-2.3584,-2.4316,-2.4873,-2.4873,-2.4766,-2.4509,-2.3857,0.0,0.0,0.0,0.0,0.0,0.0,0.0,0.0,0.0,-2.3091,-2.3149,-2.3286,-2.3286,-2.3344,-2.3471,-2.3471,-2.3413,-2.3286,-2.3286,-2.3354,-2.3481,-2.3838,-2.3809,-2.3481,-2.3711,-2.3613,-2.3276,-2.3149,-2.3091,-2.3135,-2.3464,-2.3863,-2.4316,-2.4838,-2.5013,-2.5013,-2.5013,-2.5265,-2.5519,-2.5337,-2.5294,-2.5462,-2.6265,-2.5922,-2.5462,-2.6265,-2.6524,-2.6524,-2.6524,-2.6976,-2.7476,-2.7476,-2.7476,-2.7476,-2.7476,-2.7476,-2.7706,-2.8478,-2.8597,-2.8858,-2.9663,-2.9792,-2.9792,-2.9792,-2.9792,-2.9792,-2.9792,-2.9792,-2.9792,-2.9792,-2.9792,-2.9729,-2.9553,-2.9126,-2.8424,-2.7389,-2.6651,-2.6307,-2.6477,-2.6499,-2.6499,-2.6499,-2.6499,-2.6499,-2.6499,-2.6499,-2.6499,-2.6499,-2.6323,-2.6235,-1.3639,-1.4316,-1.5215,-1.5996,-1.7422,-1.9075,-2.0928,-2.1943,-2.2842,-2.4053,-2.416,-2.4014,-2.3926,-2.3975,-2.4092,-2.4268,-2.4883,-2.5332,-2.5332,-2.5176,-2.4861,-2.4121,0.0,0.0,0.0,0.0,0.0,0.0,0.0,0.0,0.0,-2.3091,-2.3091,-2.3091,-2.3091,-2.3091,-2.3091,-2.3091,-2.3091,-2.3091,-2.3091,-2.3091,-2.311,-2.3408,-2.3389,-2.311,-2.3418,-2.3379,-2.3091,-2.3091,-2.3091,-2.3091,-2.3091,-2.3408,-2.3789,-2.3789,-2.3789,-2.3789,-2.3789,-2.3919,-2.4125,-2.4125,-2.4125,-2.4253,-2.4935,-2.4681,-2.4253,-2.4978,-2.5147,-2.5147,-2.5147,-2.5147,-2.54,-2.6265,-2.6524,-2.6524,-2.6524,-2.6524,-2.6678,-2.7319,-2.7441,-2.7695,-2.8383,-2.8502,-2.8621,-2.9067,-2.9495,-2.9624,-2.9197,-2.9534,-2.9456,-2.8581,-2.887,-2.8949,-2.8554,-2.8162,-2.7549,-2.6686,-2.6055,-2.5749,-2.5804,-2.5883,-2.6094,-2.6499,-2.6499,-2.6499,-2.6499,-2.6499,-2.6499,-2.6499,-2.6499,-2.6499,-1.4502,-1.5088,-1.5791,-1.7109,-1.8193,-1.9543,-2.206,-2.3525,-2.4482,-2.4922,-2.4756,-2.4648,-2.5047,-2.4775,-2.4648,-2.5057,-2.5449,-2.5693,-2.5693,-2.5391,-2.4961,-2.4531,0.0,0.0,0.0,0.0,0.0,0.0,0.0,0.0,0.0,-2.3091,-2.3091,-2.3091,-2.3091,-2.3091,-2.3091,-2.3091,-2.3091,0.0,-2.3091,-2.3091,-2.3091,-2.3091,-2.3091,-2.3091,-2.3091,-2.3091,-2.3091,-2.3091,-2.3091,-2.3091,-2.3091,-2.3379,-2.373,-2.373,-2.373,-2.373,-2.373,-2.3467,-2.3091,-2.3091,-2.3091,-2.3091,-2.3091,-2.3091,-2.3091,-2.3091,-2.3091,-2.3091,-2.3091,-2.3091,-2.3637,-2.5683,-2.6182,-2.6182,-2.6182,-2.6182,-2.6224,-2.6307,-2.6348,-2.6389,-2.6472,-2.6524,-2.6842,-2.7804,-2.8819,-2.9118,-2.8096,-2.8858,-2.8712,-2.673,-2.7371,-2.7574,-2.6595,-2.6524,-2.624,-2.5569,-2.5491,-2.5229,-2.4758,-2.4877,-2.5372,-2.6273,-2.6258,-2.6267,-2.6349,-2.6349,-2.6418,-2.6499,-2.6499,-2.6499,-1.4104,-1.5078,-1.6271,-1.7549,-1.9541,-2.1592,-2.3154,-2.3721,-2.4043,-2.4463,-2.5029,-2.5371,-2.5117,-2.5283,-2.5371,-2.5107,-2.5449,-2.5693,-2.5693,-2.5606,-2.543,0.0,0.0,0.0,0.0,0.0,0.0,0.0,0.0,0.0,-2.3091,-2.3091,-2.3091,-2.3091,-2.3091,-2.3091,-2.3091,-2.3091,-2.3091,0.0,-2.3091,-2.3091,-2.3091,-2.3091,-2.3091,-2.3091,-2.3091,-2.3091,-2.3091,-2.3091,-2.3091,-2.3091,-2.3091,-2.3149,-2.3237,-2.3237,-2.3237,-2.3237,-2.3237,-2.3169,-2.3091,-2.3091,-2.3091,-2.3091,-2.3091,-2.3091,-2.3091,-2.3091,-2.3091,-2.3091,-2.3091,-2.3091,-2.3222,-2.3724,-2.3854,-2.3854,-2.3854,-2.3854,-2.4102,-2.501,-2.5168,-2.5462,-2.6348,-2.6524,-2.6595,-2.6801,-2.7058,-2.7139,-2.6883,-2.7058,-2.7017,-2.6554,-2.673,-2.676,-2.6524,-2.6524,-2.6055,-2.5061,-2.4678,-2.4402,-2.4195,-2.4288,-2.4482,-2.4705,-2.434,-2.4516,-2.5335,-2.5335,-2.5734,-2.6499,-2.6499,-2.6499,-1.4133,-1.54,-1.6894,-1.9023,-2.0732,-2.2168,-2.3232,-2.3643,-2.3857,-2.4072,-2.4639,-2.5029,-2.4795,-2.4951,-2.5098,-2.5116,-2.5264,-2.5488,-2.5664,-2.5693,-2.5566,0.0,0.0,0.0,0.0,0.0,0.0,0.0,0.0,-2.3091,-2.3091,-2.3091,-2.3091,-2.3091,-2.3091,-2.3091,-2.3091,-2.3091,-2.3091,-2.3091,-2.3091,-2.3091,-2.3091,-2.3091,-2.3091,-2.3091,-2.3091,-2.3091,-2.3091,-2.3091,-2.3091,-2.3091,-2.3091,-2.3091,-2.3091,-2.3091,-2.3091,-2.3091,-2.3091,-2.3091,-2.3091,-2.3091,-2.3091,-2.3091,-2.3091,-2.3091,-2.3091,-2.3091,-2.3091,-2.3091,-2.3091,-2.3091,-2.3091,-2.3091,-2.3091,-2.3091,-2.3091,-2.3091,-2.3266,-2.3887,-2.4006,-2.4168,-2.4766,-2.5305,-2.5683,-2.5683,-2.6141,-2.6307,-2.5755,-2.6141,-2.6058,-2.4978,-2.5347,-2.5473,-2.4935,-2.4851,-2.4595,-2.4006,-2.3793,-2.3628,-2.3554,-2.3463,-2.3627,-2.42,-2.397,-2.3982,-2.4264,-2.4264,-2.4552,-2.5063,-2.5063,-2.5063,-1.4053,-1.5625,-1.7496,-2.0362,-2.1504,-2.209,-2.2808,-2.3369,-2.3682,-2.3682,-2.4072,-2.4414,-2.4414,-2.4414,-2.4531,-2.4893,-2.4998,-2.5107,-2.5557,-2.5625,-2.5488,0.0,0.0,0.0,0.0,0.0,0.0,0.0,0.0,-2.3091,-2.3091,-2.3091,-2.3091,-2.3091,-2.3091,-2.3091,-2.3091,-2.3091,-2.3091,-2.3091,-2.3091,-2.3091,-2.3091,-2.3091,-2.3091,-2.3091,-2.3091,-2.3091,-2.3091,-2.3091,-2.3091,-2.3091,-2.3091,-2.3091,-2.3091,-2.3091,-2.3091,-2.3091,-2.3091,-2.3091,-2.3091,-2.3091,-2.3091,-2.3091,-2.3091,-2.3091,-2.3091,-2.3091,-2.3091,-2.3091,-2.3091,-2.3091,-2.3091,-2.3091,-2.3091,-2.3091,-2.3091,-2.3091,-2.3091,-2.3091,-2.3091,-2.3091,-2.3091,-2.3877,-2.45,-2.45,-2.5305,-2.5557,-2.4628,-2.5347,-2.5189,-2.3299,-2.3963,-2.4125,-2.3178,-2.3091,-2.3091,-2.3091,-2.3091,-2.3091,-2.3091,-2.276,-2.3009,-2.388,-2.3744,-2.3574,-2.3342,-2.3302,-2.3331,-2.3514,-2.3514,-2.3514,-1.2969,-1.5204,-1.7842,-2.0136,-2.1319,-2.2012,-2.249,-2.2877,-2.3179,-2.3179,-2.3857,-2.4414,-2.4414,-2.4414,-2.4434,-2.4492,-2.4502,-2.4658,-2.5098,-2.5156,-2.5184,0.0,0.0,0.0,0.0,0.0,0.0,0.0,-2.3091,-2.3091,-2.3091,-2.3091,-2.3091,-2.3091,-2.3091,-2.3091,-2.3091,-2.3091,-2.3091,-2.3091,-2.3091,-2.3091,-2.3091,-2.3091,-2.3091,-2.3091,-2.3091,-2.3091,-2.3091,-2.3091,-2.3091,-2.3091,-2.3091,-2.3091,-2.3091,-2.3091,-2.3091,-2.3091,-2.3091,-2.3091,-2.3091,-2.3091,-2.3091,-2.3091,-2.3091,-2.3091,-2.3091,-2.3091,-2.3091,-2.3091,-2.3091,-2.3091,-2.3091,-2.3091,-2.3091,-2.3091,-2.3091,-2.3091,-2.3091,-2.3091,-2.3091,-2.3091,-2.3091,-2.3222,-2.3343,-2.3343,-2.3474,-2.3517,-2.3343,-2.3474,-2.343,-2.3135,-2.3266,-2.3256,-2.3091,-2.3091,-2.3091,-2.3091,-2.3091,-2.3091,-2.3091,-2.3042,-2.2908,-2.2713,-2.1998,-2.1996,-2.2791,-2.2416,-2.2664,-2.3514,-2.3514,-2.3514,-1.3789,-1.5625,-1.7588,-2.0008,-2.0899,-2.1368,-2.2002,-2.249,-2.274,-2.274,-2.3227,-2.3656,-2.3656,-2.3656,-2.3779,-2.4023,-2.4062,-2.4209,-2.4639,-2.4697,0.0,0.0,0.0,0.0,0.0,0.0,0.0,0.0,-2.3091,-2.3091,-2.3091,-2.3091,-2.3091,-2.3091,-2.3091,-2.3091,-2.3091,-2.3091,-2.3091,-2.3091,-2.3091,-2.3091,-2.3091,-2.3091,-2.3091,-2.3091,-2.3091,-2.3091,-2.3091,-2.3091,-2.3091,-2.3091,-2.3091,-2.3091,-2.3091,-2.3091,-2.3091,-2.3091,-2.3091,-2.3091,-2.3091,-2.3091,-2.3091,-2.3091,-2.3091,-2.3091,-2.3091,-2.3091,-2.3091,-2.3091,-2.3091,-2.3091,-2.3091,-2.3091,-2.3091,-2.3091,-2.3091,-2.3091,-2.3091,-2.3091,-2.3091,-2.3091,-2.3091,-2.3091,-2.3091,-2.3091,-2.3091,-2.3091,-2.3091,-2.3091,-2.3091,-2.3091,-2.3091,-2.3091,-2.3091,-2.3091,-2.3091,-2.3091,-2.3091,-2.3091,-2.3091,-2.3091,-2.3013,-2.2818,-2.2223,-2.1904,-2.1868,-2.1628,-2.1667,-2.1859,-2.1859,-2.1859,-1.3946,-1.5138,-1.6273,-1.8875,-1.9676,-2.013,-2.1278,-2.1885,-2.2246,-2.2461,-2.2721,-2.2974,-2.3081,-2.3091,-2.3198,-2.3574,-2.3623,-2.3769,-2.4199,-2.4258,0.0,0.0,0.0,0.0,0.0,0.0,0.0,0.0,-2.3091,-2.3091,-2.3091,-2.3091,-2.3091,-2.3091,-2.3091,-2.3091,-2.3091,-2.3091,-2.3091,-2.3091,-2.3091,-2.3091,-2.3091,-2.3091,-2.3091,-2.3091,-2.3091,-2.3091,-2.3091,-2.3091,-2.3091,-2.3091,-2.3091,-2.3091,-2.3091,-2.3091,-2.3091,-2.3091,-2.3091,-2.3091,-2.311,-2.3227,-2.3257,-2.3276,-2.3383,-2.3422,-2.3393,-2.3286,-2.3257,-2.3237,-2.312,-2.3091,-2.3091,-2.3091,-2.3091,-2.3091,-2.3091,-2.3091,-2.3091,-2.3091,-2.3091,-2.3091,-2.3091,-2.3091,-2.3091,-2.3091,-2.3091,-2.3091,-2.3091,-2.3091,-2.3091,-2.3091,-2.3091,-2.3091,-2.3091,-2.3091,-2.3091,-2.3091,-2.3091,-2.3091,-2.3091,-2.3091,-2.3091,-2.3091,-2.2789,-2.2262,-2.1522,-2.1414,-2.1172,-2.0732,-2.0732,-2.0713,-1.222,-1.2677,-1.3341,-1.5896,-1.7121,-1.8292,-2.0226,-2.0977,-2.1492,-2.2344,-2.2529,-2.2666,-2.3023,-2.3091,-2.3101,-2.312,-2.313,-2.3276,-2.376,-2.3828,0.0,0.0,0.0,0.0,0.0,0.0,0.0,0.0,-2.3091,-2.3091,-2.3091,-2.3091,-2.3091,-2.3091,-2.3091,-2.3091,-2.3091,-2.3091,-2.3091,-2.3091,-2.3091,-2.3091,-2.3091,-2.3091,-2.3091,-2.3091,-2.3091,-2.3091,-2.3091,-2.3091,-2.3091,-2.3091,-2.3091,-2.3091,-2.3091,-2.3091,-2.3091,-2.3091,-2.3091,-2.3091,-2.3169,-2.3623,-2.375,-2.3828,-2.4228,-2.4355,-2.4268,-2.3867,-2.375,-2.3662,-2.3198,-2.3091,-2.3091,-2.3091,-2.3091,-2.3091,-2.3091,-2.3091,-2.3091,-2.3091,-2.3091,-2.3091,-2.3091,-2.3091,-2.3091,-2.3091,-2.3091,-2.3091,-2.3091,-2.3091,-2.3091,-2.3091,-2.3091,-2.3091,-2.3091,-2.3091,-2.3091,-2.3091,-2.3091,-2.3091,-2.3091,-2.3091,-2.3091,-2.3091,-2.3071,-2.2847,-2.2441,-2.2041,-2.1621,-2.1161,-2.1161,-2.0967,-1.1552,-1.2007,-1.2623,-1.4166,-1.5695,-1.7044,-1.8054,-1.9591,-2.0889,-2.1201,-2.1313,-2.1386,-2.1534,-2.1766,-2.1933,-2.1933,-2.1311,-2.0862,-2.1003,-2.1707,0.0,0.0,0.0,0.0,0.0,0.0,0.0,0.0,0.0,0.0,-2.3091,-2.3091,-2.3091,-2.3091,-2.3091,-2.3091,-2.3091,-2.3091,-2.3091,-2.3091,-2.3091,-2.3091,-2.3091,-2.3091,-2.3091,-2.3091,-2.3091,-2.3091,-2.3091,-2.3091,-2.3091,-2.3003,-2.2262,-2.2403,-2.3003,-2.2217,-2.2448,-2.314,-2.3457,-2.3555,-2.3633,-2.4053,-2.4199,-2.4219,-2.4375,-2.4414,-2.4385,-2.4238,-2.4199,-2.4092,-2.3672,-2.3555,-2.3486,-2.3159,-2.3091,-2.3091,-2.3091,-2.3091,-2.3091,-2.3091,-2.3091,-2.3091,-2.3091,-2.3091,-2.3091,-2.3091,-2.3091,-2.3091,-2.3091,-2.3091,-2.3091,-2.3091,-2.3091,-2.3091,-2.3091,-2.3091,-2.3091,-2.3091,-2.3091,-2.3091,-2.3091,-2.3091,-2.3091,-2.3091,-2.3091,-2.2886,-2.251,-2.2363,-2.207,-2.165,-2.165,-2.1416,-1.0314,-1.0639,-1.1269,-1.2568,-1.3656,-1.4806,-1.6269,-1.7688,-1.8835,-1.945,-1.957,-1.9683,-1.9947,-1.9946,-2.0097,-2.0594,-2.0034,-1.9497,-1.9497,-2.0215,0.0,0.0,0.0,0.0,0.0,0.0,0.0,0.0,0.0,0.0,-2.3091,-2.3091,-2.3091,-2.3091,-2.2721,-2.2492,-2.2492,-2.2085,-2.1908,-2.1908,-2.1908,-2.2085,-2.2492,-2.2492,-2.2721,-2.3091,-2.2677,-2.2731,-2.3091,-2.3091,-2.2862,-2.2403,-2.1614,-2.1534,-2.181,-2.098,-2.1445,-2.2558,-2.3031,-2.3464,-2.3787,-2.3914,-2.3956,-2.3881,-2.3577,-2.3472,-2.3444,-2.3305,-2.3268,-2.327,-2.3304,-2.357,-2.3721,-2.3428,-2.3198,-2.3091,-2.3091,-2.3091,-2.3091,-2.3091,-2.3091,-2.3091,-2.3091,-2.3091,-2.3091,-2.3091,-2.3091,-2.3091,-2.3091,-2.3091,-2.3091,-2.3091,-2.3091,-2.3091,-2.3091,-2.3091,-2.3091,-2.3091,-2.3091,-2.3091,-2.3091,-2.3091,-2.3091,-2.3091,-2.3091,-2.2955,-2.2682,-2.2682,-2.251,-2.21,-2.21,-2.1865,0.0,0.0,0.0,-1.095,-1.1059,-1.1584,-1.4889,-1.5267,-1.5371,-1.7077,-1.7397,-1.7647,-1.8378,-1.7757,-1.7606,-1.9133,-1.9389,-1.9405,-1.9405,-1.9405,0.0,0.0,0.0,0.0,0.0,0.0,0.0,0.0,-2.2325,-2.3003,-2.3047,-2.3047,-2.3047,-2.3047,-2.1898,-2.1248,-2.1248,-2.0079,-1.9497,-1.9497,-1.9497,-2.0124,-2.1248,-2.1248,-2.1889,-2.2916,-2.1756,-2.1889,-2.3003,-2.3003,-2.2306,-2.1248,-2.1203,-2.0486,-1.9497,-1.9451,-2.0223,-2.1329,-2.1798,-2.2748,-2.3638,-2.3149,-2.296,-2.2779,-2.1946,-2.1702,-2.1627,-2.1164,-2.1016,-2.1237,-2.2143,-2.3037,-2.3709,-2.3699,-2.3334,-2.3013,-2.3013,-2.3003,-2.3003,-2.3101,-2.3091,-2.3091,-2.3091,-2.3091,-2.3091,-2.3091,-2.3091,-2.3091,-2.3091,-2.3091,-2.3091,-2.3091,-2.3091,-2.3091,-2.3091,-2.3091,-2.3091,-2.3091,-2.3091,-2.3091,-2.3091,-2.3091,-2.3091,-2.3091,-2.3091,-2.3091,-2.3091,-2.3091,-2.2886,-2.2529,-2.2519,-2.2295,-0.8639,0.0,0.0,0.0,0.0,0.0,-1.195,-1.3223,-1.4518,-1.5438,-1.5584,-1.5746,-1.6386,-1.6017,-1.5767,-1.6159,-1.6551,-1.6835,-1.6835,-1.763,0.0,0.0,0.0,0.0,0.0,0.0,0.0,0.0,-2.0314,-2.0899,-2.1756,-2.18,-2.18,-2.18,-2.0621,-1.9988,-1.9988,-1.9679,-1.9497,-1.9497,-1.9497,-1.967,-1.9988,-1.9988,-2.0169,-2.0494,-2.0124,-2.0178,-2.0494,-2.0494,-2.0314,-1.9898,-1.9039,-1.9047,-1.9405,-1.8503,-1.9062,-2.0344,-2.0818,-2.1314,-2.1807,-2.2001,-2.2054,-2.2021,-2.1769,-2.1702,-2.1677,-2.1527,-2.1502,-2.1462,-2.1401,-2.1369,-2.1264,-2.1026,-2.0888,-2.0732,-2.0555,-2.0494,-2.0998,-2.2775,-2.3091,-2.3091,-2.3091,-2.3091,-2.3091,-2.3091,-2.3091,-2.3091,-2.3091,-2.3091,-2.3091,-2.3091,-2.3091,-2.3091,-2.3091,-2.3091,-2.3091,-2.3091,-2.3091,-2.3091,-2.3091,-2.3091,-2.3091,-2.3091,-2.3091,-2.3091,-2.3091,-2.3091,-2.3033,-2.2916,-2.2656,-2.2451,-0.84,-0.851,-0.8604,-0.8478,0.0,0.0,-1.0558,-1.145,-1.2445,-1.3279,-1.3539,-1.3784,-1.4378,-1.4455,-1.4456,-1.462,-1.4983,-1.5371,-1.5611,-1.6357,0.0,0.0,0.0,0.0,0.0,-1.8449,-1.8726,-1.8726,-1.967,-2.0576,-2.1248,-2.08,-2.0531,-2.0531,-1.936,-1.8726,-1.8726,-1.8218,-1.794,-1.794,-1.794,-1.8218,-1.8726,-1.8726,-1.8993,-1.9488,-1.8956,-1.8726,-1.8726,-1.8172,-1.8265,-1.868,-1.7956,-1.7816,-1.7894,-1.7171,-1.7878,-1.9194,-1.9637,-2.0321,-2.0966,-2.0878,-2.0845,-2.0735,-2.0179,-1.9973,-1.9973,-1.9973,-2.0385,-2.0747,-2.049,-2.0466,-2.0424,-2.0258,-1.9978,-1.9698,-1.9538,-1.9497,-1.9906,-2.132,-2.1587,-2.1587,-2.1587,-2.2041,-2.235,-2.235,-2.2775,-2.2906,-2.2394,-2.235,-2.2173,-2.1632,-2.1587,-2.1587,-2.1587,-2.2041,-2.2359,-2.2369,-2.2828,-2.3091,-2.3091,-2.3091,-2.3091,-2.3091,-2.3091,-2.3091,-2.3091,-2.3091,-2.2818,-2.235,-2.2114,-2.1739,-0.8125,-0.8297,-0.8657,-0.9051,-0.8878,0.0,-1.0084,-1.0017,-0.998,-1.0982,-1.147,-1.1893,-1.2482,-1.3039,-1.348,-1.3754,-1.4148,-1.4643,-1.5264,-1.5571,0.0,0.0,0.0,0.0,-1.5731,-1.68,-1.7461,-1.7498,-1.9625,-2.089,-2.089,-1.9898,-1.9314,-1.9314,-1.8141,-1.7505,-1.7505,-1.6386,-1.5784,-1.5784,-1.5784,-1.6386,-1.7505,-1.7505,-1.8095,-1.9039,-1.7956,-1.7505,-1.7412,-1.6244,-1.648,-1.7505,-1.7505,-1.6803,-1.5784,-1.5784,-1.6675,-1.7982,-1.8341,-1.9395,-2.0468,-1.9618,-1.9376,-1.9169,-1.7943,-1.7582,-1.7582,-1.7582,-1.8454,-1.9376,-1.9376,-1.981,-2.0232,-2.0192,-1.9626,-1.9134,-1.9093,-1.9085,-1.9085,-1.9085,-1.9314,-1.9497,-1.9497,-2.0395,-2.1114,-2.1114,-2.2031,-2.2315,-2.1248,-2.1114,-2.0711,-1.9625,-1.9497,-1.9497,-1.9497,-2.0486,-2.1078,-2.1105,-2.2104,-2.2687,-2.2687,-2.2818,-2.2818,-2.2687,-2.2687,-2.2775,-2.2906,-2.2906,-2.235,-2.1293,-2.1159,-2.0531,-0.8971,-0.9198,-0.9339,-0.8985,0.0,0.0,-0.8978,-0.9286,-0.9746,-0.998,-1.0254,-1.0641,-1.1229,-1.1817,-1.2158,-1.1971,-1.296,-1.4059,-1.4981,-1.5142,0.0,0.0,0.0,0.0,-1.5458,-1.5709,-1.5944,-1.6136,-1.7537,-1.8411,-1.8411,-1.8187,-1.8048,-1.8048,-1.685,-1.615,-1.615,-1.592,-1.5784,-1.5784,-1.5784,-1.592,-1.615,-1.615,-1.6292,-1.6513,-1.6292,-1.615,-1.6157,-1.592,-1.5967,-1.615,-1.615,-1.6015,-1.5784,-1.5784,-1.6156,-1.6696,-1.699,-1.7436,-1.7944,-1.7998,-1.7989,-1.7943,-1.7687,-1.7582,-1.7582,-1.7582,-1.7793,-1.7989,-1.7989,-1.7929,-1.7792,-1.754,-1.7204,-1.6868,-1.6569,-1.652,-1.652,-1.652,-1.8118,-1.9497,-1.9497,-1.9716,-1.9852,-1.9852,-2.0042,-2.0133,-1.9898,-1.9852,-1.9761,-1.9542,-1.9497,-1.9497,-1.9497,-1.9716,-1.9852,-1.9861,-2.0087,-2.0223,-2.0223,-2.1123,-2.1212,-2.0223,-2.0223,-2.0674,-2.1658,-2.1658,-2.1525,-2.1293,-2.0305,-1.9716,-0.9251,-0.9317,-0.9459,-0.9459,0.0,0.0,0.0,-0.9138,-0.9332,-0.9648,-0.98,-1.008,-1.07,-1.1048,-1.1263,-1.1369,-1.2178,-1.2966,-1.3554,-1.4445,-1.5008,0.0,0.0,0.0,-1.5209,-1.5177,-1.5565,-1.644,-1.6664,-1.7037,-1.7692,-1.7084,-1.6763,-1.6763,-1.6109,-1.5784,-1.5784,-1.5784,-1.5784,-1.5784,-1.5784,-1.5784,-1.5784,-1.5784,-1.5784,-1.5784,-1.5784,-1.5784,-1.5784,-1.5784,-1.5784,-1.5784,-1.5784,-1.5784,-1.5784,-1.5784,-1.6019,-1.6319,-1.6607,-1.6901,-1.7246,-1.7488,-1.7582,-1.7582,-1.7582,-1.7582,-1.7555,-1.746,-1.7521,-1.7582,-1.7582,-1.7261,-1.6894,-1.674,-1.6373,-1.6012,-1.5865,-1.5784,-1.5784,-1.5784,-1.6796,-1.7662,-1.7662,-1.8172,-1.8596,-1.8596,-1.9131,-1.9268,-1.868,-1.8596,-1.8357,-1.7708,-1.7662,-1.7662,-1.7662,-1.8218,-1.8596,-1.8596,-1.9177,-1.9497,-1.9497,-2.0079,-2.0124,-1.9488,-1.9497,-1.9807,-2.0395,-1.9807,-1.9497,-1.9488,-1.8864,-1.8265,0.0,-0.9544,-0.9674,0.0,0.0,-0.933,0.0,0.0,0.0,0.0,0.0,0.0,-1.0164,0.0,0.0,0.0,0.0,0.0,0.0,-1.3313,0.0,0.0,0.0,0.0,0.0,-1.4807,-1.537,-1.6689,-1.5957,-1.5977,-1.7169,-1.6303,-1.5772,-1.5784,-1.5784,-1.5784,-1.5784,-1.5784,-1.5784,-1.5784,-1.5784,-1.5784,-1.5784,-1.5784,-1.5784,-1.5784,-1.5784,-1.5784,-1.5784,-1.5784,-1.5784,-1.5784,-1.5784,-1.5784,-1.5784,-1.5784,-1.5979,-1.6226,-1.652,-1.678,-1.7092,-1.7388,-1.7535,-1.7582,-1.7582,-1.7582,-1.7528,-1.7347,-1.7454,-1.7582,-1.7582,-1.7148,-1.6707,-1.6707,-1.6259,-1.5784,-1.5784,-1.5784,-1.5784,-1.5784,-1.5784,-1.5784,-1.5784,-1.6669,-1.7318,-1.7318,-1.8172,-1.8449,-1.7451,-1.7318,-1.6943,-1.592,-1.5784,-1.5784,-1.5784,-1.6756,-1.7318,-1.7318,-1.8265,-1.881,-1.881,-1.881,-1.8985,-1.9488,-1.9039,-1.8902,-1.9131,-1.7909,-1.7458,-1.7684,-1.7458,-1.6763,0.0,0.0,0.0,0.0,-0.9491,0.0,0.0,0.0,-0.8671,-0.8863,0.0,0.0,0.0,0.0,0.0,0.0,0.0,0.0,-1.0434,-1.1436,-1.2355,0.0,0.0,0.0,0.0,-1.4028,-1.4502,-1.5187,-1.4643,-1.471,-1.5628,-1.5537,-1.5565,-1.5771,-1.5784,-1.5784,-1.5784,-1.5784,-1.5784,-1.5784,-1.5784,-1.5784,-1.5784,-1.5784,-1.5784,-1.5784,-1.5784,-1.5784,-1.5784,-1.5784,-1.5784,-1.5784,-1.5784,-1.5784,-1.5784,-1.5784,-1.5804,-1.5919,-1.6219,-1.6395,-1.6516,-1.7072,-1.7427,-1.7582,-1.7582,-1.7582,-1.7575,-1.7542,-1.7555,-1.7582,-1.7582,-1.7148,-1.6707,-1.6707,-1.6259,-1.5784,-1.5784,-1.5784,-1.5784,-1.5784,-1.5784,-1.5784,-1.5784,-1.592,-1.6015,-1.6015,-1.615,-1.615,-1.6015,-1.6015,-1.5967,-1.5825,-1.5784,-1.5784,-1.5784,-1.592,-1.6015,-1.6015,-1.615,-1.6244,-1.6244,-1.6244,-1.725,-1.9451,-1.7343,-1.6803,-1.7917,-1.6615,-1.6622,-1.7692,-1.6527,-1.592,0.0,0.0,0.0,0.0,0.0,0.0,-0.8271,0.0,-0.7522,0.0,0.0,0.0,0.0,0.0,0.0,0.0,-0.9719,0.0,0.0,0.0,-1.131,0.0,0.0,0.0,0.0,0.0,0.0,0.0,0.0,-1.4135,-1.485,-1.5211,-1.5451,-1.5571,-1.5745,-1.5784,-1.5784,-1.5784,-1.5784,-1.5784,-1.5784,-1.5784,-1.5784,-1.5784,-1.5784,-1.5784,-1.5784,-1.5784,-1.5784,-1.5784,-1.5784,-1.5784,-1.5784,-1.5784,-1.5784,-1.5784,-1.5784,-1.5872,-1.6166,-1.6321,-1.6422,-1.7012,-1.7286,-1.738,-1.738,-1.7501,-1.7549,-1.7434,-1.7507,-1.7582,-1.7582,-1.7148,-1.6707,-1.6707,-1.6259,-1.5784,-1.5784,-1.5784,-1.5784,-1.5784,-1.5784,-1.5784,-1.5784,-1.5784,-1.5784,-1.5784,-1.5784,-1.5784,-1.5784,-1.5784,-1.5784,-1.5784,-1.5784,-1.5784,-1.5784,-1.5784,-1.5784,-1.5784,-1.5784,-1.5784,-1.5784,-1.5784,-1.6285,-1.7343,-1.6332,-1.6062,-1.6622,-1.6062,-1.6062,-1.6574,-1.6062,-1.5784,-0.8531,0.0,0.0,0.0,0.0,0.0,0.0,0.0,0.0,0.0,0.0,0.0,0.0,0.0,0.0,0.0,0.0,-0.9626,0.0,0.0,0.0,0.0,0.0,0.0,0.0,0.0,0.0,0.0,0.0,0.0,-1.4355,-1.4883,-1.5231,-1.5391,-1.5678,-1.5784,-1.5784,-1.5784,-1.5784,-1.5784,-1.5784,-1.5784,-1.5784,-1.5784,-1.5784,-1.5784,-1.5784,-1.5784,-1.5784,-1.5784,-1.5784,-1.5784,-1.5784,-1.5784,-1.5784,-1.5784,-1.5784,-1.5872,-1.6166,-1.6429,-1.6636,-1.7065,-1.7253,-1.732,-1.732,-1.7467,-1.7542,-1.738,-1.7474,-1.7582,-1.7582,-1.7208,-1.6807,-1.6727,-1.6319,-1.5925,-1.5798,-1.5784,-1.5784,-1.5784,-1.5784,-1.5784,-1.5784,-1.5784,-1.5784,-1.5784,-1.5784,-1.5784,-1.5784,-1.5784,-1.5784,-1.5784,-1.5784,-1.5784,-1.5784,-1.5784,-1.5784,-1.5784,-1.5784,-1.5784,-1.5784,-1.5784,-1.5784,-1.5784,-1.5784,-1.5784,-1.5784,-1.5784,-1.5784,-1.5784,-1.5784,-1.5784,0.0,0.0,0.0,-0.8561,0.0,0.0,0.0,0.0,-0.634,0.0,0.0,0.0,0.0,0.0,0.0,0.0,0.0,0.0,0.0,0.0,0.0,0.0,0.0,0.0,0.0,0.0,0.0,0.0,0.0,0.0,-1.4008,-1.4389,-1.481,-1.5378,-1.5678,-1.5784,-1.5784,-1.5784,-1.5784,-1.5784,-1.5784,-1.5784,-1.5784,-1.5784,-1.5784,-1.5784,-1.5784,-1.5784,-1.5784,-1.5784,-1.5784,-1.5784,-1.5784,-1.5784,-1.5784,-1.5784,-1.5784,-1.5872,-1.6166,-1.6697,-1.7172,-1.7192,-1.7393,-1.7569,-1.7569,-1.7575,-1.7582,-1.7569,-1.7575,-1.7582,-1.7582,-1.7414,-1.7112,-1.6774,-1.648,-1.6179,-1.5892,-1.5784,-1.5784,-1.5784,-1.5784,-1.5784,-1.5784,-1.5784,-1.5784,-1.5784,-1.5784,-1.5784,-1.5784,-1.5784,-1.5784,-1.5784,-1.5784,-1.5784,-1.5784,-1.5784,-1.5784,-1.5784,-1.5784,-1.5784,-1.5784,-1.5784,-1.5784,-1.5784,-1.5784,-1.5784,-1.5784,-1.5784,-1.5784,-1.5784,-1.5784,-1.5784,0.0,0.0,-0.7672,-0.758,0.0,0.0,0.0,0.0,0.0,0.0,0.0,0.0,0.0,0.0,0.0,0.0,0.0,0.0,0.0,0.0,0.0,0.0,0.0,0.0,0.0,0.0,0.0,0.0,-1.1597,0.0,0.0,-1.3861,-1.4416,-1.4803,-1.5291,-1.5631,-1.5778,-1.5784,-1.5784,-1.5784,-1.5784,-1.5784,-1.5784,-1.5784,-1.5784,-1.5784,-1.5784,-1.5784,-1.5784,-1.5784,-1.5784,-1.5784,-1.5784,-1.5784,-1.5784,-1.5784,-1.5784,-1.5872,-1.6166,-1.6526,-1.6887,-1.7139,-1.7266,-1.7387,-1.7522,-1.7582,-1.7582,-1.7582,-1.7582,-1.7582,-1.7582,-1.742,-1.7172,-1.7072,-1.6677,-1.6246,-1.6146,-1.5972,-1.5784,-1.5784,-1.5784,-1.5784,-1.5784,-1.5784,-1.5784,-1.5784,-1.5784,-1.5784,-1.5784,-1.5784,-1.5784,-1.5784,-1.5784,-1.5784,-1.5784,-1.5784,-1.5784,-1.5784,-1.5784,-1.5784,-1.5784,-1.5784,-1.5784,-1.5784,-1.5784,-1.5784,-1.5784,-1.5784,-1.5784,-1.5784,-1.5784,-1.5784,-0.7044,-0.691,0.0,-0.7256,-0.666,0.0,-0.5813,0.0,0.0,0.0,0.0,0.0,0.0,0.0,0.0,0.0,0.0,0.0,0.0,-0.853,0.0,0.0,0.0,-0.9784,0.0,0.0,-1.0307,-1.1202,-1.1042,-1.1436,0.0,0.0,-1.4108,-1.4509,-1.509,-1.5538,-1.5778,-1.5784,-1.5784,-1.5784,-1.5784,-1.5784,-1.5784,-1.5784,-1.5784,-1.5784,-1.5784,-1.5784,-1.5784,-1.5784,-1.5784,-1.5784,-1.5784,-1.5784,-1.5784,-1.5784,-1.5959,-1.6186,-1.648,-1.6774,-1.7048,-1.7293,-1.7353,-1.7387,-1.7522,-1.7582,-1.7582,-1.7582,-1.7582,-1.7582,-1.7582,-1.7442,-1.7326,-1.7226,-1.6911,-1.661,-1.6453,-1.6192,-1.5985,-1.5985,-1.5905,-1.5683,-1.5194,-1.5486,-1.5784,-1.5784,-1.5784,-1.5784,-1.5784,-1.5784,-1.5784,-1.5784,-1.5784,-1.5784,-1.5784,-1.5784,-1.5784,-1.5784,-1.5784,-1.5784,-1.5784,-1.5784,-1.5784,-1.5784,-1.5784,-1.5784,-1.5784,-1.5784,-1.5784,-1.5784,-1.5784,-1.5784]},{"header":{"parameterUnit":"m.s-1","parameterCategory":1,"la1":30.6,"la2":29.2853,"lo1":-89.7004,"lo2":-87.6739,"dy":0.0162,"dx":0.0183,"nx":112,"ny":82,"refTime":"2026-03-26T00:00:00:Z","depth":0,"parameterNumber":3,"parameterNumberName":"V-component_of_WINDS"},"data":[0.0,0.0,0.0,0.0,0.0,0.0,0.0,0.0,0.0,0.0,0.0,0.0,0.0,0.0,0.0,0.0,0.0,0.0,0.0,0.0,0.0,0.0,0.0,0.0,0.0,0.0,0.0,0.0,0.0,0.0,0.0,0.0,0.0,0.0,0.0,0.0,0.0,0.0,0.0,0.0,0.0,0.0,0.0,0.0,0.0,0.0,0.0,0.0,0.0,0.0,0.0,0.0,0.0,0.0,0.0,0.0,0.0,0.0,0.0,0.0,0.0,0.0,0.0,0.0,0.0,0.0,0.0,0.0,0.0,0.0,0.0,0.0,0.0,0.0,0.0,0.0,0.0,0.0,0.0,0.0,0.0,0.0,0.0,0.0,0.0,0.0,0.0,0.0,0.0,0.0,0.5012,0.6246,0.7823,0.9106,0.9891,1.0049,0.9765,0.9006,0.0,0.0,0.0,0.0,0.0,0.0,0.0,0.0,0.0,0.0,0.0,0.0,0.0,0.0,0.0,0.0,0.0,0.0,0.0,0.0,0.0,0.0,0.0,0.0,0.0,0.0,0.0,0.0,0.0,0.0,0.0,0.0,0.0,0.0,0.0,0.0,0.0,0.0,0.0,0.0,0.0,0.0,0.0,0.0,0.0,0.0,0.0,0.0,0.0,0.0,0.0,0.0,0.0,0.0,0.0,0.0,0.0,0.0,0.0,0.0,0.0,0.0,0.0,0.0,0.0,0.0,0.0,0.0,0.0,0.0,0.0,0.0,0.0,0.0,0.0,0.0,0.0,0.0,0.0,0.0,0.0,0.0,0.0,0.0,0.0,0.0,0.0,0.0,0.0,0.0,0.0,0.0,0.0,0.0,0.0,0.0,0.0,0.0,0.0,0.0,0.0,0.0,0.0,0.0,0.5902,0.7821,0.85,0.9309,1.0542,1.0019,0.9736,1.0038,0.0,0.0,0.0,0.0,0.0,0.0,0.0,0.0,0.0,0.0,0.0,0.0,0.0,0.0,0.0,0.0,0.0,0.0,0.0,0.0,0.0,0.0,0.0,0.0,0.0,0.0,0.0,0.0,0.0,0.0,0.0,0.0,0.0,0.0,0.0,0.0,0.0,0.0,0.0,0.0,0.0,0.0,0.0,0.0,0.0,0.0,0.0,0.0,0.0,0.0,0.0,0.0,0.0,0.0,0.0,0.0,0.0,0.0,0.0,0.0,0.0,0.0,0.0,0.0,0.0,0.0,0.0,0.0,0.0,0.0,0.0,0.0,0.0,0.0,0.0,0.0,0.0,0.0,0.0,0.0,0.0,0.0,0.0,0.0,0.0,0.0,0.0,0.0,0.0,0.0,0.0,0.0,0.0,0.0,0.0,0.0,0.0,0.0,0.0,0.0,0.0,0.0,0.0,0.5723,0.6681,0.842,0.9056,0.9736,1.0712,1.0366,1.0157,1.0293,0.874,0.0,0.0,0.0,0.0,0.0,0.0,0.0,0.0,0.0,0.0,0.0,0.0,0.0,0.0,0.0,0.0,0.0,0.0,0.0,0.0,0.0,0.0,0.0,0.0,0.0,0.0,0.0,0.0,0.0,0.0,0.0,0.0,0.0,0.0,0.0,0.0,0.0,0.0,0.0,0.0,0.0,0.0,0.0,0.0,0.0,0.0,0.0,0.0,0.0,0.0,0.0,0.0,0.0,0.0,0.0,0.0,0.0,0.0,0.0,0.0,0.0,0.0,0.0,0.0,0.0,0.0,0.0,0.0,0.0,0.0,0.0,0.0,0.0,0.0,0.0,0.0,0.0,0.0,0.0,0.0,0.0,0.0,0.0,0.0,0.0,0.0,0.0,0.0,0.0,0.0,0.0,0.0,0.0,0.0,0.0,0.0,0.0,0.0,0.0,0.0,0.0,0.0,0.6791,0.7462,0.8893,0.9484,1.0141,1.0965,1.0673,1.0389,1.0312,0.8584,0.0,0.0,0.0,0.0,0.0,0.0,0.0,0.0,0.0,0.0,0.0,0.0,0.0,0.0,0.0,0.0,0.0,0.0,0.0,0.0,0.0,0.0,0.0,0.0,0.0,0.0,0.0,0.0,0.0,0.0,0.0,0.0,0.0,0.0,0.0,0.0,0.0,0.0,0.0,0.0,0.0,0.0,0.0,0.0,0.0,0.0,0.0,0.0,0.0,0.0,0.0,0.0,0.0,0.0,0.0,0.0,0.0,0.0,0.0,0.0,0.0,0.0,0.0,0.0,0.0,0.0,0.0,0.0,0.0,0.0,0.0,0.0,0.0,0.0,0.0,0.0,0.0,0.0,0.0,0.0,0.0,0.0,0.0,0.0,0.0,0.0,0.0,0.0,0.0,0.0,0.0,0.0,0.0,0.0,0.0,0.0,0.0,0.0,0.0,0.0,0.0,0.0,0.7315,0.8311,0.9592,0.9762,1.0312,1.1616,1.0646,1.0054,1.0293,0.8311,0.0,0.0,0.0,0.0,0.0,0.0,0.0,0.0,0.0,0.0,0.0,0.0,0.0,0.0,0.0,0.0,0.0,0.0,0.0,0.0,0.0,0.0,0.0,0.0,0.0,0.0,0.0,0.0,0.0,0.0,0.0,0.0,0.0,0.0,0.0,0.0,0.0,0.0,0.0,0.0,0.0,0.0,0.0,0.0,0.0,0.0,0.0,0.0,0.0,0.0,0.0,0.0,0.0,0.0,0.0,0.0,0.0,0.0,0.0,0.0,0.0,0.0,0.0,0.0,0.0,0.0,0.0,0.0,0.0,0.0,0.0,0.0,0.0,0.0,0.0,0.0,0.0,0.0,0.0,0.0,0.0,0.0,0.0,0.0,0.0,0.0,0.0,0.0,0.0,0.0,0.0,0.0,0.0,0.0,0.0,0.0,0.0,0.0,0.0,0.0,0.0,0.0,0.7686,0.8661,0.9698,1.055,1.1139,1.1399,1.1148,1.0536,0.9542,0.0,0.0,0.0,0.0,0.0,0.0,0.0,0.0,0.0,0.0,0.0,0.0,0.0,0.0,0.0,0.0,0.0,0.0,0.0,0.0,0.0,0.0,0.0,0.0,0.0,0.0,0.0,0.0,0.0,0.0,0.0,0.0,0.0,0.0,0.0,0.0,0.0,0.0,0.0,0.0,0.0,0.0,0.0,0.0,0.0,0.0,0.0,0.0,0.0,0.0,0.0,0.0,0.0,0.0,0.0,0.0,0.0,0.0,0.0,0.0,0.0,0.0,0.0,0.0,0.0,0.0,0.0,0.0,0.0,0.0,0.0,0.0,0.0,0.0,0.0,0.0,0.0,0.0,0.0,0.0,0.0,0.0,0.0,0.0,0.0,0.0,0.0,0.0,0.0,0.0,0.0,0.0,0.0,0.0,0.0,0.0,0.0,0.0,0.0,0.0,0.0,0.0,0.7134,0.8106,0.909,1.0311,1.125,1.1728,1.1518,1.1427,1.0704,0.9102,0.0,0.0,0.0,0.0,0.0,0.0,0.0,0.0,0.0,0.0,0.0,0.0,0.0,0.0,0.0,0.0,0.0,0.0,0.0,0.0,0.0,0.0,0.0,0.0,0.0,0.0,0.0,0.0,0.0,0.0,0.0,0.0,0.0,0.0,0.0,0.0,0.0,0.0,0.0,0.0,0.0,0.0,0.0,0.0,0.0,0.0,0.0,0.0,0.0,0.0,0.0,0.0,0.0,0.0,0.0,0.0,0.0,0.0,0.0,0.0,0.0,0.0,0.0,0.0,0.0,0.0,0.0,0.0,0.0,0.0,0.0,0.0,0.0,0.0,0.0,0.0,0.0,0.0,0.0,0.0,0.0,0.0,0.0,0.0,0.0,0.0,0.0,0.0,0.0,0.0,0.0,0.0,0.0,0.0,0.0,0.0,0.0,0.0,0.0,0.0,0.0,0.0,0.786,0.8586,0.9668,1.1576,1.1814,1.1914,1.2163,1.1394,1.0371,0.0,0.0,0.0,0.0,0.0,0.0,0.0,0.0,0.0,0.0,0.0,0.0,0.0,0.0,0.0,0.0,0.0,0.0,0.0,0.0,0.0,0.0,0.0,0.0,0.0,0.0,0.0,0.0,0.0,0.0,0.0,0.0,0.0,0.0,0.0,0.0,0.0,0.0,0.0,0.0,0.0,0.0,0.0,0.0,0.0,0.0,0.0,0.0,0.0,0.0,0.0,0.0,0.0,0.0,0.0,0.0,0.0,0.0,0.0,0.0,0.0,0.0,0.0,0.0,0.0,0.0,0.0,0.0,0.0,0.0,0.0,0.0,0.0,0.0,0.0,0.0,0.0,0.0,0.0,0.0,0.0,0.0,0.0,0.0,0.0,0.0,0.0,0.0,0.0,0.0,0.0,0.0,0.0,0.0,0.0,0.0,0.0,0.0,0.0,0.0,0.0,0.0,0.0,0.7901,0.9346,1.0649,1.1675,1.227,1.2368,1.1816,1.1545,1.0459,0.8227,0.0,0.0,0.0,0.0,0.0,0.0,0.0,0.0,0.0,0.0,0.0,0.0,0.0,0.0,0.0,0.0,0.0,0.0,0.0,0.0,0.0,0.0,0.0,0.0,0.0,0.0,0.0,0.0,0.0,0.0,0.0,0.0,0.0,0.0,0.0,0.0,0.0,0.0,0.0,0.0,0.0,0.0,0.0,0.0,0.0,0.0,0.0,0.0,0.0,0.0,0.0,0.0,0.0,0.0,0.0,0.0,0.0,0.0,0.0,0.0,0.0,0.0,0.0,0.0,0.0,0.0,0.0,0.0,0.0,0.0,0.0,0.0,0.0,0.0,0.0,0.0,0.0,0.0,0.0,0.0,0.0,0.0,0.0,0.0,0.0,0.0,0.0,0.0,0.0,0.0,0.0,0.0,0.0,0.0,0.0,0.0,0.0,0.0,0.0,0.0,0.0,0.0,0.8314,0.9852,1.1173,1.2128,1.2642,1.2621,1.1907,1.1682,1.0625,0.8363,0.0,0.0,0.0,0.0,0.0,0.0,0.0,0.0,0.0,0.0,0.0,0.0,0.0,0.0,0.0,0.0,0.0,0.0,0.0,0.0,0.0,0.0,0.0,0.0,0.0,0.0,0.0,0.0,0.0,0.0,0.0,0.0,0.0,0.0,0.0,0.0,0.0,0.0,0.0,0.0,0.0,0.0,0.0,0.0,0.0,0.0,0.0,0.0,0.0,0.0,0.0,0.0,0.0,0.0,0.0,0.0,0.0,0.0,0.0,0.0,0.0,0.0,0.0,0.0,0.0,0.0,0.0,0.0,0.0,0.0,0.0,0.0,0.0,0.0,0.0,0.0,0.0,0.0,0.0,0.0,0.0,0.0,0.0,0.0,0.0,0.0,0.0,0.0,0.0,0.0,0.0,0.0,0.0,0.0,0.0,0.0,0.0,0.0,0.0,0.0,0.0,0.0,0.8889,1.0179,1.1434,1.2769,1.2905,1.2705,1.2242,1.1839,1.087,0.917,0.0,0.0,0.0,0.0,0.0,0.0,0.0,0.0,0.0,0.0,0.0,0.0,0.0,0.0,0.0,0.0,0.0,0.0,0.0,0.0,0.0,0.0,0.0,0.0,0.0,0.0,0.0,0.0,0.0,0.0,0.0,0.0,0.0,0.0,0.0,0.0,0.0,0.0,0.0,0.0,0.0,0.0,0.0,0.0,0.0,0.0,0.0,0.0,0.0,0.0,0.0,0.0,0.0,0.0,0.0,0.0,0.0,0.0,0.0,0.0,1.2877,0.0,0.0,0.0,0.0,0.0,0.0,0.0,0.0,0.0,0.0,0.0,0.0,0.0,0.0,0.0,0.0,0.0,0.0,0.0,0.0,0.0,0.0,0.0,0.0,0.0,0.0,0.0,0.0,0.0,0.0,0.0,0.0,0.0,0.0,0.0,0.0,0.0,0.0,0.0,0.0,0.0,0.8983,1.0745,1.2146,1.2822,1.2905,1.2705,1.2242,1.1839,1.0987,0.9572,0.8701,0.0,0.0,0.0,0.0,0.0,0.0,0.0,0.0,0.0,0.0,0.0,0.0,0.0,0.0,0.0,0.0,0.0,0.0,0.0,0.0,0.0,0.0,0.0,0.0,0.0,0.0,0.0,0.0,0.0,0.0,0.0,0.0,0.0,0.0,0.0,0.0,0.0,0.0,0.0,0.0,0.0,0.0,0.0,0.0,0.0,0.0,0.0,0.0,0.0,0.0,0.0,0.0,0.0,0.0,0.0,0.0,0.0,0.0,0.0,0.0,1.4827,0.0,0.0,0.0,0.0,0.0,0.0,0.0,0.0,0.0,0.0,0.0,0.0,0.0,0.0,0.0,0.0,0.0,0.0,0.0,0.0,0.0,0.0,0.0,0.0,0.0,0.0,0.0,0.0,0.0,0.0,0.0,0.0,0.0,0.0,0.0,0.0,0.0,0.0,0.0,0.0,0.9286,1.1026,1.2369,1.2856,1.2905,1.2807,1.2559,1.2139,1.1416,1.0293,0.9425,0.0,0.0,0.0,0.0,0.0,0.0,0.0,0.0,0.0,0.0,0.0,0.0,0.0,0.0,0.0,0.0,0.0,0.0,0.0,0.0,0.0,0.0,0.0,0.0,0.0,0.0,0.0,0.0,0.0,0.0,0.0,0.0,0.0,0.0,0.0,0.0,0.0,0.0,0.0,0.0,0.0,0.0,0.0,0.0,0.0,0.0,0.0,0.0,0.0,0.0,0.0,0.0,0.0,2.035,2.1113,2.2071,2.2071,2.2121,2.2096,1.9767,1.8709,1.8543,1.7426,0.0,0.0,0.0,0.0,0.0,0.0,0.0,0.0,0.0,0.0,0.0,0.0,0.0,0.0,0.0,0.0,0.0,0.0,0.0,0.0,0.0,0.0,0.0,0.0,1.1748,1.1623,0.0,0.0,0.0,0.0,0.0,0.0,0.0,0.0,0.0,0.0,0.0,0.0,0.982,1.1331,1.2457,1.2866,1.2905,1.2905,1.2905,1.248,1.1892,1.116,1.0244,0.9221,0.0,0.0,0.0,0.0,0.0,0.0,0.0,0.0,0.0,0.0,0.0,0.0,0.0,0.0,0.0,0.0,0.0,0.0,0.0,0.0,0.0,0.0,0.0,0.0,0.0,0.0,0.0,0.0,0.0,0.0,0.0,0.0,1.5316,1.5467,0.0,0.0,0.0,0.0,0.0,0.0,0.0,0.0,0.0,0.0,0.0,0.0,0.0,2.0029,1.9977,2.1559,2.2417,2.2593,2.3642,2.421,2.4349,2.4349,2.4632,2.5008,2.4205,0.0,2.0277,1.9145,0.0,0.0,0.0,0.0,0.0,0.0,0.0,0.0,0.0,0.0,0.0,0.0,0.0,0.0,0.0,0.0,0.0,0.0,0.0,0.0,0.0,0.0,1.3753,1.3695,1.3734,1.3607,0.0,1.1121,0.9466,0.9301,0.875,0.0,0.0,0.0,0.0,0.0,0.0,0.0,1.0767,1.1999,1.2837,1.2895,1.2905,1.2905,1.2905,1.248,1.2155,1.2038,1.0889,0.9951,0.9369,0.8203,0.0,0.0,0.0,0.0,0.0,0.0,0.0,0.0,0.0,0.0,0.0,0.0,0.0,0.0,0.0,0.0,0.0,0.0,0.0,0.0,0.0,0.0,0.0,0.0,0.0,0.0,0.0,0.0,0.0,1.5781,1.6669,1.6669,1.6923,1.6735,0.0,0.0,0.0,0.0,0.0,0.0,0.0,0.0,0.0,2.1235,2.2089,2.2817,2.3405,2.4466,2.5159,2.5473,2.5975,2.6364,2.6666,2.6666,2.6791,2.6992,2.6766,2.5799,2.4224,2.1845,2.0401,1.9572,0.0,0.0,0.0,0.0,1.6833,1.6903,1.7483,1.7807,0.0,1.7471,0.0,0.0,0.0,0.0,0.0,0.0,0.0,0.0,0.0,0.0,0.0,1.4104,1.4104,1.4055,1.387,1.2944,1.1853,0.0,1.044,0.9901,0.8913,0.0,0.0,0.0,0.0,1.0818,1.1279,1.2254,1.2905,1.2905,1.2905,1.2905,1.2905,1.2705,1.249,1.2223,1.1455,1.0723,1.0029,0.8977,0.8022,0.0,0.0,0.0,0.0,0.0,0.0,0.0,0.0,0.0,0.0,0.0,0.0,0.0,0.0,0.0,0.0,0.0,0.0,0.0,0.0,0.0,0.0,0.0,0.0,0.0,0.0,0.0,0.0,1.7112,1.7976,1.7815,1.8543,1.8442,0.0,0.0,0.0,0.0,0.0,0.0,2.1496,2.2171,2.305,2.4123,2.4619,2.5285,2.6226,2.6804,2.7293,2.7708,2.7858,2.8147,2.8536,2.8386,2.8398,2.8524,2.8235,2.7946,2.7469,2.4406,2.2749,2.202,2.0878,2.0085,1.9573,1.9706,1.9755,1.9867,2.0374,2.0906,2.1154,2.0312,0.0,1.8684,1.6653,0.0,0.0,0.0,0.0,1.416,1.416,1.4455,1.4767,1.4767,1.4679,1.4601,1.4601,1.4426,1.386,0.0,1.2064,1.1516,1.0215,0.0,0.0,0.0,0.0,1.1406,1.1858,1.2494,1.2905,1.2905,1.2905,1.2905,1.2905,1.2905,1.2744,1.2398,1.1897,1.1322,1.0655,0.9805,0.8892,0.7895,0.0,0.0,0.0,0.0,0.0,0.0,0.0,0.0,0.0,0.0,0.0,0.0,0.0,0.0,0.0,0.0,0.0,0.0,0.0,0.0,0.0,0.0,0.0,0.0,0.0,0.0,0.0,0.0,0.0,1.8983,2.0351,0.0,0.0,0.0,0.0,2.0528,2.2008,2.3158,2.3803,2.482,2.59,2.7042,2.7105,2.7394,2.7971,2.8524,2.8787,2.8813,2.9402,2.9679,2.9691,2.9139,2.9189,2.9641,2.8574,2.8386,2.8637,2.6377,2.482,2.3766,2.2623,2.1829,2.144,2.1938,2.2126,2.2201,2.2752,2.2952,2.297,2.2907,2.2196,2.0943,1.8934,1.789,0.0,0.0,1.5606,1.5968,1.5968,1.6269,1.657,1.657,1.6279,1.5997,1.5997,1.5351,1.46,0.0,1.3359,1.2817,1.2729,0.0,1.1623,1.1979,1.2096,1.2301,1.2778,1.2876,1.2905,1.2905,1.2905,1.2905,1.2905,1.2905,1.2895,1.2876,1.2064,1.1587,1.1538,1.0764,0.9716,0.8391,0.8717,0.0,0.0,0.0,0.0,0.0,0.0,0.0,0.0,0.0,0.0,0.0,0.0,0.0,0.0,0.0,0.0,0.0,0.0,0.0,0.0,0.0,0.0,0.0,0.0,0.0,0.0,0.0,0.0,2.1628,2.3125,0.0,2.2054,2.2786,2.3339,2.3339,2.4544,2.5523,2.6076,2.7143,2.8097,2.8875,2.9239,2.9679,3.0218,3.0419,3.0344,3.0018,3.0218,3.0131,2.9779,2.9578,2.9591,2.9767,2.9365,2.9302,2.9402,2.8222,2.7092,2.6038,2.5317,2.4664,2.4155,2.4356,2.4217,2.3954,2.4123,2.4186,2.4136,2.3803,2.2937,2.177,2.0493,1.9389,1.8353,1.7241,1.6717,1.6494,1.6494,1.658,1.6697,1.6697,1.658,1.6416,1.6153,1.586,1.5508,1.5039,1.4241,1.3516,1.2993,1.2866,1.2676,1.2262,1.2471,1.2705,1.2886,1.2905,1.2905,1.2905,1.2905,1.2905,1.2905,1.3262,1.3179,1.2494,1.2553,1.2352,1.1685,1.1437,1.0647,0.9272,0.9301,0.842,0.0,0.0,0.0,0.0,0.0,0.0,0.0,0.0,0.0,0.0,0.0,0.0,0.0,0.0,0.0,0.0,0.0,0.0,0.0,0.0,0.0,0.0,0.0,0.0,0.0,2.1741,2.3271,2.3634,2.5159,2.5586,2.4073,2.5126,2.5891,2.5891,2.713,2.8021,2.8386,2.9264,2.993,3.0319,3.0683,3.1047,3.1386,3.1386,3.1135,3.062,3.062,3.0331,2.9792,2.9792,2.9792,2.9792,2.9792,2.9792,2.9767,2.9377,2.8787,2.8059,2.7341,2.6813,2.644,2.644,2.6113,2.5624,2.5435,2.5247,2.5021,2.4657,2.3916,2.3,2.2125,2.1027,1.9876,1.885,1.7995,1.7311,1.7165,1.7126,1.7126,1.7126,1.7019,1.6875,1.6604,1.631,1.6007,1.5693,1.4941,1.418,1.3613,1.3854,1.3746,1.2788,1.3109,1.3322,1.2949,1.2905,1.2905,1.2905,1.2905,1.2905,1.2905,1.3262,1.3202,1.2484,1.2729,1.2518,1.1696,1.176,1.1056,0.9482,0.9174,0.8609,0.7742,0.0,0.0,0.0,0.0,0.0,0.0,0.0,0.0,0.0,0.0,0.0,0.0,0.0,0.0,0.0,0.0,0.0,0.0,0.0,0.0,0.0,0.0,0.0,2.1594,2.3514,2.4913,2.4938,2.6414,2.6979,2.5887,2.7256,2.821,2.821,2.9716,3.0633,3.0633,3.1135,3.1411,3.1411,3.1436,3.1436,3.1411,3.1411,3.1148,3.062,3.062,3.0331,2.9792,2.9792,2.9792,2.9792,2.9792,2.9792,2.9792,2.9792,2.9792,2.9679,2.8586,2.8147,2.8134,2.8134,2.7783,2.7231,2.6713,2.6147,2.5649,2.5624,2.5272,2.4671,2.377,2.2819,2.174,2.0471,1.9392,1.851,1.8135,1.8018,1.8008,1.8008,1.7695,1.7435,1.7383,1.6731,1.6114,1.6095,1.541,1.4805,1.4813,1.5026,1.4826,1.3712,1.4154,0.0,1.3096,1.2949,1.2949,1.2905,1.2905,1.2905,1.2905,1.2929,1.292,1.291,1.2562,1.2159,1.1705,1.1808,1.0981,0.9131,0.8465,0.8612,0.956,0.0,0.0,0.0,0.0,0.0,0.0,0.0,0.0,0.0,0.0,0.0,0.0,0.0,0.0,0.0,0.0,0.0,0.0,0.0,0.0,0.0,2.2447,2.3904,2.3904,2.5812,2.7507,2.8323,2.9515,3.0143,2.9829,3.0218,3.0482,3.0482,3.0922,3.1173,3.1173,3.1687,3.1989,3.1989,3.239,3.2416,3.1989,3.1989,3.1524,3.062,3.062,3.0331,2.9792,2.9792,2.9792,2.9792,2.9792,2.9792,2.9792,2.9792,2.9792,2.9767,2.9453,2.9076,2.8662,2.8662,2.8348,2.7795,2.7291,2.6989,2.6753,2.6386,2.5871,2.5207,2.4355,2.312,2.1807,2.0866,1.9636,1.8568,1.8461,1.8208,1.8008,1.8008,1.793,1.7754,1.7451,1.6943,1.6455,1.6153,1.5615,1.5146,1.4834,1.4871,1.4868,1.4743,1.4903,0.0,1.4212,1.4135,1.3826,1.2983,1.2905,1.2905,1.2905,1.331,1.3408,1.3078,1.3344,1.3497,1.3422,1.3438,1.2728,1.1139,0.9606,0.8801,0.0,0.0,0.0,0.0,0.0,0.0,0.0,0.0,0.0,0.0,0.0,0.0,0.0,0.0,0.0,0.0,0.0,0.0,0.0,0.0,0.0,0.0,2.4745,2.6364,2.6841,2.8009,2.9214,3.0331,3.1009,3.1386,3.1386,3.1599,3.1738,3.1738,3.1964,3.2102,3.2102,3.2164,3.2215,3.2215,3.2315,3.2215,3.1863,3.165,3.1235,3.062,3.0382,3.0105,2.9792,2.9792,2.9792,0.0,2.9792,2.9792,2.9792,2.9792,2.9792,0.0,0.0,0.0,0.0,0.0,2.8687,2.8373,2.7821,2.7482,2.7231,2.6952,2.6461,2.5882,2.5382,2.4303,2.312,2.2451,2.1358,2.0298,1.9879,1.9588,1.9372,1.9152,1.8821,1.8492,1.824,1.7556,1.6924,1.6692,0.0,0.0,1.539,1.5452,1.5386,1.5083,1.5558,1.57,1.4948,1.4701,1.4342,1.3687,1.3421,1.3176,1.2929,1.3671,0.0,0.0,0.0,1.4259,1.411,1.3504,0.0,0.0,0.0,0.0,0.0,0.0,0.0,0.0,0.8616,0.7984,0.0,0.0,0.0,0.0,0.0,0.0,0.0,0.0,0.0,0.0,0.0,0.0,0.0,0.0,0.0,0.0,2.6942,2.8712,2.9892,3.0068,3.0419,3.1373,3.1486,3.1486,3.1486,3.1863,3.2127,3.2127,3.2604,3.2923,3.2923,0.0,0.0,0.0,0.0,3.1486,3.1486,3.1022,3.0771,3.0696,3.0143,2.988,2.988,2.9817,2.9792,2.9792,2.9792,2.9792,2.9792,2.9792,2.9792,2.9792,2.9792,2.9792,2.9729,2.9214,2.8988,0.0,0.0,0.0,0.0,2.7318,2.6989,2.6575,2.6512,2.5804,2.4909,2.4514,2.3677,2.2701,2.179,2.152,2.1318,2.0695,2.0031,1.9494,1.9342,1.844,1.7668,1.7537,1.6857,1.6275,1.6125,1.6243,1.6102,1.5239,1.6229,0.0,1.5648,1.5214,1.4935,1.4818,0.0,0.0,1.3232,1.4057,1.4422,1.4027,1.4627,1.4758,1.4197,1.2874,1.2315,1.268,1.2716,1.2631,1.2425,1.2457,1.2225,1.1733,0.97,0.8727,0.0,0.0,0.0,0.0,0.0,0.0,0.0,0.0,0.0,0.0,0.0,0.0,0.0,0.0,0.0,2.7118,2.8599,2.9993,3.1524,3.175,3.1825,3.2026,3.2051,3.2051,3.2051,3.175,3.1549,3.1549,3.165,3.1712,3.1712,3.1612,3.175,3.2202,3.2102,3.2051,3.2051,3.1951,3.1675,3.1235,0.0,0.0,3.0444,2.9993,2.9792,2.9792,2.9792,2.9792,2.9792,2.9792,2.9792,2.9792,2.9792,2.9792,2.9779,2.9666,2.9628,2.9541,2.8925,2.8662,2.8461,2.757,2.7241,2.7077,2.6625,2.5804,0.0,2.4874,2.3932,2.287,2.2667,2.2319,2.1721,2.0504,2.0586,2.0676,1.9548,1.9351,1.9196,1.851,1.7989,1.7318,1.6275,1.5841,1.5938,1.6905,1.7296,1.7508,1.7527,1.7477,1.7064,1.6137,1.5521,1.5124,1.5015,1.437,1.4342,1.5197,1.5823,1.5715,1.472,1.4023,1.3703,1.3792,1.287,1.2655,1.32,1.2626,1.2352,1.232,1.1407,1.0782,0.0,0.0,0.0,0.0,0.0,0.0,0.0,0.0,0.0,0.0,0.0,2.2852,2.4141,0.0,2.7105,2.9051,3.0281,3.1286,3.2102,3.2466,3.2641,3.2641,3.2641,3.2528,3.224,3.1964,3.18,3.18,3.18,3.1926,3.2215,3.1951,3.1926,3.2202,3.1938,3.18,3.18,3.18,3.1662,3.1386,3.1122,3.0871,3.0608,3.0331,3.0055,2.9792,2.9792,2.9792,2.9792,2.9792,2.9792,2.9792,2.9792,2.9792,2.9792,2.9792,2.9792,2.9754,2.9465,2.9126,2.88,2.8285,2.7921,2.7595,2.7065,2.6538,2.6111,2.5842,2.5247,2.461,2.4348,2.4074,2.3639,2.2686,2.224,2.1855,2.1147,2.06,2.0126,1.9682,1.9258,1.8743,1.8098,1.7425,1.6973,1.7039,1.7688,1.822,1.837,1.8223,1.7884,1.7295,1.6731,1.6168,1.5556,1.5013,1.5096,1.5986,1.6051,1.5941,1.5663,1.486,1.454,1.4837,1.4245,1.3838,1.3597,1.3838,1.352,1.2711,1.2701,1.218,0.0,0.0,0.0,0.0,0.0,0.0,0.0,2.2217,2.2299,2.4679,2.5053,2.5368,2.6867,2.7921,2.9101,3.067,3.165,3.2252,3.2365,3.278,3.3124,3.3124,3.298,3.2717,3.2252,3.2026,3.1938,3.2051,3.1964,3.2152,3.2717,3.2303,3.2102,3.2215,3.1788,3.1599,3.1712,3.1712,3.1712,3.1712,3.1599,3.1273,3.0758,3.0658,3.0319,2.9792,2.9792,2.9792,2.9792,2.9792,2.9792,2.9792,2.9792,2.9792,2.9792,2.9792,2.9792,2.9792,2.9792,2.949,2.9076,2.8925,2.8624,2.816,2.7607,2.7369,2.7228,2.6788,2.6575,2.6386,2.5921,2.5762,2.559,2.4855,2.3908,2.3019,2.275,2.1853,2.1037,2.0878,2.0549,2.0211,1.9955,1.9399,1.8559,1.729,1.8018,1.8741,1.8912,1.863,1.8416,1.8416,1.7956,1.7146,1.5943,1.5914,1.6088,1.6464,1.6035,1.593,1.6315,1.5399,1.5096,1.5588,1.5477,1.5073,1.4318,1.4949,1.4618,1.343,1.3552,1.2998,2.4585,2.3111,2.2199,2.3313,2.2508,2.2392,0.0,2.6099,2.5819,2.7584,2.8305,2.8779,2.9328,2.9917,3.0708,3.1851,3.2139,3.239,3.2905,3.3074,3.3124,3.3124,3.2616,3.2277,3.2227,3.1361,3.0984,3.1449,3.106,3.1022,3.1549,3.1512,3.17,3.219,3.2152,3.2365,3.288,3.2893,3.2893,3.288,3.2365,3.1838,3.1286,3.0821,3.0319,2.9792,2.9792,2.9792,2.9792,2.9792,2.9792,2.9792,2.9792,2.9792,2.9792,2.9792,2.9792,2.9792,2.9792,2.9754,2.9616,2.9051,2.885,2.87,2.8185,2.767,2.7304,2.7241,2.6876,2.6474,2.6411,2.6399,2.603,2.4677,2.448,2.4216,2.2963,2.2761,2.2598,2.1877,2.1705,2.1288,2.0104,2.0361,2.0382,1.9387,1.8943,1.8939,1.9579,1.9645,1.9608,1.9608,1.9133,1.8351,1.7194,1.7162,1.6979,1.6451,1.6409,1.6194,1.572,1.5565,1.5543,1.561,1.5073,1.5265,1.6194,1.471,1.4457,1.5276,1.3718,1.2919,2.7056,2.5966,2.5019,2.5259,2.4978,2.5169,2.7209,2.7183,2.7338,2.9489,2.9975,3.0266,3.1037,3.1386,3.18,3.2591,3.2717,3.2805,3.3043,3.3124,3.2955,3.2616,3.2654,3.2453,3.18,3.1336,3.116,3.1373,3.1185,3.1449,3.2328,3.2365,3.2478,3.2704,3.2717,3.283,3.3124,3.3124,3.3124,3.3124,3.283,3.2416,3.1863,3.1637,3.1085,3.0256,2.993,2.9792,2.9792,2.9792,2.9792,2.9792,2.9792,2.9792,2.9792,2.9792,2.9792,2.9792,2.9792,2.9792,2.9754,2.9515,2.9428,2.9327,2.8725,2.8423,2.8109,2.7469,2.7153,2.6901,2.6575,2.6499,2.6355,2.5716,2.5415,2.5023,2.4119,2.3766,2.3404,2.2733,2.261,2.2433,2.1855,2.1776,2.1628,2.1215,2.0443,1.997,2.0274,2.0012,1.9798,1.9798,1.9309,1.8796,1.8326,1.8024,1.7622,1.701,1.7003,1.6751,1.6163,1.5798,1.5776,1.6129,1.5521,1.5477,1.5986,1.5577,1.5265,1.5073,1.4664,1.4283,2.8021,2.7465,2.6905,2.6783,2.6998,2.7442,2.8304,2.8352,2.8747,3.0712,3.0981,3.114,3.2184,3.2533,3.2788,3.322,3.3411,3.3441,3.3154,3.2943,3.2679,3.2265,3.2453,3.229,3.1461,3.1386,3.1512,3.1825,3.1562,3.1888,3.3061,3.3124,3.3124,3.3124,3.3124,3.3124,3.3124,3.3124,3.3124,3.3124,3.3124,3.2767,3.2202,3.2051,3.1486,3.0595,3.0193,2.993,2.9792,2.9792,2.9792,2.9792,2.9792,2.9792,2.9792,2.9792,2.9792,2.9792,2.9792,2.9792,2.9792,2.9792,2.9792,2.9716,2.9289,2.9013,2.8725,2.7959,2.762,2.7381,2.6864,2.6725,2.6688,2.6524,2.6047,2.5485,2.5109,2.4607,2.4054,2.3459,2.3346,2.3296,2.3133,2.2782,2.2506,2.2506,2.1732,2.1031,2.0729,2.0189,1.9798,1.9798,1.9434,1.9221,1.9221,1.8719,1.8254,1.7865,1.7689,1.7426,1.6999,1.6549,1.6526,1.6964,1.6379,1.6094,1.6094,1.619,1.5898,1.5197,1.5298,1.5208,2.6525,2.6162,2.6378,2.7801,2.8116,2.8498,3.0145,3.0507,3.067,3.1263,3.1389,3.1686,3.262,3.3304,3.3739,3.3671,3.4225,3.4275,3.324,3.2591,3.2227,3.2215,3.175,3.1424,0.0,3.1386,3.1851,3.2986,3.2001,3.1888,3.3061,3.3124,3.3124,3.3124,3.3124,3.3124,3.3124,3.3124,3.3124,3.3124,3.3124,3.2767,3.219,3.1662,3.1122,3.062,3.0595,3.0281,2.9792,2.9792,2.9792,2.9792,2.9792,2.9792,2.9792,2.9792,2.9792,2.9792,2.9792,2.9792,2.9792,2.9792,2.9792,2.9792,2.9779,2.9377,2.8888,2.885,2.8499,2.7959,2.7394,2.7291,2.7118,2.6612,2.6047,2.5586,2.5573,2.5159,2.4632,2.4079,2.3966,2.3791,2.3195,2.3095,2.3083,2.3083,2.2594,2.1882,2.083,2.0189,1.9798,1.9798,1.9786,1.9773,1.9773,1.9271,1.897,1.8958,1.8456,1.8179,1.8154,1.813,1.813,1.8154,1.7626,1.735,1.7328,1.6197,1.5908,1.6423,1.5265,1.5028,2.6722,2.7077,2.7756,2.9078,2.9563,3.0005,3.0922,3.1135,3.1173,3.1348,3.1122,3.1139,3.2019,3.2422,3.2724,3.2975,3.3606,3.3803,3.3189,3.2918,3.2744,3.2597,3.3174,0.0,0.0,0.0,0.0,3.1926,3.1951,3.2102,3.2478,3.2867,3.3124,3.3124,3.3124,3.3124,3.3124,3.3124,3.3124,3.3124,3.3124,3.2968,3.2767,3.2202,3.1838,3.1637,3.0922,3.0507,3.0306,2.9942,2.9792,2.9792,2.9792,2.9792,2.9792,2.9792,2.9792,2.9792,2.9792,2.9792,2.9792,2.9792,2.9792,2.9792,2.9792,2.9654,2.9415,2.9001,2.8762,2.8524,2.7971,2.7557,2.7231,2.709,2.6612,2.6097,2.5686,2.546,2.5172,2.4612,2.4243,2.3941,2.374,2.3358,2.3108,2.3108,2.2631,2.192,2.083,2.0515,2.0251,1.9849,1.9798,1.9798,1.9798,1.9635,1.9371,1.902,1.8832,1.8556,1.8216,1.8204,1.8204,1.8204,1.8028,1.7928,1.7928,1.7529,1.7256,1.7087,1.6694,1.6396,2.7461,2.8391,2.9437,3.0952,3.1565,3.184,3.2186,3.1949,3.1524,3.0934,3.0605,3.0534,3.1063,3.1198,3.1556,3.241,3.2881,3.3261,3.3614,3.3491,3.3442,3.3699,3.4284,3.4681,3.4751,3.3366,0.0,3.2278,3.206,3.2001,3.2202,3.2767,3.3124,3.3124,3.3124,3.3124,3.3124,3.3124,3.3124,3.3124,3.3124,3.3124,3.3111,3.2692,3.2403,3.2177,3.1486,3.0972,3.0583,3.0231,2.9967,2.9792,2.9792,2.9792,2.9792,2.9792,2.9792,2.9792,2.9792,2.9792,2.9792,2.9792,2.9792,2.9792,2.9792,2.9792,2.9716,2.934,2.9239,2.9101,2.8549,2.8134,2.777,2.7369,2.7052,2.6637,2.6059,2.59,2.5749,2.5197,2.4808,2.4506,2.4318,2.3816,2.3346,2.3133,2.2807,2.2284,2.1408,2.1106,2.0767,2.0175,2.0112,2.0024,1.9823,1.9798,1.966,1.9309,1.9284,1.9121,1.8794,1.8781,1.8781,1.8781,1.8569,1.8481,1.8481,1.8304,1.8028,1.7664,1.7498,1.7187,2.8533,2.992,3.127,3.3302,3.3793,3.3793,3.3834,3.2918,3.1669,3.0097,2.9826,2.979,2.9665,2.9854,3.0505,3.1973,3.2327,3.2944,3.4467,3.4243,3.4299,3.5355,3.5062,3.4988,3.5492,3.4917,0.0,3.3993,0.0,3.1814,3.2344,3.2912,3.324,3.3197,3.3197,3.3154,3.3124,3.3124,3.3124,3.3124,3.3124,3.3124,3.3124,3.3124,3.278,3.2252,3.2227,3.1637,3.0696,3.0633,3.0306,2.9829,2.9804,2.9792,2.9792,2.9792,2.9792,2.9792,2.9792,2.9792,2.9792,2.9792,2.9792,2.9792,2.9792,2.9792,2.9792,2.9792,2.9792,2.9666,2.9076,2.8913,2.8624,2.7607,2.7318,2.7178,2.665,2.6512,2.6336,2.5749,2.5611,2.5435,2.4876,2.4368,2.3816,2.3233,2.312,2.2907,2.2355,2.1857,2.1345,2.0792,2.0717,2.0465,1.9899,1.9823,1.9798,1.9798,1.9798,1.9798,1.9798,1.9798,1.9798,1.9798,1.9296,1.9045,1.9045,1.8519,1.8279,1.8242,1.7714,1.7473,2.8711,3.0914,3.3102,3.3648,3.3793,3.3887,3.4124,3.2283,3.037,2.9706,2.8571,2.7717,2.7775,2.9133,3.0351,3.074,3.3139,3.4881,3.4711,3.5224,3.5811,3.6372,3.6764,3.7149,3.7579,3.6844,3.6285,0.0,3.4997,3.4414,3.4549,3.5116,3.5075,3.4304,3.4275,3.3911,3.3124,3.3124,3.3124,3.3124,3.3124,3.3124,3.3124,3.3124,3.3006,3.283,3.2403,3.2064,3.1738,3.0947,3.0532,3.0369,2.9955,2.9792,2.9792,2.9792,2.9792,2.9792,2.9792,2.9792,2.9792,2.9792,2.9792,2.9792,2.9792,2.9792,2.9792,2.9792,2.9792,2.9754,2.9616,2.9252,2.8813,2.8574,2.7883,2.7278,2.714,2.6788,2.6449,2.6298,2.5921,2.5435,2.4876,2.4368,2.3954,2.3803,2.3384,2.2907,2.2355,2.2184,2.1895,2.1343,2.0943,2.0629,2.0478,2.0049,1.9798,1.9798,1.9798,1.9798,1.9798,1.9798,1.9798,1.9798,1.9673,1.961,1.961,1.9459,1.9196,1.8795,1.8657,1.8392,3.0586,3.2751,3.4588,3.4991,3.5107,3.4796,3.3625,3.1738,2.9688,2.785,2.7021,2.6441,2.5978,2.7394,2.8968,2.9965,3.237,3.4472,3.5473,3.6373,3.7163,3.7872,3.8274,3.8598,3.8799,3.8079,3.7732,3.8025,3.6349,3.5355,3.5394,3.5933,3.5934,3.5359,3.5359,3.5088,3.4485,3.4444,3.4444,3.4444,3.4444,3.4444,3.4444,3.3982,3.3797,3.3771,0.0,3.2877,3.2206,3.2054,3.1451,3.0583,3.0281,3.0005,2.9792,2.9792,2.9792,2.9792,2.9792,2.9792,2.9792,2.9792,2.9792,2.9792,2.9792,2.9792,2.9792,2.9792,2.9792,2.9792,2.9792,2.9553,2.9239,2.895,2.8461,2.7946,2.7695,2.7241,2.6788,2.6549,2.6235,2.5799,2.5259,2.4908,2.4531,2.4067,2.3715,2.3283,2.2719,2.2644,2.246,2.1907,2.1568,2.132,2.1069,2.0528,2.0175,2.0175,1.9936,1.9798,1.9798,1.9798,1.9798,1.9798,1.9798,1.9798,1.9798,1.9798,1.966,1.9334,1.9108,1.8845,3.2749,3.4537,3.5669,3.6418,3.6558,3.5798,3.2829,3.1063,2.905,2.5575,2.5331,2.5403,2.4286,2.5427,2.7229,2.941,3.111,3.3254,3.6365,3.7414,3.8243,3.9286,3.9388,3.9388,3.9388,3.8871,3.8781,3.9379,3.725,3.5941,3.5941,3.6364,3.6565,3.6408,3.6277,3.6198,3.6198,3.6198,3.6198,3.6198,3.6198,3.6198,3.6158,3.5278,3.4897,3.4897,0.0,0.0,3.2596,3.3604,3.2696,3.0708,3.0779,3.0387,2.9792,2.9792,2.9792,2.9792,2.9792,2.9792,2.9792,2.9792,2.9792,2.9792,2.9792,2.9792,2.9792,2.9792,2.9792,2.9792,2.9792,2.9792,2.9666,2.9126,2.895,2.8762,2.8323,2.772,2.7178,2.67,2.6549,2.6336,2.5799,2.5649,2.5285,2.4356,2.4092,2.3816,2.3283,2.3158,2.292,2.2472,2.2347,2.2121,2.1644,2.1119,2.0805,2.0805,2.0264,1.9911,1.9911,1.9849,1.9798,1.9798,1.9798,1.9798,1.9798,1.9798,1.9798,1.9798,1.9309,1.9108,3.2098,3.4231,3.5974,3.5659,3.5439,3.4824,3.2876,2.9987,2.7128,2.5077,2.3939,2.3251,2.3013,2.4951,2.7144,2.8884,3.1897,3.4684,3.6526,3.7673,3.8588,3.9313,3.9388,3.9388,3.9388,3.9269,3.9254,0.0,3.8964,3.8693,3.8693,3.8796,3.8457,3.7548,3.6643,3.6198,3.6198,3.6198,3.6198,3.6198,3.6198,3.6198,3.6198,3.6013,3.5934,3.5934,3.5934,0.0,3.4314,3.4897,3.3582,3.1291,3.1747,3.1035,2.9792,2.9792,2.9792,2.9792,2.9792,2.9792,2.9792,2.9792,2.9792,2.9792,2.9792,2.9792,2.9792,2.9792,2.9792,2.9792,2.9792,2.9792,2.9767,2.9666,2.9277,2.8863,2.8762,2.7996,2.7256,2.719,2.6801,2.6461,2.6361,2.5912,2.5536,2.5347,2.4569,2.3966,2.3866,2.3396,2.307,2.297,2.2556,2.2272,2.2184,2.1656,2.1343,2.1343,2.0855,2.0541,2.0541,2.0049,1.9798,1.9798,1.9798,1.9798,1.9798,1.9798,1.9798,1.9798,1.971,1.966,3.407,3.5389,3.6225,3.6347,3.5805,3.4507,3.1647,2.8838,2.6128,2.3606,2.2592,2.2054,2.1724,2.3804,2.6029,2.7513,3.0389,3.3286,3.5761,3.656,3.7524,3.9179,3.9095,3.9035,3.9394,3.9388,3.9388,3.9388,3.9388,3.9388,3.9388,3.9388,3.9141,3.8671,3.813,3.7852,3.7852,3.7852,3.7852,3.7852,3.7852,3.7852,3.7852,3.7291,3.7021,3.7021,3.7021,0.0,3.5534,3.6325,3.5413,3.3463,3.3367,3.2699,3.1691,3.085,3.052,3.0444,2.9972,2.9792,2.9792,2.9792,2.9792,2.9792,2.9792,2.9792,2.9792,2.9792,2.9792,2.9792,2.9792,2.9792,2.9792,2.9792,2.9578,2.9289,2.8963,2.8511,2.7971,2.7394,2.7102,2.6839,2.6549,2.626,2.5971,2.5636,2.5159,2.4632,2.4067,2.3753,2.3446,2.3133,2.2869,2.2706,2.2706,2.2234,2.192,2.192,2.1393,2.1119,2.1119,2.0578,2.0277,2.0277,1.9962,1.9798,1.9798,1.9798,1.9798,1.9798,1.9798,1.9798,3.5723,3.614,3.6015,3.6881,3.6056,3.4068,3.0238,2.7709,2.5285,2.2128,2.1365,2.1156,2.0763,2.2497,2.4545,2.6303,2.8562,3.1315,3.4801,3.5415,3.6432,3.8901,3.8721,3.8661,3.9313,3.9388,3.9388,3.9388,3.9388,3.9388,3.9388,3.9388,3.9388,3.9388,3.9388,3.9388,3.9388,3.9388,3.9388,3.9388,3.9388,3.9388,3.9373,3.8546,3.8144,3.8144,3.8144,0.0,0.0,3.7701,3.7063,3.5377,3.5068,3.4414,3.3449,3.2179,3.1606,3.1365,3.0419,3.0113,3.0075,2.9869,2.9792,2.9792,2.9792,2.9792,2.9792,2.9792,2.9792,2.9792,2.9792,2.9792,2.9792,2.9792,2.9792,2.9666,2.9214,2.8976,2.8637,2.7808,2.7444,2.7178,2.6751,2.6575,2.6336,2.585,2.5674,2.5297,2.4456,2.4243,2.3954,2.3358,2.3183,2.3108,2.3108,2.2706,2.2456,2.2456,2.197,2.1656,2.1656,2.1169,2.0867,2.0867,2.0275,1.9987,1.9987,1.9861,1.9798,1.9798,1.9798,1.9798,3.4643,3.5007,3.4803,3.5776,3.4846,3.2811,2.9445,2.6652,2.4022,2.1331,2.0303,2.0049,2.0598,2.1395,2.2981,2.6093,2.7814,3.0133,3.4054,3.5115,3.6252,3.8242,3.8422,3.8661,3.9313,3.9388,3.9388,3.9388,3.9388,3.9388,3.9388,3.9388,3.9388,3.9388,3.9388,3.9388,3.9388,3.9388,3.9388,3.9388,3.9388,3.9388,3.9388,3.9301,3.9265,3.9265,3.9265,0.0,0.0,3.8819,3.773,3.5495,3.6399,3.5484,3.3564,3.3436,3.3004,3.2357,3.1389,3.1068,3.0932,3.0075,2.9792,2.9792,2.9792,2.9792,2.9792,2.9792,2.9792,2.9792,2.9792,2.9792,2.9792,2.9792,2.9792,2.9779,2.9729,2.9302,2.8863,2.8762,2.7971,2.7268,2.7218,2.6826,2.6474,2.6424,2.5971,2.5561,2.546,2.5046,2.4531,2.3979,2.3421,2.3108,2.3108,2.3058,2.3032,2.3032,2.2506,2.2234,2.2234,2.1707,2.1446,2.1446,2.0893,2.0616,2.0616,2.0062,1.9798,1.9798,1.9798,1.9798,3.3936,3.4449,3.4543,3.5189,3.4123,3.2153,2.9265,2.6213,2.3385,2.1152,2.0168,1.9783,2.0049,2.0647,2.1799,0.0,0.0,2.6841,3.0432,3.1524,3.311,3.6282,3.7,3.7823,3.9239,3.9388,3.9388,3.9388,3.9388,0.0,3.9388,3.9388,3.9388,3.9388,3.9388,3.9388,3.9388,3.9388,3.9388,3.9388,3.9388,3.9388,3.9388,3.9388,3.9388,3.9388,3.9388,0.0,0.0,3.9228,3.8759,3.7812,3.7834,3.7042,3.5778,3.4811,3.4023,3.331,3.2393,3.2033,3.1997,3.1623,3.1476,3.1378,3.0809,3.1057,3.1378,3.0809,3.062,3.052,2.9934,2.9792,2.9792,2.9792,2.9792,2.9792,2.9792,2.9616,2.934,2.8963,2.8574,2.8059,2.7394,2.714,2.6876,2.6549,2.6298,2.6021,2.5636,2.541,2.4958,2.4092,2.3791,2.3484,2.3133,2.3108,2.3108,2.3108,2.2895,2.2782,2.2782,2.2284,2.1983,2.1983,2.1144,2.0691,2.0691,2.0087,1.9798,1.9798,1.9798,1.9798,3.3291,3.3791,3.3895,3.466,3.336,3.1225,2.8607,2.5719,2.2996,2.0857,2.0034,1.9708,1.9708,2.0094,2.0902,0.0,0.0,2.4837,2.8397,2.9445,3.118,3.4771,3.5789,3.6881,3.8646,3.9185,3.9388,3.9388,3.9388,0.0,3.9388,3.9388,3.9388,3.9388,3.9388,3.9388,3.9388,3.9388,3.9388,3.9388,3.9388,3.9388,3.9388,3.9388,3.9388,3.9388,0.0,0.0,0.0,3.9388,3.9388,3.9328,3.8886,3.8167,3.7276,3.6153,3.5161,3.4327,3.3345,3.3031,3.2961,3.2713,3.2784,3.289,3.2249,3.2321,3.2464,3.1815,3.1609,3.1462,3.0809,3.0633,3.0633,3.0633,3.0419,3.0216,3.0216,2.9998,2.9666,2.9264,2.9013,2.8599,2.7682,2.7394,2.7128,2.6575,2.6499,2.6348,2.59,2.585,2.5498,2.4569,2.4469,2.4104,2.3183,2.3108,2.3108,2.3108,2.3108,2.3108,2.3108,2.2732,2.2531,2.2531,2.1631,2.1182,2.1182,2.044,2.0062,2.0049,1.9874,1.9798,3.2718,3.2817,3.2503,3.4101,3.2497,2.9834,2.7215,2.5046,2.2862,2.0247,1.9708,1.9708,1.9708,1.9708,2.0367,2.2373,0.0,0.0,2.9037,3.0103,3.1495,3.4204,3.51,3.6013,3.73,3.8631,3.9388,3.9388,3.9388,0.0,3.9388,3.9388,3.9388,3.9388,3.9388,3.9388,3.9388,3.9388,3.9388,3.9388,3.9388,3.9388,3.9388,3.9388,3.9388,0.0,0.0,0.0,0.0,3.9388,3.9388,3.9388,3.9373,3.8551,3.7404,3.7389,3.6563,3.5359,3.4312,3.3993,3.3842,3.289,3.3241,3.3993,3.3993,3.3345,3.2593,3.2593,3.2593,3.2558,3.2558,3.2558,3.2558,3.2558,3.1852,3.118,3.118,3.0457,2.9792,2.9779,2.9315,2.8712,2.8197,2.7645,2.7128,2.6575,2.6499,2.6499,2.6487,2.6487,2.626,2.5636,2.5573,2.4921,2.3246,2.3108,2.3108,2.3108,2.3108,2.3108,2.3108,2.3095,2.3095,2.3095,2.2543,2.2297,2.2297,2.1219,2.0679,2.0666,2.0075,1.9798,2.8741,2.9578,3.0063,3.0117,2.9304,2.7934,2.5749,2.4073,2.2358,2.0157,1.9708,1.9708,1.9708,1.9708,2.0501,2.2927,2.3475,0.0,2.7809,2.9535,3.133,3.3544,3.6387,3.8297,3.8751,3.9134,3.9388,3.9388,3.9388,0.0,3.9388,3.9388,3.9388,3.9388,3.9388,3.9388,3.9388,3.9388,3.9388,3.9388,3.9388,3.9388,3.9388,3.9388,0.0,0.0,0.0,0.0,0.0,3.9388,3.9388,3.9388,3.9388,3.8586,3.7404,3.7404,3.6596,3.5457,3.5133,3.5019,3.4986,3.4673,3.4773,3.5019,3.5019,3.4806,3.4442,3.3739,3.3101,3.2593,3.2593,3.2593,3.2593,3.2593,3.2393,3.2177,3.2177,3.1924,3.1719,3.1719,3.1571,3.1046,2.9852,2.9509,2.8889,2.7296,2.7052,2.6927,2.6549,2.6499,2.6273,2.5649,2.5598,2.5084,2.3828,2.3728,2.3521,2.3133,2.3108,2.3108,2.3108,2.3108,2.3108,2.3108,2.2556,2.2309,2.2309,2.1581,2.1257,2.1257,2.1041,2.0953,2.6158,2.7316,2.8113,2.7952,2.7369,2.6378,2.4619,2.3236,2.1819,2.0067,1.9708,1.9708,1.9708,1.9708,2.0322,2.2203,2.2712,2.3894,2.6821,2.8697,3.0896,3.3903,3.6866,3.8751,3.9005,3.9551,3.99,3.99,0.0,0.0,3.99,3.9574,3.9388,3.9388,3.9388,3.9388,3.9388,3.9388,3.9388,3.9388,3.9388,3.9388,3.9388,3.9388,0.0,0.0,0.0,0.0,0.0,3.9388,3.9388,3.9388,3.9388,3.8586,3.7404,3.7404,3.6596,3.5504,3.5504,3.5504,3.5504,3.5504,3.5504,3.5504,3.5504,3.5504,3.5359,3.4725,3.4143,3.3685,3.3685,3.3685,3.3685,3.3685,3.3394,3.3136,3.3136,3.2855,3.2593,3.2593,3.2593,3.2236,3.1132,3.0931,3.0432,2.893,2.8464,2.8203,2.785,2.7615,2.7307,2.6929,2.6574,2.6181,2.5641,2.4612,2.3841,2.3446,2.3233,2.3108,2.3108,2.3108,2.3108,2.3108,2.2769,2.2594,2.2594,2.2071,2.1694,2.1493,2.1493,2.1493,0.0,2.5779,2.6452,2.7046,2.6228,2.4986,2.3684,2.2473,0.0,1.9977,1.9708,1.9738,1.9828,1.9768,2.0007,2.0897,2.1575,2.3101,2.6348,2.8128,3.0717,3.5115,3.6828,3.7882,3.8497,3.9925,4.0777,4.0777,0.0,0.0,4.0777,4.0025,3.9574,3.9574,3.9574,3.9517,3.9388,3.9388,3.9388,3.9388,3.9388,3.9388,3.9388,3.9388,0.0,0.0,0.0,0.0,0.0,3.9388,3.9394,3.9313,3.9313,3.8527,3.7345,3.7345,3.6567,3.5504,3.5504,3.5504,3.5504,3.5504,3.5504,3.5504,3.5504,3.5504,3.5504,3.5504,3.5504,3.5504,3.5504,3.5504,3.5504,3.5504,3.4806,3.4095,3.4095,3.3429,3.282,3.282,3.282,3.2639,3.2034,3.1972,3.1763,3.1152,3.0516,3.0095,3.0012,2.9449,2.9044,2.9002,2.8266,2.7921,2.8246,2.5774,2.4204,2.4178,2.3599,2.3253,2.3245,2.3155,2.3155,2.3245,2.3215,2.3198,2.3185,2.2682,2.2194,2.1718,2.1734,2.1734,2.156,0.0,2.3541,2.3182,2.2847,2.2398,0.0,2.1137,2.0707,1.9872,1.9708,2.0022,2.1036,2.0397,2.0737,2.3939,2.4582,2.5674,2.8513,3.1764,3.4651,3.6716,3.8716,3.9982,4.0136,4.1086,4.1691,0.0,0.0,4.1691,4.1691,4.1511,4.1379,4.1379,4.1379,4.074,3.9409,3.9388,3.9388,3.9388,3.9388,3.9388,3.9388,3.9388,0.0,0.0,0.0,0.0,3.9388,3.9388,3.911,3.8631,3.8631,3.7838,3.6701,3.6701,3.6193,3.5504,3.5504,3.5504,3.5504,3.5504,3.5504,3.5504,3.5504,3.5504,3.5504,3.5504,3.5504,3.5504,3.5504,3.5504,3.5504,3.5504,3.5326,3.5133,3.5133,3.4953,3.482,3.482,3.482,3.4547,3.3622,3.3477,3.3058,3.1791,3.1466,3.1037,3.0122,2.9873,2.9578,2.9044,2.8812,2.8725,2.8809,2.7215,2.6118,2.5842,2.514,2.4744,2.4851,2.3725,2.3636,2.4838,2.4308,2.4031,2.4031,2.39,2.3757,2.3655,2.4224,2.4181,2.0139,2.1216,2.2239,2.2179,2.1939,2.1605,2.1246,2.0831,2.0403,2.0041,1.9965,2.0284,2.133,2.1024,2.1618,2.4682,2.5425,2.6752,3.0013,3.3634,3.6312,3.73,3.9344,4.069,0.0,4.1869,4.2583,0.0,0.0,4.2583,4.2583,4.2221,4.1997,4.1997,4.1997,4.1346,4.0025,3.999,3.999,3.999,3.999,4.022,4.0585,4.0185,3.999,0.0,0.0,0.0,3.9388,3.9388,3.9005,3.8392,3.8392,3.7614,3.6492,3.6492,3.6073,3.5504,3.5504,3.5504,3.5504,3.5504,3.5504,3.5504,3.5504,3.5504,3.5504,3.5504,3.5504,3.5504,3.5504,3.5504,3.5504,3.5504,3.5504,3.5504,3.5504,3.5504,3.5504,3.5504,3.5504,3.5326,3.4758,3.4691,3.4426,3.3629,3.3245,3.2799,3.2155,3.1533,3.1013,3.0637,2.9998,2.9766,3.0103,2.9103,2.8118,2.7268,2.6569,2.621,2.627,2.519,2.4849,2.5384,2.5007,2.4794,2.4794,2.4794,2.4794,2.4823,2.5203,2.5175,2.0167,2.1137,2.2108,2.2219,2.1934,2.1618,2.1512,2.0931,2.0416,2.0416,2.0494,2.0819,2.1613,2.1934,2.2813,2.4947,2.6161,2.8092,3.1637,3.4826,3.7041,3.7534,3.9533,0.0,4.108,4.2552,0.0,0.0,0.0,4.3502,4.3502,4.2816,4.2379,4.2379,4.2379,4.1997,4.1113,4.0979,4.0878,4.0878,4.0878,4.128,4.1965,4.1247,4.0878,0.0,0.0,0.0,3.9574,3.9326,3.8856,3.8227,3.8138,3.7375,3.6342,3.6342,3.5983,3.5504,3.5504,3.5504,3.5504,3.5504,3.5504,3.5504,3.5504,3.5504,3.5504,3.5504,3.5504,3.5504,3.5504,3.5504,3.5504,3.5504,3.5504,3.5504,3.5504,3.5504,3.5504,3.5504,3.5504,3.5504,3.5504,3.5504,3.5504,3.5504,3.5011,3.4623,3.4518,3.3499,3.2736,3.2512,3.1366,3.088,3.1453,3.0866,2.9978,2.879,2.8038,2.7515,2.7299,2.7043,2.6526,2.5744,2.573,2.5661,2.5563,2.5563,2.5563,2.5563,2.5673,2.5673,2.2326,2.3233,2.3235,2.0773,2.0767,2.1209,2.0641,2.0707,2.0894,2.0894,2.1389,2.2239,2.3599,2.3917,2.4879,2.7544,3.0554,3.311,3.4733,3.6924,3.839,3.8483,0.0,4.2093,4.2816,4.3814,0.0,0.0,0.0,4.4412,4.4412,4.4281,4.4196,4.4196,4.4196,4.3768,4.2909,4.2157,4.1804,4.1804,4.1804,4.1869,4.1997,4.1869,4.1804,0.0,0.0,4.05,4.0385,3.9103,3.8153,3.7509,3.6985,3.6327,3.5654,3.5654,3.5594,3.5504,3.5504,3.5504,3.5504,3.5504,3.5504,3.5504,3.5504,3.5504,3.5504,3.5504,3.5504,3.5504,3.5504,3.5504,3.5504,3.5504,3.5504,3.5504,3.5504,3.5504,3.5504,3.5504,3.5504,3.5504,3.5504,3.5504,3.5504,3.5504,3.5415,3.513,3.4578,3.4339,3.3754,3.2632,3.2303,3.1975,3.1555,3.138,3.1204,3.1013,2.9784,2.8523,2.7343,2.845,2.8504,2.7193,2.7193,2.6893,2.6336,2.6336,2.6336,2.6336,2.6982,2.693,2.184,2.2497,2.2775,2.1819,2.2836,2.3872,2.3172,2.3386,2.3765,2.3765,2.4043,2.4705,2.6137,2.6503,2.7518,3.0246,3.3666,3.5733,3.5095,3.7173,3.8748,0.0,0.0,4.2407,4.3227,0.0,0.0,0.0,0.0,0.0,4.4615,4.4615,4.4615,4.4615,4.4615,4.4412,4.4006,4.3604,4.3169,4.2707,4.2707,4.2939,4.338,4.2909,4.2707,4.2629,0.0,4.0565,4.0086,3.8968,3.7873,3.6881,3.6596,3.6088,3.5504,3.5504,3.5504,3.5504,3.5504,3.5504,3.5504,3.5504,3.5504,3.5504,3.5504,3.5504,3.5504,3.5504,3.5504,3.5504,3.5504,3.5504,3.5504,3.5504,3.5504,3.5504,3.5504,3.5504,3.5504,3.5504,3.5504,3.5504,3.5504,3.5504,3.5504,3.5504,3.5504,3.5385,3.507,3.4728,3.4279,3.3649,3.326,3.2781,3.2093,3.2034,3.1884,3.1525,3.0894,3.0075,2.9073,2.9711,2.9637,2.8643,2.8628,2.8304,2.7645,2.7645,2.7453,2.7086,2.7433,2.7408,2.1972,2.2329,2.2816,2.3779,2.4912,2.5759,2.5743,2.6133,2.6559,2.6726,2.706,2.757,2.851,2.9387,3.0731,3.3124,3.6217,3.767,3.5811,3.7703,3.923,3.9046,4.0726,4.2228,4.2982,0.0,0.0,0.0,0.0,0.0,4.4073,4.4073,4.4158,4.4299,4.4316,4.4429,4.4615,4.4615,4.4253,4.3591,4.3591,4.3931,4.457,4.3902,4.3591,4.3512,4.1898,4.0863,4.0211,3.9091,3.8021,3.7042,3.689,3.6381,3.5748,3.5734,3.5729,3.5729,3.5729,3.5729,3.5714,3.5549,3.5504,3.5504,3.5504,3.5504,3.5504,3.5504,3.5504,3.5504,3.5504,3.5504,3.5504,3.5504,3.5504,3.5504,3.5504,3.5504,3.5504,3.5504,3.5504,3.5504,3.5504,3.5504,3.5504,3.5504,3.5504,3.5504,3.5504,3.504,3.4651,3.4533,3.4054,3.3395,3.2557,3.2512,3.2198,3.154,3.1511,3.1271,3.0776,3.0746,3.0447,2.9804,2.9804,2.9475,2.8831,2.8831,2.8562,2.8064,2.7914,2.7839,2.4904,2.4803,2.4651,2.6084,2.5163,2.4443,2.6594,2.7369,2.789,2.8634,2.9867,3.069,3.0232,3.24,3.4742,3.6247,3.8436,3.9633,3.8707,0.0,4.0643,4.0064,4.0635,4.1425,0.0,0.0,0.0,0.0,0.0,0.0,4.2455,4.2455,4.2777,4.3443,4.3504,4.3842,4.4598,4.4615,4.457,4.4514,4.4514,4.4542,4.4615,4.4542,4.4514,4.4406,4.2812,4.2085,4.1852,3.9682,3.873,3.8559,3.7937,3.7237,3.6523,3.6444,3.6417,3.6417,3.6417,3.6417,3.6312,3.5699,3.5504,3.5504,3.5504,3.5504,3.5504,3.5504,3.5504,3.5504,3.5504,3.5504,3.5504,3.5504,3.5504,3.5504,3.5504,3.5504,3.5504,3.5504,3.5504,3.5504,3.5504,3.5504,3.5504,3.5504,3.5504,3.5504,3.5504,3.5459,3.519,3.4578,3.4474,3.3888,3.2617,3.2512,3.2198,3.154,3.1511,3.1481,3.1436,3.1436,3.1107,3.0447,3.0432,3.0133,2.9532,2.9532,2.9517,2.9457,2.8816,2.8532,2.3395,2.4002,2.4745,2.5761,2.6135,2.6854,2.9156,3.0499,3.1627,3.2848,3.3558,3.3871,3.3657,3.529,3.6859,3.734,3.9297,4.033,3.9085,4.0188,4.0871,4.0172,4.0706,4.1426,0.0,0.0,0.0,0.0,0.0,0.0,4.2286,4.2286,4.2422,4.2709,4.2726,4.2861,4.3176,4.3176,4.3176,4.3166,4.3623,4.3606,4.321,4.3639,4.3606,4.3149,4.2511,4.1733,4.0786,3.9425,3.8594,3.8144,3.7889,3.7886,3.8016,3.8011,3.7982,3.7982,3.7982,3.7343,3.6533,3.6288,3.6196,3.6086,3.5651,3.5799,3.6086,3.5651,3.5504,3.5504,3.5504,3.5504,3.5504,3.5504,3.5504,3.5504,3.5504,3.5504,3.5504,3.5504,3.5504,3.5504,3.5504,3.5504,3.5504,3.5504,3.5504,3.5504,3.5504,3.5504,3.54,3.5145,3.4758,3.4309,3.3784,3.2976,3.2378,3.2123,3.1735,3.1511,3.1511,3.1511,3.1376,3.1122,3.1122,3.0793,3.0163,3.0163,2.9968,2.9606,2.9352,2.9205,2.2987,2.3562,2.444,2.5642,2.6877,2.8584,3.1562,3.3017,3.4303,3.6282,3.6479,3.639,3.6638,3.7541,3.8296,3.8515,4.0217,4.1191,4.0115,4.0688,4.1004,4.05,4.068,0.0,0.0,0.0,0.0,0.0,0.0,0.0,0.0,4.1619,4.1694,4.1948,4.1948,4.2049,4.2286,4.2286,4.2168,4.1948,4.2472,4.2574,4.2303,4.2828,4.2777,4.2286,4.2049,4.1362,4.038,3.9605,3.8978,3.8486,3.8262,3.8597,3.9273,3.9234,3.9225,3.9225,3.9225,3.8374,3.7261,3.7042,3.6964,3.6889,3.6368,3.6585,3.6859,3.6368,3.6227,3.6227,3.6227,3.5846,3.5504,3.5504,3.5504,3.5504,3.5504,3.5504,3.5504,3.5504,3.5504,3.5504,3.5504,3.5504,3.5504,3.5504,3.5504,3.5504,3.5504,3.5504,3.5504,3.5504,3.5085,3.4711,3.4533,3.3649,3.2961,3.2542,3.2064,3.172,3.1511,3.1511,3.1511,3.1511,3.1511,3.1271,3.0836,3.0836,3.0612,3.0193,2.9968,2.9864,2.4474,2.3966,2.3951,2.615,2.7283,2.9007,3.3491,3.4506,3.5368,3.8396,3.8447,3.8159,3.887,3.9005,3.9259,3.9978,4.1356,4.2303,4.2303,4.1677,4.1221,4.1204,4.0544,0.0,0.0,0.0,0.0,0.0,0.0,0.0,0.0,4.0096,4.0434,4.117,4.1187,4.1542,4.2252,4.2269,4.1914,4.1187,4.1187,4.1576,4.2269,4.2286,4.2286,4.2236,4.1508,4.1204,4.1136,4.0417,4.0096,4.002,3.9219,3.9396,4.0083,3.9944,3.99,3.99,3.99,3.9422,3.8674,3.8017,3.7806,3.7822,3.7793,3.7806,3.7822,3.7793,3.7793,3.7793,3.7793,3.6662,3.5537,3.5537,3.5537,3.5537,3.5537,3.5537,3.5537,3.5504,3.5504,3.5504,3.5504,3.5504,3.5504,3.5504,3.5504,3.5504,3.5504,3.5504,3.5504,3.5504,3.5504,3.5235,3.4578,3.4503,3.3949,3.2617,3.2527,3.2228,3.1525,3.1511,3.1511,3.1511,3.1511,3.1511,3.1511,3.1511,3.1511,3.1481,3.0808,3.0507,2.3088,2.3934,2.5236,2.6404,2.8839,3.1715,3.4624,3.5707,3.6965,3.9935,4.0375,4.0138,3.9842,4.0189,4.0629,4.0849,4.2117,4.3081,4.3081,4.2895,4.2344,4.1322,0.0,0.0,0.0,0.0,0.0,0.0,0.0,0.0,0.0,4.0096,4.0197,4.0434,4.0434,4.0536,4.0756,4.0756,4.0654,4.0434,4.0434,4.0553,4.0773,4.1288,4.1238,4.0773,4.1068,4.0899,4.0417,4.0197,4.0096,4.007,3.9833,4.021,4.0872,4.0832,4.0817,4.0817,4.0817,3.9946,3.883,3.8645,3.858,3.8469,3.795,3.8161,3.8469,3.795,3.7793,3.7793,3.7793,3.7472,3.7131,3.7131,3.7131,3.7131,3.7131,3.7131,3.6935,3.6368,3.6275,3.6117,3.5587,3.5504,3.5504,3.5504,3.5504,3.5504,3.5504,3.5504,3.5504,3.5504,3.5504,3.5429,3.522,3.4788,3.4558,3.4665,3.373,3.2705,3.1554,3.1511,3.1511,3.1511,3.1511,3.1511,3.1511,3.1511,3.1511,3.1511,3.1301,3.1197,2.3564,2.4797,2.6353,2.7706,3.0176,3.3123,3.6248,3.8007,3.9563,4.166,4.1847,4.1593,4.1441,4.1525,4.1728,4.2033,4.3098,4.3876,4.3876,4.3606,4.2953,4.1779,0.0,0.0,0.0,0.0,0.0,0.0,0.0,0.0,0.0,4.0096,4.0096,4.0096,4.0096,4.0096,4.0096,4.0096,4.0096,4.0096,4.0096,4.0096,4.013,4.0544,4.051,4.013,4.0561,4.0493,4.0096,4.0096,4.0096,4.0096,4.0096,4.0544,4.1204,4.1204,4.1204,4.1204,4.1204,4.0404,3.9368,3.9368,3.9368,3.9289,3.8859,3.9022,3.9289,3.8832,3.8723,3.8723,3.8723,3.8723,3.8557,3.795,3.7793,3.7793,3.7793,3.7793,3.7661,3.7174,3.7084,3.6919,3.6492,3.6399,3.6305,3.5975,3.5701,3.5619,3.5894,3.5668,3.5733,3.6337,3.6133,3.607,3.6383,3.6045,3.5902,3.6064,3.5291,3.4326,3.3252,3.2394,3.1796,3.1511,3.1511,3.1511,3.1511,3.1511,3.1511,3.1511,3.1511,3.1511,2.5118,2.6133,2.7351,2.9634,3.1512,3.3935,3.821,4.0747,4.2405,4.3166,4.2878,4.2692,4.3274,4.2912,4.2692,4.3291,4.4079,4.4615,4.4615,4.3978,4.3234,4.2489,0.0,0.0,0.0,0.0,0.0,0.0,0.0,0.0,0.0,4.0096,4.0096,4.0096,4.0096,4.0096,4.0096,4.0096,4.0096,0.0,4.0096,4.0096,4.0096,4.0096,4.0096,4.0096,4.0096,4.0096,4.0096,4.0096,4.0096,4.0096,4.0096,4.0493,4.1102,4.1102,4.1102,4.1102,4.1102,4.0646,4.0096,4.0096,4.0096,4.0096,4.0096,4.0096,4.0096,4.0096,4.0096,4.0096,4.0096,4.0096,3.9731,3.8346,3.8007,3.8007,3.8007,3.8007,3.7978,3.7921,3.7892,3.7863,3.7806,3.7793,3.7544,3.6813,3.6149,3.5958,3.6615,3.6117,3.6258,3.7648,3.716,3.701,3.7719,3.7793,3.7562,3.703,3.6917,3.6623,3.6023,3.3927,3.2475,3.1801,3.1712,3.1653,3.1611,3.1611,3.1553,3.1511,3.1511,3.1511,2.4491,2.6116,2.8111,3.0395,3.3846,3.7398,4.0104,4.1085,4.1644,4.2371,4.3352,4.3944,4.3504,4.3792,4.3944,4.3487,4.4079,4.4615,4.4615,4.4462,4.4045,0.0,0.0,0.0,0.0,0.0,0.0,0.0,0.0,0.0,4.0096,4.0096,4.0096,4.0096,4.0096,4.0096,4.0096,4.0096,4.0096,0.0,4.0096,4.0096,4.0096,4.0096,4.0096,4.0096,4.0096,4.0096,4.0096,4.0096,4.0096,4.0096,4.0096,4.0197,4.035,4.035,4.035,4.035,4.035,4.0231,4.0096,4.0096,4.0096,4.0096,4.0096,4.0096,4.0096,4.0096,4.0096,4.0096,4.0096,4.0096,4.002,3.9679,3.9601,3.9601,3.9601,3.9601,3.9428,3.8789,3.8663,3.8469,3.7892,3.7793,3.7719,3.7573,3.7413,3.7354,3.7515,3.7413,3.7442,3.7748,3.7648,3.7602,3.7793,3.7793,3.7999,3.8406,3.791,3.7576,3.7525,3.5422,3.4165,3.4004,3.3424,3.2906,3.2355,3.2355,3.2064,3.1511,3.1511,3.1511,2.4541,2.6674,2.9262,3.2949,3.591,3.8396,4.024,4.095,4.1322,4.1694,4.2675,4.3352,4.2946,4.3217,4.347,4.3392,4.3758,4.4147,4.4564,4.4615,4.4282,0.0,0.0,0.0,0.0,0.0,0.0,0.0,0.0,4.0096,4.0096,4.0096,4.0096,4.0096,4.0096,4.0096,4.0096,4.0096,4.0096,4.0096,4.0096,4.0096,4.0096,4.0096,4.0096,4.0096,4.0096,4.0096,4.0096,4.0096,4.0096,4.0096,4.0096,4.0096,4.0096,4.0096,4.0096,4.0096,4.0096,4.0096,4.0096,4.0096,4.0096,4.0096,4.0096,4.0096,4.0096,4.0096,4.0096,4.0096,4.0096,4.0096,4.0096,4.0096,4.0096,4.0096,4.0096,4.0096,3.9995,3.9558,3.9463,3.9342,3.8968,3.8596,3.8346,3.8346,3.8035,3.7921,3.8274,3.8035,3.8092,3.8832,3.8569,3.8486,3.8859,3.8914,3.9076,3.9463,3.9113,3.8938,3.9007,3.7549,3.6123,3.4723,3.4312,3.3778,3.3093,3.3093,3.2879,3.2516,3.2516,3.2516,2.434,2.7063,3.0381,3.5357,3.7246,3.8261,3.9605,4.0476,4.1018,4.1018,4.1694,4.2286,4.2286,4.2286,4.2489,4.3115,4.3189,4.3487,4.4265,4.4384,4.4147,0.0,0.0,0.0,0.0,0.0,0.0,0.0,0.0,4.0096,4.0096,4.0096,4.0096,4.0096,4.0096,4.0096,4.0096,4.0096,4.0096,4.0096,4.0096,4.0096,4.0096,4.0096,4.0096,4.0096,4.0096,4.0096,4.0096,4.0096,4.0096,4.0096,4.0096,4.0096,4.0096,4.0096,4.0096,4.0096,4.0096,4.0096,4.0096,4.0096,4.0096,4.0096,4.0096,4.0096,4.0096,4.0096,4.0096,4.0096,4.0096,4.0096,4.0096,4.0096,4.0096,4.0096,4.0096,4.0096,4.0096,4.0096,4.0096,4.0096,4.0096,3.9542,3.9113,3.9113,3.8596,3.843,3.9032,3.8569,3.8695,3.9952,3.9489,3.9368,4.0045,4.0096,4.0096,4.0096,4.0096,4.0096,4.0096,3.952,3.8012,3.5487,3.5202,3.4704,3.3963,3.3825,3.371,3.3582,3.3582,3.3582,2.2462,2.6269,3.0903,3.4788,3.6834,3.8125,3.8954,3.9723,4.0248,4.0248,4.1322,4.2286,4.2286,4.2286,4.232,4.2422,4.2439,4.2709,4.347,4.3572,4.3511,0.0,0.0,0.0,0.0,0.0,0.0,0.0,4.0096,4.0096,4.0096,4.0096,4.0096,4.0096,4.0096,4.0096,4.0096,4.0096,4.0096,4.0096,4.0096,4.0096,4.0096,4.0096,4.0096,4.0096,4.0096,4.0096,4.0096,4.0096,4.0096,4.0096,4.0096,4.0096,4.0096,4.0096,4.0096,4.0096,4.0096,4.0096,4.0096,4.0096,4.0096,4.0096,4.0096,4.0096,4.0096,4.0096,4.0096,4.0096,4.0096,4.0096,4.0096,4.0096,4.0096,4.0096,4.0096,4.0096,4.0096,4.0096,4.0096,4.0096,4.0096,4.002,3.9927,3.9927,3.985,3.9825,3.9927,3.985,3.9876,4.007,3.9995,3.9978,4.0096,4.0096,4.0096,4.0096,4.0096,4.0096,4.0096,4.0011,3.9479,3.8462,3.716,3.6159,3.5432,3.4767,3.4161,3.3582,3.3582,3.3582,2.3883,2.7063,3.0463,3.4568,3.6107,3.6918,3.8108,3.8954,3.9486,3.9486,4.0333,4.1077,4.1077,4.1077,4.1187,4.161,4.1677,4.1931,4.2675,4.2777,0.0,0.0,0.0,0.0,0.0,0.0,0.0,0.0,4.0096,4.0096,4.0096,4.0096,4.0096,4.0096,4.0096,4.0096,4.0096,4.0096,4.0096,4.0096,4.0096,4.0096,4.0096,4.0096,4.0096,4.0096,4.0096,4.0096,4.0096,4.0096,4.0096,4.0096,4.0096,4.0096,4.0096,4.0096,4.0096,4.0096,4.0096,4.0096,4.0096,4.0096,4.0096,4.0096,4.0096,4.0096,4.0096,4.0096,4.0096,4.0096,4.0096,4.0096,4.0096,4.0096,4.0096,4.0096,4.0096,4.0096,4.0096,4.0096,4.0096,4.0096,4.0096,4.0096,4.0096,4.0096,4.0096,4.0096,4.0096,4.0096,4.0096,4.0096,4.0096,4.0096,4.0096,4.0096,4.0096,4.0096,4.0096,4.0096,4.0096,4.0096,3.996,3.9622,3.8589,3.7465,3.6305,3.5994,3.5445,3.4728,3.4728,3.4728,2.4649,2.6824,2.8762,3.3192,3.4601,3.5309,3.6948,3.7905,3.8531,3.8903,3.9453,3.9893,4.0079,4.0096,4.0282,4.0832,4.0916,4.117,4.1914,4.2016,0.0,0.0,0.0,0.0,0.0,0.0,0.0,0.0,4.0096,4.0096,4.0096,4.0096,4.0096,4.0096,4.0096,4.0096,4.0096,4.0096,4.0096,4.0096,4.0096,4.0096,4.0096,4.0096,4.0096,4.0096,4.0096,4.0096,4.0096,4.0096,4.0096,4.0096,4.0096,4.0096,4.0096,4.0096,4.0096,4.0096,4.0096,4.0096,4.013,4.0333,4.0383,4.0417,4.0603,4.0671,4.062,4.0434,4.0383,4.035,4.0146,4.0096,4.0096,4.0096,4.0096,4.0096,4.0096,4.0096,4.0096,4.0096,4.0096,4.0096,4.0096,4.0096,4.0096,4.0096,4.0096,4.0096,4.0096,4.0096,4.0096,4.0096,4.0096,4.0096,4.0096,4.0096,4.0096,4.0096,4.0096,4.0096,4.0096,4.0096,4.0096,4.0096,3.9571,3.8657,3.7371,3.7185,3.6671,3.591,3.591,3.5785,2.2923,2.4095,2.5224,2.9661,3.1863,3.3428,3.5299,3.6332,3.732,3.87,3.9022,3.9259,3.9977,4.0096,4.0113,4.0146,4.0163,4.0417,4.1153,4.1271,0.0,0.0,0.0,0.0,0.0,0.0,0.0,0.0,4.0096,4.0096,4.0096,4.0096,4.0096,4.0096,4.0096,4.0096,4.0096,4.0096,4.0096,4.0096,4.0096,4.0096,4.0096,4.0096,4.0096,4.0096,4.0096,4.0096,4.0096,4.0096,4.0096,4.0096,4.0096,4.0096,4.0096,4.0096,4.0096,4.0096,4.0096,4.0096,4.0231,4.0916,4.1136,4.1271,4.1965,4.2185,4.2033,4.1339,4.1136,4.0984,4.0282,4.0096,4.0096,4.0096,4.0096,4.0096,4.0096,4.0096,4.0096,4.0096,4.0096,4.0096,4.0096,4.0096,4.0096,4.0096,4.0096,4.0096,4.0096,4.0096,4.0096,4.0096,4.0096,4.0096,4.0096,4.0096,4.0096,4.0096,4.0096,4.0096,4.0096,4.0096,4.0096,4.0096,4.0062,3.9673,3.887,3.8176,3.7449,3.6745,3.6745,3.6315,2.184,2.3628,2.5526,2.803,2.9989,3.1638,3.2823,3.4627,3.618,3.6721,3.8252,3.9593,3.9868,4.0298,4.0607,4.0607,4.0938,4.1277,4.1556,4.1259,0.0,0.0,0.0,0.0,0.0,0.0,0.0,0.0,0.0,0.0,4.0096,4.0096,4.0096,4.0096,4.0096,4.0096,4.0096,4.0096,4.0096,4.0096,4.0096,4.0096,4.0096,4.0096,4.0096,4.0096,4.0096,4.0096,4.0096,4.0096,4.0096,4.0146,4.0473,4.0417,4.0146,4.0497,4.0392,4.018,4.0629,4.0798,4.0933,4.166,4.1914,4.1948,4.2219,4.2286,4.2236,4.1982,4.1914,4.1728,4.1001,4.0798,4.0679,4.0214,4.0096,4.0096,4.0096,4.0096,4.0096,4.0096,4.0096,4.0096,4.0096,4.0096,4.0096,4.0096,4.0096,4.0096,4.0096,4.0096,4.0096,4.0096,4.0096,4.0096,4.0096,4.0096,4.0096,4.0096,4.0096,4.0096,4.0096,4.0096,4.0096,4.0096,4.0096,3.974,3.8988,3.8734,3.8227,3.7499,3.7499,3.7094,2.0915,2.2558,2.4656,2.6875,2.7999,2.9216,3.1759,3.3266,3.4511,3.5822,3.7594,3.905,3.9574,4.0447,4.1091,4.1193,4.1534,4.181,4.181,4.1446,0.0,0.0,0.0,0.0,0.0,0.0,0.0,0.0,0.0,0.0,4.0096,4.0096,4.0096,4.0096,4.0262,4.0368,4.0368,4.057,4.0666,4.0666,4.0666,4.057,4.0368,4.0368,4.0262,4.0096,4.0286,4.0279,4.0096,4.0096,4.0204,4.0417,4.0756,4.0821,4.0696,4.1064,4.0868,4.0487,4.123,4.1367,4.1408,4.2593,4.2995,4.3082,4.3537,4.3683,4.3632,4.3373,4.3305,4.3082,4.2151,4.1554,4.1085,4.0578,4.0282,4.0096,4.0096,4.0096,4.0096,4.0096,4.0096,4.0096,4.0096,4.0096,4.0096,4.0096,4.0096,4.0096,4.0096,4.0096,4.0096,4.0096,4.0096,4.0096,4.0096,4.0096,4.0096,4.0096,4.0096,4.0096,4.0096,4.0096,4.0096,4.0096,4.0096,3.9859,3.9385,3.9385,3.8988,3.8278,3.8278,3.7872,0.0,0.0,0.0,2.6033,2.5817,2.6249,3.202,3.2188,3.2225,3.6107,3.6992,3.7522,3.9078,4.0475,4.1477,4.1742,4.1817,4.1853,4.1853,4.1853,0.0,0.0,0.0,0.0,0.0,0.0,0.0,0.0,4.0483,4.0146,4.0121,4.0121,4.0121,4.0121,4.0648,4.0926,4.0926,4.1512,4.181,4.181,4.181,4.149,4.0926,4.0926,4.0631,4.0196,4.0703,4.0631,4.0146,4.0146,4.0449,4.0926,4.0949,4.1313,4.181,4.1832,4.1464,4.1082,4.1873,4.1788,4.1673,4.3767,4.446,4.4707,4.6011,4.6407,4.6248,4.5515,4.5326,4.5028,4.3694,4.2319,4.1273,4.1256,4.0722,4.0163,4.0163,4.0146,4.0146,4.0113,4.0096,4.0096,4.0096,4.0096,4.0096,4.0096,4.0096,4.0096,4.0096,4.0096,4.0096,4.0096,4.0096,4.0096,4.0096,4.0096,4.0096,4.0096,4.0096,4.0096,4.0096,4.0096,4.0096,4.0096,4.0096,4.0096,4.0096,4.0096,3.974,3.9022,3.9005,3.8616,2.105,0.0,0.0,0.0,0.0,0.0,2.692,2.8357,3.0099,3.2366,3.4495,3.643,3.8026,3.9893,4.1208,4.1286,4.2287,4.3014,4.3014,4.2694,0.0,0.0,0.0,0.0,0.0,0.0,0.0,0.0,4.142,4.1127,4.0703,4.0679,4.0679,4.0679,4.1246,4.1556,4.1556,4.1725,4.181,4.181,4.181,4.1707,4.1556,4.1556,4.1468,4.1331,4.149,4.1486,4.1331,4.1331,4.142,4.1599,4.2021,4.2038,4.1853,4.2302,4.2439,4.2533,4.3281,4.3822,4.4342,4.5486,4.5851,4.591,4.6289,4.6407,4.6354,4.6165,4.6112,4.5894,4.4994,4.4056,4.3238,4.2636,4.2356,4.2041,4.1453,4.1331,4.1099,4.0254,4.0096,4.0096,4.0096,4.0096,4.0096,4.0096,4.0096,4.0096,4.0096,4.0096,4.0096,4.0096,4.0096,4.0096,4.0096,4.0096,4.0096,4.0096,4.0096,4.0096,4.0096,4.0096,4.0096,4.0096,4.0096,4.0096,4.0096,4.0096,3.9994,3.9791,3.9242,3.8886,2.1671,2.2612,2.3639,2.3373,0.0,0.0,2.6215,2.7221,2.8537,3.0815,3.2889,3.477,3.6383,3.828,3.9717,4.0031,4.1167,4.2231,4.2892,4.3031,0.0,0.0,0.0,0.0,0.0,4.2304,4.2183,4.2183,4.1707,4.1268,4.0926,4.1155,4.1291,4.1291,4.1874,4.2183,4.2183,4.2404,4.2523,4.2523,4.2523,4.2404,4.2183,4.2183,4.2041,4.1793,4.208,4.2183,4.2183,4.2424,4.2384,4.2203,4.2559,4.2617,4.2542,4.2902,4.3162,4.3492,4.4236,4.4849,4.5478,4.6483,4.6819,4.6847,4.711,4.7198,4.7198,4.7198,4.7021,4.6735,4.6293,4.5169,4.405,4.3567,4.2965,4.2363,4.1899,4.181,4.1617,4.0955,4.0814,4.0814,4.0814,4.0594,4.0424,4.0424,4.0254,4.0179,4.04,4.0424,4.0521,4.0791,4.0814,4.0814,4.0814,4.0594,4.0441,4.0458,4.0246,4.0096,4.0096,4.0096,4.0096,4.0096,4.0096,4.0096,4.0096,4.0096,4.0229,4.0424,3.9997,3.9935,2.24,2.2795,2.3703,2.4952,2.4392,0.0,2.7611,2.7427,2.742,3.0277,3.1513,3.2564,3.4179,3.5826,3.7162,3.779,3.8872,4.023,4.1937,4.2782,0.0,0.0,0.0,0.0,4.3368,4.2923,4.268,4.277,4.1729,4.111,4.111,4.1599,4.1895,4.1895,4.248,4.2788,4.2788,4.325,4.3515,4.3515,4.3515,4.325,4.2788,4.2788,4.25,4.2021,4.2559,4.2788,4.2826,4.3303,4.3214,4.2788,4.2788,4.3069,4.3515,4.3515,4.3725,4.4091,4.4831,4.5279,4.5704,4.7071,4.7509,4.7593,4.8152,4.8306,4.8306,4.8306,4.7917,4.7509,4.7509,4.5972,4.4396,4.4307,4.3191,4.2107,4.2018,4.2,4.2,4.2,4.1895,4.181,4.181,4.1358,4.0995,4.0995,4.0577,4.0466,4.0926,4.0995,4.1201,4.1729,4.181,4.181,4.181,4.1313,4.1036,4.1088,4.0604,4.0303,4.0303,4.0229,4.0229,4.0303,4.0303,4.0254,4.0179,4.0179,4.0424,4.0903,4.0972,4.1291,2.4732,2.5273,2.5658,2.4685,0.0,0.0,2.4584,2.5428,2.6778,2.742,2.8172,2.9237,3.0852,3.2467,3.3403,3.2889,3.573,3.8759,4.1022,4.1462,0.0,0.0,0.0,0.0,4.247,4.244,4.2644,4.3302,4.2733,4.2342,4.2342,4.246,4.2519,4.2519,4.305,4.3339,4.3339,4.3444,4.3515,4.3515,4.3515,4.3444,4.3339,4.3339,4.3286,4.316,4.3286,4.3339,4.3357,4.3444,4.3427,4.3339,4.3339,4.341,4.3515,4.3515,4.394,4.4656,4.5443,4.6173,4.6899,4.7819,4.8114,4.8152,4.8267,4.8306,4.8306,4.8306,4.8229,4.8114,4.8114,4.7323,4.6351,4.5694,4.4819,4.3944,4.3306,4.3178,4.3178,4.3178,4.2426,4.181,4.181,4.1686,4.1621,4.1621,4.1552,4.1508,4.1599,4.1621,4.1664,4.1789,4.181,4.181,4.181,4.1686,4.1621,4.1639,4.153,4.1464,4.1464,4.1013,4.0967,4.1464,4.1464,4.1241,4.0733,4.0733,4.0803,4.0903,4.1402,4.1686,2.5503,2.5686,2.5988,2.5988,0.0,0.0,0.0,2.5107,2.564,2.6418,2.6924,2.7695,2.9299,3.0253,3.0944,3.1342,3.3458,3.5624,3.7239,3.9554,4.1095,0.0,0.0,0.0,4.1645,4.1699,4.191,4.2413,4.285,4.2976,4.2711,4.2958,4.3105,4.3105,4.3375,4.3515,4.3515,4.3515,4.3515,4.3515,4.3515,4.3515,4.3515,4.3515,4.3515,4.3515,4.3515,4.3515,4.3515,4.3515,4.3515,4.3515,4.3515,4.3515,4.3515,4.3515,4.4011,4.4837,4.5626,4.6434,4.7223,4.8049,4.8306,4.8306,4.8306,4.8306,4.8233,4.781,4.7975,4.8306,4.8306,4.7425,4.6416,4.5993,4.4984,4.3993,4.3589,4.3515,4.3515,4.3515,4.3051,4.2639,4.2639,4.2424,4.2262,4.2262,4.1979,4.1916,4.2203,4.2262,4.2344,4.262,4.2639,4.2639,4.2639,4.2404,4.2262,4.2262,4.1958,4.181,4.181,4.1512,4.149,4.1793,4.181,4.1643,4.1358,4.1643,4.181,4.1793,4.2121,4.2384,0.0,2.6311,2.6762,0.0,0.0,2.6346,0.0,0.0,0.0,0.0,0.0,0.0,2.7831,0.0,0.0,0.0,0.0,0.0,0.0,3.6578,0.0,0.0,0.0,0.0,0.0,4.0545,4.0836,4.1307,4.2118,4.259,4.2629,4.3031,4.3332,4.3515,4.3515,4.3515,4.3515,4.3515,4.3515,4.3515,4.3515,4.3515,4.3515,4.3515,4.3515,4.3515,4.3515,4.3515,4.3515,4.3515,4.3515,4.3515,4.3515,4.3515,4.3515,4.3515,4.3901,4.458,4.5388,4.6104,4.6801,4.7774,4.8177,4.8306,4.8306,4.8306,4.8159,4.7498,4.7791,4.8306,4.8306,4.7113,4.5902,4.5902,4.4672,4.3515,4.3515,4.3515,4.3515,4.3515,4.3515,4.3515,4.3515,4.3142,4.2864,4.2864,4.2424,4.2304,4.2789,4.2864,4.3014,4.3444,4.3515,4.3515,4.3515,4.3087,4.2864,4.2864,4.2384,4.2124,4.2124,4.2124,4.2024,4.1793,4.2021,4.2083,4.1979,4.2578,4.2807,4.2693,4.2807,4.3105,0.0,0.0,0.0,0.0,2.8994,0.0,0.0,0.0,2.62,2.4771,0.0,0.0,0.0,0.0,0.0,0.0,0.0,0.0,2.8668,3.1421,3.383,0.0,0.0,0.0,0.0,3.8542,3.9575,4.1029,3.996,4.0143,4.222,4.2399,4.2763,4.3478,4.3515,4.3515,4.3515,4.3515,4.3515,4.3515,4.3515,4.3515,4.3515,4.3515,4.3515,4.3515,4.3515,4.3515,4.3515,4.3515,4.3515,4.3515,4.3515,4.3515,4.3515,4.3515,4.357,4.3736,4.4562,4.4893,4.5223,4.6746,4.7718,4.8306,4.8306,4.8306,4.8288,4.8196,4.8233,4.8306,4.8306,4.7113,4.5902,4.5902,4.4672,4.3515,4.3515,4.3515,4.3515,4.3515,4.3515,4.3515,4.3515,4.3444,4.341,4.341,4.3339,4.3339,4.341,4.341,4.3427,4.3479,4.3515,4.3515,4.3515,4.3444,4.341,4.341,4.3339,4.3303,4.3303,4.3303,4.2829,4.1832,4.2791,4.3069,4.2596,4.3142,4.316,4.2711,4.3196,4.3444,0.0,0.0,0.0,0.0,0.0,0.0,2.6534,0.0,2.5597,0.0,0.0,0.0,0.0,0.0,0.0,0.0,2.6704,0.0,0.0,0.0,3.0968,0.0,0.0,0.0,0.0,0.0,0.0,0.0,0.0,3.8836,4.0799,4.1791,4.2451,4.2782,4.3259,4.3515,4.3515,4.3515,4.3515,4.3515,4.3515,4.3515,4.3515,4.3515,4.3515,4.3515,4.3515,4.3515,4.3515,4.3515,4.3515,4.3515,4.3515,4.3515,4.3515,4.3515,4.3515,4.3608,4.4415,4.4691,4.4966,4.6581,4.7333,4.759,4.759,4.792,4.8214,4.7736,4.7938,4.8306,4.8306,4.7113,4.5902,4.5902,4.4672,4.3515,4.3515,4.3515,4.3515,4.3515,4.3515,4.3515,4.3515,4.3515,4.3515,4.3515,4.3515,4.3515,4.3515,4.3515,4.3515,4.3515,4.3515,4.3515,4.3515,4.3515,4.3515,4.3515,4.3515,4.3515,4.3515,4.3515,4.3267,4.2791,4.3249,4.3392,4.316,4.3392,4.3392,4.3178,4.3392,4.3515,3.0894,0.0,0.0,0.0,0.0,0.0,0.0,0.0,0.0,0.0,0.0,0.0,0.0,0.0,0.0,0.0,0.0,2.6447,0.0,0.0,0.0,0.0,0.0,0.0,0.0,0.0,0.0,0.0,0.0,0.0,3.9441,4.0891,4.1846,4.2286,4.3075,4.3515,4.3515,4.3515,4.3515,4.3515,4.3515,4.3515,4.3515,4.3515,4.3515,4.3515,4.3515,4.3515,4.3515,4.3515,4.3515,4.3515,4.3515,4.3515,4.3515,4.3515,4.3515,4.3608,4.4415,4.4984,4.5553,4.6727,4.7241,4.7424,4.7424,4.7828,4.8196,4.759,4.7846,4.8306,4.8306,4.7278,4.6177,4.5957,4.4837,4.3754,4.3551,4.3515,4.3515,4.3515,4.3515,4.3515,4.3515,4.3515,4.3515,4.3515,4.3515,4.3515,4.3515,4.3515,4.3515,4.3515,4.3515,4.3515,4.3515,4.3515,4.3515,4.3515,4.3515,4.3515,4.3515,4.3515,4.3515,4.3515,4.3515,4.3515,4.3515,4.3515,4.3515,4.3515,4.3515,4.3515,0.0,0.0,0.0,3.0481,0.0,0.0,0.0,0.0,2.8162,0.0,0.0,0.0,0.0,0.0,0.0,0.0,0.0,0.0,0.0,0.0,0.0,0.0,0.0,0.0,0.0,0.0,0.0,0.0,0.0,0.0,3.8487,3.9533,4.0689,4.2249,4.3075,4.3515,4.3515,4.3515,4.3515,4.3515,4.3515,4.3515,4.3515,4.3515,4.3515,4.3515,4.3515,4.3515,4.3515,4.3515,4.3515,4.3515,4.3515,4.3515,4.3515,4.3515,4.3515,4.3608,4.4415,4.5718,4.7021,4.7076,4.7626,4.8269,4.8269,4.8288,4.8306,4.8269,4.8288,4.8306,4.8306,4.7681,4.6856,4.6085,4.5278,4.4452,4.3663,4.3515,4.3515,4.3515,4.3515,4.3515,4.3515,4.3515,4.3515,4.3515,4.3515,4.3515,4.3515,4.3515,4.3515,4.3515,4.3515,4.3515,4.3515,4.3515,4.3515,4.3515,4.3515,4.3515,4.3515,4.3515,4.3515,4.3515,4.3515,4.3515,4.3515,4.3515,4.3515,4.3515,4.3515,4.3515,0.0,0.0,3.6886,3.3329,0.0,0.0,0.0,0.0,0.0,0.0,0.0,0.0,0.0,0.0,0.0,0.0,0.0,0.0,0.0,0.0,0.0,0.0,0.0,0.0,0.0,0.0,0.0,0.0,3.1861,0.0,0.0,3.8083,3.9606,4.0671,4.2011,4.2947,4.3496,4.3515,4.3515,4.3515,4.3515,4.3515,4.3515,4.3515,4.3515,4.3515,4.3515,4.3515,4.3515,4.3515,4.3515,4.3515,4.3515,4.3515,4.3515,4.3515,4.3515,4.3608,4.4415,4.5406,4.6397,4.6929,4.7278,4.7608,4.8141,4.8306,4.8306,4.8306,4.8306,4.8306,4.8306,4.77,4.7021,4.6746,4.5663,4.4635,4.436,4.3883,4.3515,4.3515,4.3515,4.3515,4.3515,4.3515,4.3515,4.3515,4.3515,4.3515,4.3515,4.3515,4.3515,4.3515,4.3515,4.3515,4.3515,4.3515,4.3515,4.3515,4.3515,4.3515,4.3515,4.3515,4.3515,4.3515,4.3515,4.3515,4.3515,4.3515,4.3515,4.3515,4.3515,4.3515,3.6236,3.7513,0.0,3.5078,3.4062,0.0,2.9392,0.0,0.0,0.0,0.0,0.0,0.0,0.0,0.0,0.0,0.0,0.0,0.0,2.3437,0.0,0.0,0.0,2.6972,0.0,0.0,2.8319,3.0779,3.0442,3.1421,0.0,0.0,3.8762,3.9863,4.146,4.269,4.3496,4.3515,4.3515,4.3515,4.3515,4.3515,4.3515,4.3515,4.3515,4.3515,4.3515,4.3515,4.3515,4.3515,4.3515,4.3515,4.3515,4.3515,4.3515,4.3515,4.3846,4.447,4.5278,4.6085,4.6838,4.7351,4.7516,4.7608,4.8141,4.8306,4.8306,4.8306,4.8306,4.8306,4.8306,4.7921,4.7443,4.7168,4.6305,4.548,4.5204,4.4488,4.392,4.392,4.3699,4.3531,4.3662,4.358,4.3515,4.3515,4.3515,4.3515,4.3515,4.3515,4.3515,4.3515,4.3515,4.3515,4.3515,4.3515,4.3515,4.3515,4.3515,4.3515,4.3515,4.3515,4.3515,4.3515,4.3515,4.3515,4.3515,4.3515,4.3515,4.3515,4.3515,4.3515]}]]